[[{"header":{"parameterUnit":"m.s-1","parameterCategory":1,"la1":31.0,"la2":29.5877,"lo1":-88.7671,"lo2":-86.6584,"dy":0.0162,"dx":0.0185,"nx":115,"ny":88,"refTime":"2024-05-29T12:00:00:Z","depth":0,"parameterNumber":2,"parameterNumberName":"U-component_of_WINDS"},"data":[0.0,0.0,0.0,0.0,0.0,0.0,0.0,0.0,0.0,0.0,0.0,0.0,0.0,0.0,0.0,0.0,0.0,0.0,0.0,0.0,0.0,0.0,0.0,0.0,0.0,0.0,0.0,0.0,0.0,0.0,0.0,0.0,0.0,0.0,0.0,0.0,0.0,0.0,0.0,0.0,0.0,0.0,0.0,0.0,0.0,0.0,0.0,0.0,0.0,0.0,0.0,0.0,0.0,0.0,0.0,0.0,0.0,0.0,0.0,0.0,0.0,0.0,0.0,0.0,0.0,0.0,0.0,0.0,0.0,0.0,0.0,0.0,0.0,0.0,0.0,0.0,0.0,0.0,0.0,0.0,0.0,0.0,0.0,0.0,0.0,0.0,0.0,0.0,0.0,0.0,0.0,0.0,0.0,0.0,0.0,0.0,0.0,0.0,0.0,0.0,0.0,0.0,0.0,0.0,0.0,0.0,0.0,0.0,0.0,0.0,0.0,0.0,0.0,0.0,0.0,0.0,0.0,0.0,0.0,0.0,0.0,0.0,0.0,0.0,0.0,0.0,0.0,0.0,0.0,0.0,0.0,0.0,0.0,0.0,0.0,0.0,0.0,0.0,0.0,0.0,0.0,0.0,0.0,0.0,0.0,0.0,0.0,0.0,0.0,0.0,0.0,0.0,0.0,0.0,0.0,0.0,0.0,0.0,0.0,0.0,0.0,0.0,0.0,0.0,0.0,0.0,0.0,0.0,0.0,0.0,0.0,0.0,0.0,0.0,0.0,0.0,0.0,0.0,0.0,0.0,0.0,0.0,0.0,0.0,0.0,0.0,0.0,0.0,0.0,0.0,0.0,0.0,0.0,0.0,0.0,0.0,0.0,0.0,0.0,0.0,0.0,0.0,0.0,0.0,0.0,0.0,0.0,0.0,0.0,0.0,0.0,0.0,0.0,0.0,0.0,0.0,0.0,0.0,0.0,0.0,0.0,0.0,0.0,0.0,0.0,0.0,0.0,0.0,0.0,0.0,0.0,0.0,0.0,0.0,0.0,0.0,0.0,0.0,0.0,0.0,0.0,0.0,0.0,0.0,0.0,0.0,0.0,0.0,0.0,0.0,0.0,0.0,0.0,0.0,0.0,0.0,0.0,0.0,0.0,0.0,0.0,0.0,0.0,0.0,0.0,0.0,0.0,0.0,0.0,0.0,0.0,0.0,0.0,0.0,0.0,0.0,0.0,0.0,0.0,0.0,0.0,0.0,0.0,0.0,0.0,0.0,0.0,0.0,0.0,0.0,0.0,0.0,0.0,0.0,0.0,0.0,0.0,0.0,0.0,0.0,0.0,0.0,0.0,0.0,0.0,0.0,0.0,0.0,0.0,0.0,0.0,0.0,0.0,0.0,0.0,0.0,0.0,0.0,0.0,0.0,0.0,0.0,0.0,0.0,0.0,0.0,0.0,0.0,0.0,0.0,0.0,0.0,0.0,0.0,0.0,0.0,0.0,0.0,0.0,0.0,0.0,0.0,0.0,0.0,0.0,0.0,0.0,0.0,0.0,0.0,0.0,0.0,0.0,0.0,0.0,0.0,0.0,0.0,0.0,0.0,0.0,0.0,0.0,0.0,0.0,0.0,0.0,0.0,0.0,0.0,0.0,0.0,0.0,0.0,0.0,0.0,0.0,0.0,0.0,0.0,0.0,0.0,0.0,0.0,0.0,0.0,0.0,0.0,0.0,0.0,0.0,0.0,0.0,0.0,0.0,0.0,0.0,0.0,0.0,0.0,0.0,0.0,0.0,0.0,0.0,0.0,0.0,0.0,0.0,0.0,0.0,0.0,0.0,0.0,0.0,0.0,0.0,0.0,0.0,0.0,0.0,0.0,0.0,0.0,0.0,0.0,0.0,0.0,0.0,0.0,0.0,0.0,0.0,0.0,0.0,0.0,0.0,0.0,0.0,0.0,0.0,0.0,0.0,0.0,0.0,0.0,0.0,0.0,0.0,0.0,0.0,0.0,0.0,0.0,0.0,0.0,0.0,0.0,0.0,0.0,0.0,0.0,0.0,0.0,0.0,0.0,0.0,0.0,0.0,0.0,0.0,0.0,0.0,0.0,0.0,0.0,0.0,0.0,0.0,0.0,0.0,0.0,0.0,0.0,0.0,0.0,0.0,0.0,0.0,0.0,0.0,0.0,0.0,0.0,0.0,0.0,0.0,0.0,0.0,0.0,0.0,0.0,0.0,0.0,0.0,0.0,0.0,0.0,0.0,0.0,0.0,0.0,0.0,0.0,0.0,0.0,0.0,0.0,0.0,0.0,0.0,0.0,0.0,0.0,0.0,0.0,0.0,0.0,0.0,0.0,0.0,0.0,0.0,0.0,0.0,0.0,0.0,0.0,0.0,0.0,0.0,0.0,0.0,0.0,0.0,0.0,0.0,0.0,0.0,0.0,0.0,0.0,0.0,0.0,0.0,0.0,0.0,0.0,0.0,0.0,0.0,0.0,0.0,0.0,0.0,0.0,0.0,0.0,0.0,0.0,0.0,0.0,0.0,0.0,0.0,0.0,0.0,0.0,0.0,0.0,0.0,0.0,0.0,0.0,0.0,0.0,0.0,0.0,0.0,0.0,0.0,0.0,0.0,0.0,0.0,0.0,0.0,0.0,0.0,0.0,0.0,0.0,0.0,0.0,0.0,0.0,0.0,0.0,0.0,0.0,0.0,0.0,0.0,0.0,0.0,0.0,0.0,0.0,0.0,0.0,0.0,0.0,0.0,0.0,0.0,0.0,0.0,0.0,0.0,0.0,0.0,0.0,0.0,0.0,0.0,0.0,0.0,0.0,0.0,0.0,0.0,0.0,0.0,0.0,0.0,0.0,0.0,0.0,0.0,0.0,0.0,0.0,0.0,0.0,0.0,0.0,0.0,0.0,0.0,0.0,0.0,0.0,0.0,0.0,0.0,0.0,0.0,0.0,0.0,0.0,0.0,0.0,0.0,0.0,0.0,0.0,0.0,0.0,0.0,0.0,0.0,0.0,0.0,0.0,0.0,0.0,0.0,0.0,0.0,0.0,0.0,0.0,0.0,0.0,0.0,0.0,0.0,0.0,0.0,0.0,0.0,0.0,0.0,0.0,0.0,0.0,0.0,0.0,0.0,0.0,0.0,0.0,0.0,0.0,0.0,0.0,0.0,0.0,0.0,0.0,0.0,0.0,0.0,0.0,0.0,0.0,0.0,0.0,0.0,0.0,0.0,0.0,0.0,0.0,0.0,0.0,0.0,0.0,0.0,0.0,0.0,0.0,0.0,0.0,0.0,0.0,0.0,0.0,0.0,0.0,0.0,0.0,0.0,0.0,0.0,0.0,0.0,0.0,0.0,0.0,0.0,0.0,0.0,0.0,0.0,0.0,0.0,0.0,0.0,0.0,0.0,0.0,0.0,0.0,0.0,0.0,0.0,0.0,0.0,0.0,0.0,0.0,0.0,0.0,0.0,0.0,0.0,0.0,0.0,0.0,0.0,0.0,0.0,0.0,0.0,0.0,0.0,0.0,0.0,0.0,0.0,0.0,0.0,0.0,0.0,0.0,0.0,0.0,0.0,0.0,0.0,0.0,0.0,0.0,0.0,0.0,0.0,0.0,0.0,0.0,0.0,0.0,0.0,0.0,0.0,0.0,0.0,0.0,0.0,0.0,0.0,0.0,0.0,0.0,0.0,0.0,0.0,0.0,0.0,0.0,0.0,0.0,0.0,0.0,0.0,0.0,0.0,0.0,0.0,0.0,0.0,0.0,0.0,0.0,0.0,0.0,0.0,0.0,0.0,0.0,0.0,0.0,0.0,0.0,0.0,0.0,0.0,0.0,0.0,0.0,0.0,0.0,0.0,0.0,0.0,0.0,0.0,0.0,0.0,0.0,0.0,0.0,0.0,0.0,0.0,0.0,0.0,0.0,0.0,0.0,0.0,0.0,0.0,0.0,0.0,0.0,0.0,0.0,0.0,0.0,0.0,0.0,0.0,0.0,0.0,0.0,0.0,0.0,0.0,0.0,0.0,0.0,0.0,0.0,0.0,0.0,0.0,0.0,0.0,0.0,0.0,0.0,0.0,0.0,0.0,0.0,0.0,0.0,0.0,0.0,0.0,0.0,0.0,0.0,0.0,0.0,0.0,0.0,0.0,0.0,0.0,0.0,0.0,0.0,0.0,0.0,0.0,0.0,0.0,0.0,0.0,0.0,0.0,0.0,0.0,0.0,0.0,0.0,0.0,0.0,0.0,0.0,0.0,0.0,0.0,0.0,0.2667,0.0,0.0,0.0,0.0,0.0,0.0,0.0,0.0,0.0,0.0,0.0,0.0,0.0,0.0,0.0,0.0,0.0,0.0,0.0,0.0,0.0,0.0,0.0,0.0,0.0,0.0,0.0,0.0,0.0,0.0,0.0,0.0,0.0,0.0,0.0,0.0,0.0,0.0,0.0,0.0,0.0,0.0,0.0,0.0,0.0,0.0,0.0,0.0,0.0,0.0,0.0,0.0,0.0,0.0,0.0,0.0,0.0,0.0,0.0,0.0,0.0,0.0,0.0,0.0,0.0,0.0,0.0,0.0,0.0,0.0,0.0,0.0,0.0,0.0,0.0,0.0,0.0,0.0,0.0,0.0,0.0,0.0,0.0,0.0,0.0,0.0,0.0,0.0,0.0,0.0,0.0,0.0,0.0,0.0,0.0,0.0,0.0,0.0,0.0,0.0,0.0,0.0,0.0,0.0,0.0,0.0,0.0,0.0,0.0,0.0,0.2934,0.2907,0.2839,0.28,0.2754,0.0,0.0,0.0,0.0,0.0,0.0,0.0,0.0,0.0,0.0,0.0,0.0,0.0,0.0,0.0,0.0,0.0,0.0,0.0,0.0,0.0,0.0,0.0,0.0,0.0,0.0,0.0,0.0,0.0,0.0,0.0,0.0,0.0,0.0,0.0,0.0,0.0,0.0,0.0,0.0,0.0,0.0,0.0,0.0,0.0,0.0,0.0,0.0,0.0,0.0,0.0,0.0,0.0,0.0,0.0,0.0,0.0,0.0,0.0,0.0,0.0,0.0,0.0,0.0,0.0,0.0,0.0,0.0,0.0,0.0,0.0,0.0,0.0,0.0,0.0,0.0,0.0,0.0,0.0,0.0,0.0,0.0,0.0,0.0,0.0,0.0,0.0,0.0,0.0,0.0,0.0,0.0,0.0,0.0,0.0,0.0,0.0,0.0,0.0,0.0,0.0,0.0,0.0,0.0,0.0,0.0,0.0,0.0,0.0,0.0,0.0,0.0,0.2953,0.2897,0.2851,0.0,0.0,0.0,0.0,0.0,0.0,0.0,0.0,0.0,0.0,0.0,0.0,0.0,0.0,0.0,0.0,0.0,0.0,0.0,0.0,0.0,0.0,0.0,0.0,0.0,0.0,0.0,0.0,0.0,0.0,0.0,0.0,0.0,0.0,0.0,0.0,0.0,0.0,0.0,0.0,0.0,0.0,0.0,0.0,0.0,0.0,0.0,0.0,0.0,0.0,0.0,0.0,0.0,0.0,0.0,0.0,0.0,0.0,0.0,0.0,0.0,0.0,0.0,0.0,0.0,0.0,0.0,0.0,0.0,0.0,0.0,0.0,0.0,0.0,0.0,0.0,0.0,0.0,0.0,0.0,0.0,0.0,0.0,0.0,0.0,0.0,0.0,0.0,0.0,0.0,0.0,0.0,0.0,0.0,0.0,0.0,0.0,0.0,0.0,0.0,0.0,0.0,0.0,0.0,0.0,0.0,0.0,0.0,0.0,0.0,0.3039,0.292,0.2904,0.0,0.305,0.0,0.0,0.0,0.0,0.0,0.0,0.0,0.0,0.0,0.0,0.0,0.0,0.0,0.0,0.0,0.0,0.0,0.0,0.0,0.0,0.0,0.0,0.0,0.0,0.0,0.0,0.0,0.0,0.0,0.0,0.0,0.0,0.0,0.0,0.0,0.0,0.0,0.0,0.0,0.0,0.0,0.0,0.0,0.0,0.0,0.0,0.0,0.0,0.0,0.0,0.0,0.0,0.0,0.0,0.0,0.0,0.0,0.0,0.0,0.0,0.0,0.0,0.0,0.0,0.0,0.0,0.0,0.0,0.0,0.0,0.0,0.0,0.0,0.0,0.0,0.0,0.0,0.0,0.0,0.0,0.0,0.0,0.0,0.0,0.0,0.0,0.0,0.0,0.0,0.0,0.0,0.0,0.0,0.0,0.0,0.0,0.0,0.0,0.0,0.0,0.0,0.0,0.0,0.0,0.0,0.0,0.0,0.0,0.0,0.0,0.0,0.2957,0.2957,0.2952,0.0,0.0,0.0,0.0,0.0,0.0,0.0,0.0,0.0,0.0,0.0,0.0,0.0,0.0,0.0,0.0,0.0,0.0,0.0,0.0,0.0,0.0,0.0,0.0,0.0,0.0,0.0,0.0,0.0,0.0,0.0,0.0,0.0,0.0,0.0,0.0,0.0,0.0,0.0,0.0,0.0,0.0,0.0,0.0,0.0,0.0,0.0,0.0,0.0,0.0,0.0,0.0,0.0,0.0,0.0,0.0,0.0,0.0,0.0,0.0,0.0,0.0,0.0,0.0,0.0,0.0,0.0,0.0,0.0,0.0,0.0,0.0,0.0,0.0,0.0,0.0,0.0,0.0,0.0,0.0,0.0,0.0,0.0,0.0,0.0,0.0,0.0,0.0,0.0,0.0,0.0,0.0,0.0,0.0,0.0,0.0,0.0,0.0,0.0,0.0,0.0,0.0,0.0,0.0,0.0,0.0,0.0,0.0,0.0,0.0,0.2875,0.0,0.2907,0.2896,0.2846,0.2769,0.0,0.0,0.0,0.0,0.0,0.0,0.0,0.0,0.0,0.0,0.0,0.0,0.0,0.0,0.0,0.0,0.0,0.0,0.0,0.0,0.0,0.0,0.0,0.0,0.0,0.0,0.0,0.0,0.0,0.0,0.0,0.0,0.0,0.0,0.0,0.0,0.0,0.0,0.0,0.0,0.0,0.0,0.0,0.0,0.0,0.0,0.0,0.0,0.0,0.0,0.0,0.0,0.0,0.0,0.0,0.0,0.0,0.0,0.0,0.0,0.0,0.0,0.0,0.0,0.0,0.0,0.0,0.0,0.0,0.0,0.0,0.0,0.0,0.0,0.0,0.0,0.0,0.0,0.0,0.0,0.0,0.0,0.0,0.0,0.0,0.0,0.0,0.0,0.0,0.0,0.0,0.0,0.0,0.0,0.0,0.0,0.0,0.0,0.0,0.0,0.0,0.0,0.0,0.0,0.0,0.0,0.0,0.0,0.0,0.2825,0.281,0.2609,0.263,0.2639,0.0,0.0,0.0,0.0,0.0,0.0,0.0,0.0,0.0,0.0,0.0,0.0,0.0,0.0,0.0,0.0,0.0,0.0,0.0,0.0,0.0,0.0,0.0,0.0,0.0,0.0,0.0,0.0,0.0,0.0,0.0,0.0,0.0,0.0,0.0,0.0,0.0,0.0,0.0,0.0,0.0,0.0,0.0,0.0,0.0,0.0,0.0,0.0,0.0,0.0,0.0,0.0,0.0,0.0,0.0,0.0,0.0,0.0,0.0,0.0,0.0,0.0,0.0,0.0,0.0,0.0,0.0,0.0,0.0,0.0,0.0,0.0,0.0,0.0,0.0,0.0,0.0,0.0,0.0,0.0,0.0,0.0,0.0,0.0,0.0,0.0,0.0,0.0,0.0,0.0,0.0,0.0,0.0,0.0,0.0,0.0,0.0,0.0,0.0,0.0,0.0,0.0,0.0,0.0,0.0,0.0,0.0,0.0,0.0,0.2586,0.2664,0.257,0.0,0.2488,0.2546,0.0,0.0,0.0,0.0,0.0,0.0,0.0,0.0,0.0,0.0,0.0,0.0,0.0,0.0,0.0,0.0,0.0,0.0,0.0,0.0,0.0,0.0,0.0,0.0,0.0,0.0,0.0,0.0,0.0,0.0,0.0,0.0,0.0,0.0,0.0,0.0,0.0,0.0,0.0,0.0,0.0,0.0,0.0,0.0,0.0,0.0,0.0,0.0,0.0,0.0,0.0,0.0,0.0,0.0,0.0,0.0,0.0,0.0,0.0,0.0,0.0,0.0,0.0,0.0,0.0,0.0,0.0,0.0,0.0,0.0,0.0,0.0,0.0,0.0,0.0,0.0,0.0,0.0,0.0,0.0,0.0,0.0,0.0,0.0,0.0,0.0,0.0,0.0,0.0,0.0,0.0,0.0,0.0,0.0,0.0,0.0,0.0,0.0,0.0,0.0,0.0,0.0,0.0,0.0,0.0,0.0,0.0,0.0,0.0,0.2387,0.0,0.2295,0.0,0.2269,0.2336,0.0,0.0,0.0,0.0,0.0,0.0,0.0,0.0,0.0,0.0,0.0,0.0,0.0,0.0,0.0,0.0,0.0,0.0,0.0,0.0,0.0,0.0,0.0,0.0,0.0,0.0,0.0,0.0,0.0,0.0,0.0,0.0,0.0,0.0,0.0,0.0,0.0,0.0,0.0,0.0,0.0,0.0,0.0,0.0,0.0,0.0,0.0,0.0,0.0,0.0,0.0,0.0,0.0,0.0,0.0,0.0,0.0,0.0,0.0,0.0,0.0,0.0,0.0,0.0,0.0,0.0,0.0,0.0,0.0,0.0,0.0,0.0,0.0,0.0,0.0,0.0,0.0,0.0,0.0,0.0,0.0,0.0,0.0,0.0,0.0,0.0,0.0,0.0,0.0,0.0,0.0,0.0,0.0,0.0,0.0,0.0,0.0,0.0,0.0,0.0,0.0,0.0,0.0,0.0,0.0,0.0,0.0,0.0,0.2214,0.2103,0.2039,0.196,0.188,0.1958,0.2004,0.0,0.0,0.0,0.0,0.0,0.0,0.0,0.0,0.0,0.0,0.0,0.0,0.0,0.0,0.0,0.0,0.0,0.0,0.0,0.0,0.0,0.0,0.0,0.0,0.0,0.0,0.0,0.0,0.0,0.0,0.0,0.0,0.0,0.0,0.0,0.0,0.0,0.0,0.0,0.0,0.0,0.0,0.0,0.0,0.0,0.0,0.0,0.0,0.0,0.0,0.0,0.0,0.0,0.0,0.0,0.0,0.0,0.0,0.0,0.0,0.0,0.0,0.0,0.0,0.0,0.0,0.0,0.0,0.0,0.0,0.0,0.0,0.0,0.0,0.0,0.0,0.0,0.0,0.0,0.0,0.0,0.0,0.0,0.0,0.0,0.0,0.0,0.0,0.0,0.0,0.0,0.0,0.0,0.0,0.0,0.0,0.0,0.0,0.0,0.0,0.0,0.0,0.0,0.0,0.0,0.0,0.0,0.0,0.0,0.1619,0.161,0.154,0.1417,0.1568,0.1653,0.0,0.0,0.0,0.0,0.0,0.0,0.0,0.0,0.0,0.0,0.0,0.0,0.0,0.0,0.0,0.0,0.0,0.0,0.0,0.0,0.0,0.0,0.0,0.0,0.0,0.0,0.0,0.0,0.0,0.0,0.0,0.0,0.0,0.0,0.0,0.0,0.0,0.0,0.0,0.0,0.0,0.0,0.0,0.0,0.0,0.0,0.0,0.0,0.0,0.0,0.0,0.0,0.0,0.0,0.0,0.0,0.0,0.0,0.0,0.0,0.0,0.0,0.0,0.0,0.0,0.0,0.0,0.0,0.0,0.0,0.0,0.0,0.0,0.0,0.0,0.0,0.0,0.0,0.0,0.0,0.0,0.0,0.0,0.0,0.0,0.0,0.0,0.0,0.0,0.0,0.0,0.0,0.0,0.0,0.0,0.0,0.0,0.0,0.0,0.0,0.0,0.0,0.0,0.0,0.0,0.0,0.0,0.0,0.0,0.0924,0.104,0.1037,0.0888,0.1108,0.1288,0.1383,0.0,0.0,0.0,0.0,0.0,0.0,0.0,0.0,0.0,0.0,0.0,0.0,0.0,0.0,0.0,0.0,0.0,0.0,0.0,0.0,0.0,0.0,0.0,0.0,0.0,0.0,0.0,0.0,0.0,0.0,0.0,0.0,0.0,0.0,0.0,0.0,0.0,0.0,0.0,0.0,0.0,0.0,0.0,0.0,0.0,0.0,0.0,0.0,0.0,0.0,0.0,0.0,0.0,0.0,0.0,0.0,0.0,0.0,0.0,0.0,0.0,0.0,0.0,0.0,0.0,0.0,0.0,0.0,0.0,0.0,0.0,0.0,0.0,0.0,0.0,0.0,0.0,0.0,0.0,0.0,0.0,0.0,0.0,0.0,0.0,0.0,0.0,0.0,0.0,0.0,0.0,0.0,0.0,0.0,0.0,0.0,0.0,0.0,0.0,0.0,0.0,0.0,0.0,0.0,0.0,0.0,0.0,0.0,0.0085,0.036,0.0466,0.038,0.0634,0.0911,0.0,0.0,0.0,0.0,0.0,0.0,0.0,0.0,0.0,0.0,0.0,0.0,0.0,0.0,0.0,0.0,0.0,0.0,0.0,0.0,0.0,0.0,0.0,0.0,0.0,0.0,0.0,0.0,0.0,0.0,0.0,0.0,0.0,0.0,0.0,0.0,0.0,0.0,0.0,0.0,0.0,0.0,0.0,0.0,0.0,0.0,0.0,0.0,0.0,0.0,0.0,0.0,0.0,0.0,0.0,0.0,0.0,0.0,0.0,0.0,0.0,0.0,0.0,0.0,0.0,0.0,0.0,0.0,0.0,0.0,0.0,0.0,0.0,0.0,0.0,0.0,0.0,0.0,0.0,0.0,0.0,0.0,0.0,0.0,0.0,0.0,0.0,0.0,0.0,0.0,0.0,0.0,0.0,0.0,0.0,0.0,0.0,0.0,0.0,0.0,0.0,0.0,0.0,0.0,0.0,0.0,0.0,0.0,0.0,-0.0414,-0.0531,-0.041,-0.0044,0.0309,0.0615,0.0,0.0,0.0,0.0,0.0,0.0,0.0,0.0,0.0,0.0,0.0,0.0,0.0,0.0,0.0,0.0,0.0,0.0,0.0,0.0,0.0,0.0,0.0,0.0,0.0,0.0,0.0,0.0,0.0,0.0,0.0,0.0,0.0,0.0,0.0,0.0,0.0,0.0,0.0,0.0,0.0,0.0,0.0,0.0,0.0,0.0,0.0,0.0,0.0,0.0,0.0,0.0,0.0,0.0,0.0,0.0,0.0,0.0,0.0,0.0,0.0,0.0,0.0,0.0,0.0,0.0,0.0,0.0,0.0,0.0,0.0,0.0,0.0,0.0,0.0,0.0,0.0,0.0,0.0,0.0,0.0,0.0,0.0,0.0,0.0,0.0,0.0,0.0,0.0,0.0,0.0,0.0,0.0,0.0,0.0,0.0,0.0,0.0,0.0,0.0,0.0,0.0,0.0,0.0,0.0,0.0,0.0,0.0,-0.0514,-0.0855,-0.1032,-0.0958,-0.0638,-0.0139,0.0285,0.0,0.0,0.0,0.0,0.0,0.0,0.0,0.0,0.0,0.0,0.0,0.0,0.0,0.0,0.0,0.0,0.0,0.0,0.0,0.0,0.0,0.0,0.0,0.0,0.0,0.0,0.0,0.0,0.0,0.0,0.0,0.0,0.0,0.0,0.0,0.0,0.0,0.0,0.0,0.0,0.0,0.0,0.0,0.0,0.0,0.0,0.0,0.0,0.0,0.0,0.0,0.0,0.0,0.0,0.0,0.0,0.0,0.0,0.0,0.0,0.0,0.0,0.0,0.0,0.0,0.0,0.0,0.0,0.0,0.0,0.0,0.0,0.0,0.0,0.0,0.0,0.0,0.0,0.0,0.0,0.0,0.0,0.0,0.0,0.0,0.0,0.0,0.0,0.0,0.0,0.0,0.0,0.0,0.0,0.0,0.0,0.0,0.0,0.0,0.0,0.0,0.0,0.0,0.0,0.0,0.0,0.0,0.0,-0.0899,-0.1222,-0.1311,-0.1312,-0.1193,-0.0611,-0.0023,0.0,0.0,0.0,0.0,0.0,0.0,0.0,0.0,0.0,0.0,0.0,0.0,0.0,0.0,0.0,0.0,0.0,0.0,0.0,0.0,0.0,0.0,0.0,0.0,0.0,0.0,0.0,0.0,0.0,0.0,0.0,0.0,0.0,0.0,0.0,0.0,0.0,0.0,0.0,0.0,0.0,0.0,0.0,0.0,0.0,0.0,0.0,0.0,0.0,0.0,0.0,0.0,0.0,0.0,0.0,0.0,0.0,0.0,0.0,0.0,0.0,0.0,0.0,0.0,0.0,0.0,0.0,0.0,0.0,0.0,0.0,0.0,0.0,0.0,0.0,0.0,0.0,0.0,0.0,0.0,0.0,0.0,0.0,0.0,0.0,0.0,0.0,0.0,0.0,0.0,0.0,0.0,0.0,0.0,0.0,0.0,0.0,0.0,0.0,0.0,0.0,0.0,0.0,0.0,0.0,0.0,0.0,0.0,-0.1175,-0.1345,-0.1511,-0.1513,-0.1291,-0.0635,-0.0072,0.0,0.0,0.0,0.0,0.0,0.0,0.0,0.0,0.0,0.0,0.0,0.0,0.0,0.0,0.0,0.0,0.0,0.0,0.0,0.0,0.0,0.0,0.0,0.0,0.0,0.0,0.0,0.0,0.0,0.0,0.0,0.0,0.0,0.0,0.0,0.0,0.0,0.0,0.0,0.0,0.0,0.0,0.0,0.0,0.0,0.0,0.0,0.0,1.0527,0.0,0.0,0.0,0.0,0.0,0.0,0.0,0.0,0.0,0.0,0.0,0.0,0.0,0.0,0.0,0.0,0.0,0.0,0.0,0.0,0.0,0.0,0.0,0.0,0.0,0.0,0.0,0.0,0.0,0.0,0.0,0.0,0.0,0.0,0.0,0.0,0.0,0.0,0.0,0.0,0.0,0.0,0.0,0.0,0.0,0.0,0.0,0.0,0.0,0.0,0.0,0.0,0.0,0.0,0.0,0.0,0.0,0.0,0.0,-0.1484,-0.1591,-0.1755,-0.1679,-0.1305,-0.0771,-0.0219,0.0,0.0,0.0,0.0,0.0,0.0,0.0,0.0,0.0,0.0,0.0,0.0,0.0,0.0,0.0,0.0,0.0,0.0,0.0,0.0,0.0,0.0,0.0,0.0,0.0,0.0,0.0,0.0,0.0,0.0,0.0,0.0,0.0,0.0,0.0,0.0,0.0,0.0,0.0,0.0,0.0,0.0,0.0,0.0,0.0,0.0,0.0,0.0,0.0,0.0,0.0,0.0,0.0,0.0,0.0,0.0,0.0,0.0,0.0,0.0,0.0,0.0,0.0,0.0,0.0,0.0,0.0,0.0,0.0,0.0,0.0,0.0,0.0,0.0,0.0,0.0,0.0,0.0,0.0,0.0,0.0,0.0,0.0,0.0,0.0,0.0,0.0,0.0,0.0,0.0,0.0,0.0,0.0,0.0,0.0,0.0,0.0,0.0,0.0,0.0,0.0,0.0,0.0,0.0,0.0,0.0,0.0,-0.1569,-0.1767,-0.1797,-0.1948,-0.179,-0.1306,-0.0926,-0.039,0.0317,0.0,0.0,0.0,0.0,0.0,0.0,0.0,0.0,0.0,0.0,0.0,0.0,0.0,0.0,0.0,0.0,0.0,0.0,0.0,0.0,0.0,0.0,0.0,0.0,0.0,0.0,0.0,0.0,0.0,0.0,0.0,0.0,0.0,0.0,0.0,0.0,0.0,0.0,0.8154,0.9503,0.0,0.0,0.0,0.0,0.0,0.0,0.0,0.0,1.0928,0.0,0.0,0.0,0.0,0.0,0.0,0.0,0.0,0.0,0.0,0.0,0.0,0.0,0.0,0.0,0.0,0.0,0.0,0.0,0.0,0.0,0.0,0.0,0.0,0.0,0.0,0.0,0.0,0.0,0.0,0.0,0.0,0.0,0.0,0.0,0.0,0.0,0.0,0.0,0.0,0.0,0.0,0.0,0.0,0.0,0.0,0.0,0.0,0.0,0.0,0.0,0.0,0.0,0.0,0.0,0.0,-0.1371,-0.1756,-0.1895,-0.1795,-0.1919,-0.179,-0.1306,-0.1003,-0.0543,0.0141,0.0,0.0,0.0,0.0,0.0,0.0,0.0,0.0,0.0,0.0,0.0,0.0,0.0,0.0,0.0,0.0,0.0,0.0,0.0,0.0,0.0,0.0,0.0,0.0,0.0,0.0,0.0,0.0,0.0,0.0,0.0,0.0,0.0,0.0,0.0,0.0,0.0,0.0,0.0,1.0745,1.1643,0.0,0.0,0.0,0.0,0.0,0.0,0.0,0.0,1.1699,0.0,0.0,0.0,0.0,0.0,0.0,0.0,0.0,0.0,0.0,0.0,0.0,0.0,0.0,0.0,0.0,0.0,0.0,0.0,0.0,0.0,0.0,0.0,0.0,0.0,0.0,0.0,0.0,0.0,0.0,0.0,0.0,0.0,0.0,0.0,0.0,0.0,0.0,0.0,0.0,0.0,0.0,0.0,0.0,0.0,0.0,0.0,0.0,0.0,0.0,0.0,0.0,0.0,0.0,0.0,-0.1773,-0.2117,-0.2243,-0.2123,-0.2216,-0.2022,-0.1532,-0.1196,-0.0681,0.0,0.0,0.0,0.0,0.0,0.0,0.0,0.0,0.0,0.0,0.0,0.0,0.0,0.0,0.0,0.0,0.0,0.0,0.0,0.0,0.0,0.0,0.0,0.0,0.0,0.0,0.0,0.0,0.0,0.0,0.0,0.0,0.0,0.0,0.0,0.0,0.0,0.0,0.0,0.0,1.1092,1.1832,1.2598,0.0,0.0,0.0,0.0,0.0,0.0,1.2185,1.208,0.0,0.0,0.0,0.0,0.0,0.0,0.0,0.0,0.0,0.0,0.0,0.0,0.0,0.0,0.0,0.0,0.0,0.0,0.0,0.0,0.0,0.0,0.0,0.0,0.0,0.0,0.0,0.0,0.0,0.0,0.0,0.0,0.0,0.0,0.0,0.0,0.0,0.0,0.0,0.0,0.0,0.0,0.0,0.0,0.0,0.0,0.0,0.0,0.0,0.0,0.0,0.0,0.0,0.0,0.0,-0.2227,-0.2539,-0.2627,-0.2526,-0.2524,-0.2279,-0.1748,-0.1363,-0.0813,0.0,0.0,0.0,0.0,0.0,0.0,0.0,0.0,0.0,0.0,0.0,0.0,0.0,0.0,0.0,0.0,0.0,0.0,0.0,0.0,0.0,0.0,0.0,0.0,0.0,0.0,0.0,0.0,0.0,0.0,0.0,0.0,0.0,0.0,0.0,0.0,0.0,0.0,0.0,0.0,0.0,1.2017,1.2808,1.2891,0.0,0.0,0.0,0.0,1.2618,1.2404,0.0,0.0,0.0,0.0,0.0,0.0,0.0,0.0,0.0,0.0,0.0,0.0,0.0,0.0,0.0,0.0,0.0,0.0,0.0,0.0,0.0,0.0,0.0,0.0,0.0,0.0,0.0,0.0,0.0,0.0,0.0,0.0,0.0,0.0,0.0,0.0,0.0,0.0,0.0,0.0,0.0,0.0,0.0,0.0,0.0,0.0,0.0,0.0,0.0,0.0,0.0,0.0,0.0,0.0,0.0,0.0,-0.2621,-0.2849,-0.2935,-0.2928,-0.2745,-0.2416,-0.1874,-0.1489,-0.098,0.0,0.0,0.0,0.0,0.0,0.0,0.0,0.0,0.0,0.0,0.0,0.0,0.0,0.0,0.0,0.0,0.0,0.0,0.0,0.0,0.0,0.0,0.0,0.0,0.0,0.0,0.0,0.0,0.0,0.0,0.0,0.0,0.0,0.0,0.0,0.0,0.0,0.0,0.0,0.0,0.0,1.2796,1.2738,1.3077,1.3281,0.0,0.0,1.2899,1.2782,1.2474,0.0,0.0,0.0,0.0,0.0,0.0,0.0,0.0,0.0,0.0,0.0,0.0,0.0,0.0,0.0,0.0,0.0,0.0,0.0,0.0,0.0,0.0,0.0,0.0,0.0,0.0,0.0,0.0,0.0,0.0,0.0,0.0,0.0,0.0,0.0,0.0,0.0,0.0,0.0,0.0,0.0,0.0,0.0,0.0,0.0,0.0,0.0,0.0,0.0,0.0,0.0,0.0,0.0,0.0,0.0,-0.2769,-0.3151,-0.3355,-0.345,-0.3445,-0.3214,-0.2846,-0.2352,-0.1816,-0.1231,0.0,0.0,0.0,0.0,0.0,0.0,0.0,0.0,0.0,0.0,0.0,0.0,0.0,0.0,0.0,0.0,0.0,0.0,0.0,0.0,0.0,0.0,0.0,0.0,0.0,0.0,0.0,0.0,0.0,0.0,0.0,0.0,0.0,0.0,0.0,0.0,0.0,0.0,0.0,0.0,0.0,0.0,1.3348,1.3534,0.0,0.0,0.0,1.3552,1.3347,0.0,0.0,0.0,0.0,0.0,0.0,0.0,0.0,0.0,0.0,0.0,0.0,0.0,0.0,0.0,0.0,0.0,0.0,0.0,0.0,0.0,0.0,0.0,0.0,0.0,0.0,0.0,0.0,0.0,0.0,0.0,0.0,0.0,0.0,0.0,0.0,0.0,0.0,0.0,0.0,0.0,0.0,0.0,0.0,0.0,0.0,0.0,0.0,0.0,0.0,0.0,0.0,0.0,0.0,0.0,0.0,0.0,-0.3676,-0.3811,-0.3929,-0.4025,-0.3726,-0.3329,-0.2805,-0.2193,0.0,0.0,0.0,0.0,0.0,0.0,0.0,0.0,0.0,0.0,0.0,0.0,0.0,0.0,0.0,0.0,0.0,0.0,0.0,0.0,0.0,0.0,0.0,0.0,0.0,0.0,0.0,0.434,0.0,0.0,0.0,0.0,0.0,0.0,0.0,0.0,0.0,0.0,0.0,0.0,0.0,0.0,1.2968,1.3826,1.3983,1.4115,0.0,0.0,1.4103,1.3869,1.3347,1.2902,0.0,0.0,0.0,0.0,0.0,0.0,0.0,0.0,0.0,0.0,0.0,0.0,0.0,0.0,0.0,0.0,0.0,0.0,0.0,0.0,0.0,0.0,0.0,0.0,0.0,0.0,0.0,0.0,0.0,0.0,0.0,0.0,0.0,0.0,0.0,0.0,0.0,0.0,0.0,0.0,0.0,0.0,0.0,0.0,0.0,0.0,0.0,0.0,0.0,0.0,0.0,0.0,0.0,0.0,0.0,-0.4143,-0.4165,-0.4316,-0.4601,-0.4184,-0.3675,-0.3101,-0.2543,-0.1881,0.0,0.0,0.0,0.0,0.0,0.0,0.0,0.0,0.0,0.0,0.0,0.0,0.0,0.0,0.0,0.0,0.0,0.0,0.0,0.0,0.0,0.0,0.0,0.0,0.0,0.0,0.0,0.0,0.0,0.0,0.0,0.0,0.0,0.0,0.0,0.0,0.0,0.0,0.0,0.0,0.0,1.3232,1.374,1.4249,1.4513,0.0,0.0,1.4188,1.4179,1.3767,1.3454,1.3499,0.0,0.0,0.0,0.0,0.0,0.0,0.0,0.0,0.0,0.0,0.0,0.0,0.0,0.0,0.0,0.0,0.0,0.0,0.0,0.0,0.0,0.0,0.0,0.0,0.0,0.0,0.0,0.0,0.0,0.0,0.0,0.0,0.0,0.0,0.0,0.0,0.0,0.0,0.0,0.0,0.0,0.0,0.0,0.0,0.0,0.0,0.0,0.0,0.0,0.0,0.0,0.0,0.0,-0.3967,-0.4669,-0.4692,-0.4811,-0.5062,-0.4708,-0.4207,-0.3496,-0.2938,-0.2287,0.0,0.0,0.0,0.0,0.0,0.0,0.0,0.0,0.0,0.0,0.0,0.0,0.0,0.0,0.0,0.0,0.0,0.0,0.0,0.0,0.0,0.0,0.0,0.0,0.0,0.0,0.0,0.0,0.5008,0.5351,0.6098,0.0,0.0,0.0,0.0,0.0,0.0,0.0,0.0,0.0,0.0,1.3334,1.3966,1.4241,0.0,0.0,1.435,1.4326,1.4326,1.3945,1.3641,1.3652,1.3452,0.0,0.0,0.0,0.0,0.0,0.0,0.0,0.0,0.0,0.0,0.0,0.0,0.0,0.0,0.0,0.0,0.0,0.0,0.0,0.0,0.0,0.0,0.0,0.0,0.0,0.0,0.0,0.0,0.0,0.0,0.0,0.0,0.0,0.0,0.0,0.0,0.0,0.0,0.0,0.0,0.0,0.0,0.0,0.0,0.0,0.0,0.0,0.0,0.0,0.0,0.0,0.0,-0.4342,-0.5054,-0.5063,-0.517,-0.5458,-0.5179,-0.469,-0.3964,-0.338,-0.2694,0.0,0.0,0.0,0.0,0.0,0.0,0.0,0.0,0.0,0.0,0.0,0.0,0.0,0.0,0.0,0.0,0.0,0.0,0.0,0.0,0.0,0.0,0.0,0.0,0.0,0.0,0.0,0.0,0.5272,0.5524,0.5932,0.0,0.0,0.0,0.0,0.0,0.0,0.0,0.0,0.0,0.0,1.3269,1.4116,1.4272,1.4408,1.4655,1.469,1.466,1.4566,1.4272,1.4022,1.3914,0.0,0.0,0.0,0.0,0.0,0.0,0.0,0.0,0.0,0.0,0.0,0.0,0.0,0.0,0.0,0.0,0.0,0.0,0.0,0.0,0.0,0.0,0.0,0.0,0.0,0.0,0.0,0.0,0.0,0.0,-0.4662,0.0,0.0,0.0,0.0,0.0,0.0,0.0,0.0,0.0,0.0,0.0,0.0,0.0,0.0,0.0,0.0,0.0,0.0,0.0,0.0,0.0,0.0,-0.4648,-0.5182,-0.5224,-0.5408,-0.5755,-0.5462,-0.5046,-0.4498,-0.3834,-0.3129,-0.2388,0.0,0.0,0.0,0.0,0.0,0.0,0.0,0.0,0.0,0.0,0.0,0.0,0.0,0.0,0.0,0.0,0.0,0.0,0.0,0.0,0.0,0.0,0.0,0.0,0.0,0.0,0.5161,0.5665,0.5891,0.0,0.0,0.0,0.0,0.0,0.0,0.0,0.0,0.0,0.0,1.2181,1.3003,1.4124,1.4418,1.4664,1.5256,1.5335,1.5277,1.4927,1.4876,1.4752,0.0,0.0,0.0,0.0,0.0,0.0,0.0,0.0,0.0,0.0,0.0,0.0,0.0,0.0,0.0,0.0,0.0,0.0,0.0,0.0,0.0,0.0,0.0,0.0,0.0,0.0,0.0,-0.6558,-0.6249,0.0,0.0,0.0,0.0,0.0,0.0,0.0,0.0,0.0,0.0,0.0,-0.7353,-0.7377,0.0,0.0,0.0,0.0,0.0,0.0,0.0,0.0,0.0,0.0,0.0,0.0,-0.5184,-0.5712,-0.5841,-0.597,-0.6055,-0.5873,-0.5447,-0.4793,-0.4195,-0.3327,-0.2113,0.0,0.0,0.0,0.0,0.0,0.0,0.0,0.0,0.0,0.0,0.0,0.0,0.0,0.0,0.0,0.0,0.0,0.0,0.0,0.0,0.0,0.0,0.0,0.0,0.0,0.491,0.0,0.0,0.0,0.0,0.0,0.0,0.0,0.0,0.0,0.0,0.0,1.0713,1.1366,1.194,1.2623,1.356,1.3867,1.4206,0.0,0.0,0.0,0.0,0.0,0.0,0.0,0.0,0.0,0.0,0.0,0.0,0.0,0.0,1.5911,1.5405,1.5108,1.4942,1.498,0.0,0.0,0.0,0.0,0.0,0.0,0.0,0.0,0.0,0.0,0.0,0.0,0.0,0.0,-0.8526,0.0,-0.7915,0.0,0.0,0.0,0.0,0.0,0.0,0.0,0.0,-0.8643,-0.8676,-0.8686,-0.8546,-0.8352,0.0,-0.7814,-0.703,0.0,0.0,0.0,0.0,0.0,0.0,0.0,0.0,-0.5818,-0.6344,-0.6431,-0.643,-0.6376,-0.6168,-0.5779,-0.5169,-0.4375,-0.336,-0.2065,-0.1449,-0.0898,0.0,0.0,0.0,0.0,0.0,0.0,0.0,0.0,0.0,0.0,0.0,0.0,0.0,0.0,0.0,0.0,0.0,0.0,0.0,0.0,0.0,0.0,0.0,0.4957,0.0,0.0,0.0,0.0,0.0,0.0,0.0,0.0,0.0,0.9225,0.9807,1.035,1.0874,1.1561,1.2271,1.3036,0.0,0.0,0.0,0.0,0.0,0.0,0.0,1.5337,1.529,1.544,1.5646,1.5826,1.6336,1.6731,1.6669,0.0,0.0,1.5962,1.5603,1.5454,1.5502,1.5694,1.5901,1.5987,1.6235,1.6437,0.0,0.0,0.0,0.0,0.0,0.0,0.0,0.0,-1.081,-1.0673,0.0,-0.9978,0.0,0.0,0.0,0.0,0.0,-0.9699,0.0,0.0,-0.9978,-1.0012,-1.0233,-0.9895,-0.9559,-0.9247,-0.8773,-0.836,-0.8017,-0.6753,0.0,0.0,0.0,0.0,0.0,0.0,-0.6576,-0.6988,-0.6905,-0.6812,-0.6723,-0.6386,-0.6005,-0.5569,-0.4371,-0.3286,-0.2375,-0.1869,-0.1351,-0.0754,-0.0328,0.0,0.0,0.0,0.0,0.0,0.0,0.0,0.0,0.0,0.0,0.0,0.0,0.0,0.0,0.0,0.0,0.0,0.0,0.0,0.0,0.4589,0.0,0.0,0.0,0.0,0.0,0.0,0.0,0.0,0.0,0.0,0.8652,0.9385,0.9946,1.0084,0.0,0.0,0.0,0.0,1.403,1.472,1.5021,1.5177,1.5191,1.5177,1.5174,1.5137,0.0,0.0,1.5935,1.6379,1.6692,1.6819,1.7154,1.7206,1.6556,1.6445,1.6476,1.6529,1.7014,1.7457,1.7555,1.7877,1.8364,-1.5964,0.0,0.0,0.0,0.0,-1.3629,-1.3659,-1.3948,-1.3023,-1.246,-1.2213,-1.1944,0.0,0.0,0.0,0.0,0.0,0.0,-1.1781,-1.2061,-1.1928,-1.1864,-1.1822,-1.163,-1.1372,-1.1042,-1.0724,-1.0306,-0.981,-0.8836,-0.7908,-0.7096,0.0,0.0,0.0,0.0,-0.7437,-0.7564,-0.757,-0.7435,-0.7128,-0.6761,-0.6147,-0.5267,-0.4423,-0.3689,-0.3035,-0.2234,-0.1599,-0.1151,-0.0644,0.0,0.0,0.0,0.0,0.0,0.0,0.0,0.0,0.0,0.0,0.0,0.0,0.0,0.0,0.0,0.0,0.0,0.0,0.0,0.4354,0.4536,0.4813,0.0,0.0,0.0,0.0,0.0,0.0,0.0,0.0,0.0,0.8491,0.9137,0.9717,0.0,0.0,1.1479,1.2102,1.2684,1.3237,1.3811,0.0,0.0,0.0,1.5032,1.5281,1.5475,1.5876,1.6348,1.6852,1.7248,1.7444,1.7217,1.7445,1.7549,1.7231,1.7366,1.7528,1.7576,1.7829,1.7999,1.8012,1.8244,1.8463,-1.9287,-1.792,-1.6577,-1.6155,-1.6339,-1.6094,-1.6119,-1.6248,-1.5167,-1.4564,-1.4272,-1.365,-1.3181,-1.2902,-1.2784,0.0,0.0,0.0,-1.3083,-1.3232,-1.3123,-1.3013,-1.2931,-1.2655,-1.2434,-1.2239,-1.184,-1.1448,-1.115,-1.0253,-0.9451,-0.8644,0.0,0.0,-0.7871,-0.804,-0.8176,-0.8268,-0.8194,-0.7984,-0.7551,-0.6912,-0.6172,-0.5319,-0.4719,-0.4108,-0.3493,-0.2765,-0.2108,-0.1575,-0.1075,-0.0623,0.0,0.0,0.0,0.0,0.0,0.0,0.0,0.0,0.0,0.0,0.0,0.268,0.0,0.0,0.0,0.0,0.3716,0.3958,0.418,0.4326,0.0,0.0,0.0,0.0,0.0,0.0,0.0,0.7358,0.7696,0.8072,0.8481,0.9041,0.959,1.0029,1.0523,1.1004,1.1457,0.0,1.2614,1.297,1.3511,1.3962,1.4201,1.4499,1.4922,1.542,1.6009,1.6552,1.6948,1.7368,1.7588,1.7477,1.7653,1.7865,1.7716,1.805,1.8265,1.7993,1.8199,1.8445,1.8445,1.8705,1.8978,-2.1842,-2.1619,-1.9182,-1.8108,-1.8018,-1.8351,-1.8358,-1.8068,-1.7238,-1.6807,-1.6591,-1.5284,-1.4677,-1.4633,-1.4373,0.0,-1.4074,-1.4035,-1.4035,-1.3999,-1.3834,-1.3724,-1.3697,-1.3277,-1.3057,-1.3057,-1.2464,-1.2159,-1.2089,-1.1182,-1.0736,-1.069,-0.908,-0.8414,-0.8666,-0.8673,-0.8786,-0.9035,-0.8791,-0.8415,-0.7877,-0.6945,-0.6187,-0.5662,-0.5162,-0.4556,-0.3775,-0.3345,-0.2751,-0.1972,-0.1575,-0.1097,-0.0587,0.0,0.0,0.0,0.0,0.0,0.0,0.0,0.0,0.0,0.0,0.0,0.0,0.0,0.0,0.0,0.3455,0.0,0.385,0.3994,0.0,0.0,0.0,0.5528,0.6194,0.652,0.686,0.7249,0.0,0.0,0.8518,0.0,0.946,0.9737,1.0242,1.0625,1.0776,1.1523,1.2089,1.2243,1.2652,1.3072,1.3428,1.3821,1.433,1.5059,1.5642,1.6132,1.6495,1.6948,1.7295,1.7407,1.7799,1.8061,1.8073,1.8489,1.8712,1.8032,1.8425,1.8871,1.8909,1.9333,1.9749,-2.3806,-2.3573,-2.2559,-2.1488,-2.047,-1.9691,-1.9636,-1.9923,-1.8803,-1.8267,-1.8216,-1.7626,-1.7156,-1.6768,-1.6578,-1.6497,-1.6447,-1.6108,-1.5841,-1.5684,-1.5206,-1.4917,-1.4821,-1.4628,-1.4407,-1.4252,-1.3882,-1.3517,-1.3121,-1.2454,-1.1959,-1.1654,-1.0895,-1.0128,-0.939,-0.935,-0.9341,-0.9283,-0.9159,-0.862,-0.7771,-0.7112,-0.6497,-0.5932,-0.5334,-0.477,-0.4161,-0.3662,-0.3089,-0.2385,-0.1989,-0.1536,-0.1041,-0.0763,0.0,0.0,0.0,0.0,0.0,0.0,0.0,0.0,0.0,0.2236,0.2399,0.0,0.2698,0.0,0.303,0.3289,0.356,0.3762,0.0,0.0,0.4894,0.53,0.6081,0.6436,0.6812,0.7334,0.7733,0.8095,0.8416,0.8638,0.8976,0.9494,1.0145,1.0611,1.068,1.1128,1.1553,1.1747,1.2089,1.2459,1.292,1.3558,1.4189,1.4745,1.5245,1.5671,1.6028,1.6513,1.6976,1.7095,1.7412,1.7717,1.803,1.822,1.8394,1.8529,1.9009,1.943,1.9418,1.962,1.9837,-2.4698,-2.4511,-2.4149,-2.3489,-2.262,-2.1396,-2.1018,-2.115,-2.0182,-1.9644,-1.947,-1.8796,-1.8242,-1.7853,-1.7688,-1.7533,-1.7388,-1.7114,-1.691,-1.6737,-1.6407,-1.6147,-1.6016,-1.5854,-1.5567,-1.5175,-1.4874,-1.4513,-1.4003,-1.3339,-1.2889,-1.2637,-1.2018,-1.1324,-1.0601,-1.0289,-1.0061,-0.9841,-0.936,-0.8738,-0.8043,-0.7467,-0.6901,-0.6327,-0.5842,-0.53,-0.468,-0.427,-0.3687,-0.299,-0.2541,-0.2052,-0.1536,-0.1218,-0.0919,0.0,0.0,0.0,0.0,0.0,0.0,0.0,0.0,0.0,0.0,0.0,0.2451,0.0,0.2788,0.2949,0.3294,0.3465,0.3764,0.4238,0.4542,0.4946,0.5649,0.6115,0.6515,0.6963,0.7414,0.7817,0.8016,0.8342,0.8704,0.9128,0.9716,1.0199,1.0428,1.0776,1.109,1.1341,1.1661,1.2089,1.2621,1.3246,1.3821,1.424,1.4745,1.5206,1.5546,1.6046,1.6467,1.6694,1.7022,1.7357,1.7684,1.7975,1.822,1.8545,1.8987,1.933,1.9486,1.963,1.9734,-2.5287,-2.5081,-2.4888,-2.4681,-2.4378,-2.321,-2.2503,-2.2123,-2.1464,-2.093,-2.045,-1.9427,-1.8823,-1.8546,-1.833,-1.8082,-1.7791,-1.7708,-1.7615,-1.748,-1.7398,-1.7253,-1.7065,-1.6939,-1.6545,-1.5948,-1.5635,-1.5266,-1.482,-1.4032,-1.364,-1.3593,-1.2819,-1.2282,-1.1999,-1.1402,-1.084,-1.0451,-0.9535,-0.8904,-0.8526,-0.7907,-0.73,-0.6761,-0.6413,-0.5887,-0.5193,-0.4909,-0.4392,-0.3614,-0.3152,-0.2652,-0.2038,-0.1738,-0.144,0.0,-0.0746,0.0,0.0,0.0,0.0,0.0,0.0,0.0,0.0,0.1919,0.2254,0.2645,0.2615,0.2672,0.2968,0.3139,0.3343,0.3694,0.4098,0.4586,0.5131,0.564,0.6091,0.6401,0.6966,0.738,0.7593,0.8063,0.8479,0.8765,0.9119,0.9556,1.011,1.0434,1.0713,1.0996,1.1341,1.1872,1.2436,1.2911,1.3338,1.3731,1.421,1.4677,1.5059,1.5488,1.5941,1.6259,1.6637,1.6983,1.7211,1.7673,1.8057,1.8313,1.8679,1.9025,1.9316,1.9486,1.963,-2.6878,-2.6539,-2.6092,-2.5717,-2.539,-2.4648,-2.4053,-2.3542,-2.2895,-2.2017,-2.104,-2.0665,-2.0303,-1.9995,-1.9673,-1.9512,-1.9415,-1.8882,-1.8575,-1.8427,-1.7937,-1.7595,-1.7409,-1.7284,-1.7056,-1.677,-1.623,-1.5843,-1.5584,-1.4829,-1.4418,-1.43,-1.3874,-1.3492,-1.3178,0.0,0.0,0.0,-0.9957,-0.9419,-0.9104,-0.8255,-0.7557,-0.7025,-0.6598,0.0,-0.5536,-0.5207,-0.4731,-0.4087,-0.3711,0.0,0.0,0.0,0.0,0.0,0.0,0.0,0.0,0.0,0.0,0.0,0.0266,0.0804,0.1275,0.1684,0.1998,0.2139,0.2221,0.2334,0.2435,0.2685,0.2934,0.3227,0.3739,0.4225,0.4568,0.5223,0.581,0.615,0.667,0.7112,0.7432,0.7707,0.8057,0.8447,0.8641,0.8958,0.9556,1.004,1.0434,1.0681,1.1216,1.1778,1.2274,1.2552,1.295,1.342,1.3761,1.4151,1.4558,1.503,1.5439,1.5788,1.6192,1.662,1.6994,1.7284,1.7629,1.8057,1.8329,1.8664,1.9129,1.942,1.9617,-2.7583,0.0,-2.6971,-2.6655,0.0,-2.5924,-2.5519,-2.5102,-2.3985,-2.3078,-2.2285,-2.1705,-2.1375,-2.1168,-2.0575,-2.0237,-2.0129,-1.9706,-1.9437,-1.9297,-1.8881,-1.8552,-1.8295,-1.8221,-1.7916,-1.7438,-1.7028,-1.6568,-1.6044,-1.5519,-1.51,-1.4852,-1.4449,-1.4091,-1.3731,-1.3042,-1.2139,-1.1062,-1.04,-0.9883,-0.9508,-0.8833,-0.8172,-0.7542,0.0,0.0,0.0,0.0,0.0,0.0,0.0,0.0,0.0,0.0,0.0,-0.2017,-0.1616,-0.1345,-0.1199,-0.0985,-0.0807,-0.0695,-0.0237,0.0361,0.1088,0.1438,0.167,0.1835,0.1866,0.1943,0.2118,0.2293,0.2491,0.2915,0.3285,0.3677,0.4193,0.4756,0.5286,0.5718,0.6134,0.6548,0.6909,0.7265,0.7601,0.7954,0.8317,0.8673,0.9081,0.9594,1.004,1.053,1.1153,1.1685,1.1934,1.2344,1.2652,1.3042,1.3398,1.3761,1.4091,1.4529,1.4971,1.5391,1.5788,1.6192,1.662,1.6948,1.7301,1.7783,1.8096,1.8422,1.8905,1.921,1.9447,-2.8186,-2.7747,-2.7714,-2.746,-2.7079,-2.6816,-2.6611,-2.6261,0.0,0.0,0.0,-2.2624,-2.2207,-2.2118,-2.131,-2.0824,-2.063,-2.0324,-2.015,-2.0042,-1.9802,-1.9539,-1.9274,-1.9164,-1.8769,-1.8116,-1.7841,-1.7312,-1.6524,-1.6091,-1.5688,-1.5281,-1.4821,-1.4389,-1.395,-1.3133,-1.2317,-1.1518,-1.0872,-1.0301,-0.9847,-0.9397,-0.8812,-0.8043,-0.7637,-0.7128,-0.6598,-0.6243,-0.5871,-0.5436,-0.5014,-0.4562,-0.4064,-0.3524,-0.3025,-0.2545,-0.2195,-0.1854,-0.1626,-0.1487,-0.1326,-0.1068,-0.065,-0.0025,0.0891,0.1095,0.1268,0.1529,0.1479,0.1524,0.1815,0.1943,0.217,0.2583,0.288,0.3264,0.3861,0.43,0.4741,0.5203,0.5591,0.5921,0.6284,0.6745,0.7171,0.7461,0.7954,0.8511,0.8797,0.9338,0.9881,1.0491,1.1059,1.1466,1.1661,1.2027,1.2436,1.2652,1.3042,1.3398,1.3731,1.4091,1.4529,1.4991,1.5362,1.5749,1.623,1.6609,1.705,1.7545,1.7838,1.8139,1.8583,1.8943,1.9196,-2.9415,-2.8791,-2.8588,-2.8095,-2.7403,-2.7113,-2.6671,-2.6151,-2.5144,-2.4249,-2.3482,-2.3344,-2.3142,-2.2829,-2.2141,-2.1725,-2.1495,-2.0892,-2.0604,0.0,-2.0215,-2.0009,-1.9944,-1.9495,-1.9144,-1.8918,-1.8393,-1.788,-1.7357,-1.6612,-1.6065,-1.5706,-1.518,-1.4547,-1.3851,-1.3398,-1.2948,-1.2411,-1.1473,-1.0792,-1.0301,-0.9757,-0.9146,-0.8533,-0.8064,-0.7605,-0.7182,-0.6644,-0.6202,-0.5925,-0.5367,-0.4911,-0.4599,-0.4087,-0.3655,-0.3344,-0.297,-0.2623,-0.2354,-0.2116,-0.1773,-0.1307,-0.0976,-0.0449,0.0423,0.0608,0.0778,0.0998,0.1086,0.1171,0.1263,0.1638,0.1904,0.2097,0.2653,0.3128,0.3288,0.3881,0.4436,0.4688,0.516,0.5594,0.5925,0.6284,0.6712,0.7171,0.7629,0.8117,0.8829,0.9498,1.0047,1.0498,1.0776,1.1083,1.1466,1.1654,1.2003,1.2537,1.2683,1.295,1.3428,1.3761,1.4091,1.4529,1.4951,1.541,1.5884,1.6239,1.6676,1.7211,1.7545,1.7838,1.8166,1.8583,1.8958,-3.0023,-2.9609,-2.9493,-2.8942,-2.8082,-2.7309,-2.6726,-2.6255,-2.5778,-2.5235,-2.4613,-2.4144,-2.3842,-2.3659,-2.2997,-2.2575,-2.2362,-2.1714,-2.1334,-2.1213,-2.0684,-2.0313,-2.0096,-1.9846,-1.9561,-1.9198,-1.8878,-1.8412,-1.7888,-1.7304,-1.6689,-1.6044,-1.5259,-1.4547,-1.404,-1.3601,-1.3216,-1.2797,-1.2119,-1.1391,-1.063,-1.0279,-0.9701,-0.8831,-0.8421,-0.7963,-0.7503,-0.7025,-0.6661,-0.6395,-0.5948,-0.5488,-0.5047,-0.4649,-0.4227,-0.3752,-0.3468,-0.3138,-0.2741,-0.2437,-0.2134,-0.1827,-0.1535,-0.1151,-0.0548,-0.011,0.0275,0.0504,0.0598,0.0692,0.0865,0.1156,0.1489,0.1821,0.2285,0.2722,0.3126,0.3462,0.3894,0.4364,0.4664,0.4997,0.5557,0.5925,0.6284,0.6745,0.7335,0.809,0.8668,0.9274,0.9849,1.0206,1.0523,1.0839,1.1247,1.1498,1.1747,1.212,1.2398,1.2683,1.3003,1.3307,1.3731,1.4061,1.4499,1.4971,1.5429,1.5855,1.6324,1.679,1.7239,1.7562,1.792,1.841,1.8851,-3.0647,-3.0373,-3.0325,-2.9712,-2.8741,-2.7742,-2.7075,-2.6659,-2.6364,-2.605,-2.5662,-2.4926,-2.455,-2.4421,-2.3808,-2.3403,-2.3163,-2.2518,-2.2075,-2.1784,-2.1223,-2.0694,-2.0302,-2.0161,-1.9879,-1.9473,-1.9264,-1.8889,-1.8393,-1.7926,-1.7169,-1.6214,-1.5305,-1.469,-1.427,-1.3881,-1.3489,-1.3133,-1.2767,-1.2062,-1.1065,-1.0767,-1.0177,-0.9259,-0.8771,-0.8315,-0.783,-0.7456,-0.7085,-0.6783,-0.644,-0.6017,-0.554,-0.5163,-0.4733,-0.4233,-0.3987,-0.3655,-0.3097,-0.2753,-0.2503,-0.2319,-0.2102,-0.1822,-0.1458,-0.0931,-0.0425,-0.0057,0.0029,0.0207,0.0477,0.0705,0.1039,0.1576,0.1881,0.2299,0.2845,0.3092,0.3393,0.3966,0.4167,0.4567,0.5063,0.5524,0.5987,0.6548,0.7335,0.7987,0.8447,0.899,0.946,0.9849,1.0238,1.0618,1.094,1.1279,1.1529,1.1709,1.212,1.2398,1.2644,1.3033,1.339,1.37,1.4091,1.4558,1.5001,1.5468,1.5941,1.641,1.6864,1.7351,1.7881,1.8329,1.8798,-3.1694,-3.1197,-3.1002,-3.0277,-2.9227,-2.8521,-2.795,-2.7434,-2.6722,-2.6314,-2.6109,-2.5674,-2.531,-2.4968,-2.4456,-2.4093,-2.3873,-2.3209,-2.2654,-2.2205,-2.1772,-2.1335,-2.082,-2.0345,-2.0074,-1.9944,-1.9506,-1.9177,-1.8951,-1.821,-1.7201,-1.5979,-1.56,-1.5139,-1.4524,-1.4318,-1.3989,-1.345,-1.342,-1.2857,-1.1752,-1.1109,-1.0475,-0.9837,-0.9252,-0.8692,-0.8189,-0.7836,-0.7456,-0.7058,-0.6657,-0.6295,-0.6091,-0.5569,-0.5179,-0.4992,-0.4607,-0.4176,-0.3602,-0.3224,-0.2924,-0.2689,-0.2525,-0.2301,-0.1967,-0.1815,-0.1406,-0.0794,-0.053,-0.0269,0.0031,0.0348,0.0676,0.1068,0.1551,0.2048,0.2319,0.2824,0.3228,0.3261,0.3863,0.4336,0.45,0.5063,0.5822,0.6651,0.7171,0.7754,0.8317,0.8673,0.9049,0.9492,0.9977,1.0364,1.0649,1.0933,1.1247,1.156,1.1747,1.2058,1.2428,1.2652,1.2828,1.3398,1.3791,1.421,1.4656,1.5128,1.5584,1.6056,1.6542,1.7088,1.7838,1.8259,1.8556,-3.2128,-3.1816,-3.173,-3.1106,-3.0077,-2.9298,-2.872,-2.8351,-2.7472,-2.6999,-2.6764,-2.6233,-2.577,-2.5382,-2.5013,-2.4789,-2.4625,-2.4012,-2.3533,-2.3061,-2.2648,-2.2078,-2.1358,-2.1039,-2.0621,-2.0085,-1.966,-1.9374,-1.9102,-1.8338,-1.7514,-1.686,-1.6121,-1.5531,-1.513,-1.4667,-1.427,-1.3989,-1.367,-1.3245,-1.2786,-1.1892,-1.0967,-1.0135,-0.9581,-0.9079,-0.8559,-0.8082,-0.7649,-0.7354,-0.7004,-0.663,-0.6232,-0.5959,-0.5654,-0.5242,-0.4767,-0.4408,-0.4135,-0.3663,-0.336,-0.3249,-0.2884,-0.2598,-0.2485,-0.2348,-0.2041,-0.158,-0.1089,-0.0689,-0.0476,-0.0065,0.0331,0.0596,0.1102,0.158,0.1985,0.2388,0.2725,0.3127,0.3462,0.383,0.43,0.493,0.5693,0.6453,0.6909,0.7368,0.7927,0.8349,0.8765,0.9139,0.9556,1.0009,1.046,1.0776,1.1059,1.1334,1.156,1.184,1.2189,1.2506,1.2744,1.3064,1.3428,1.3821,1.421,1.4656,1.5147,1.5671,1.6371,1.7004,1.7606,1.8002,1.8356,-3.2322,-3.2205,-3.2205,-3.1744,-3.0962,-3.0068,-2.9519,-2.9191,-2.8363,-2.7774,-2.7337,-2.6762,-2.622,-2.577,-2.5488,-2.5324,-2.5099,-2.4718,-2.4294,-2.3839,-2.3385,-2.2797,-2.208,-2.1642,-2.1118,-2.05,-1.9976,-1.9572,-1.921,-1.8459,-1.7898,-1.7484,-1.6517,-1.5884,-1.5609,-1.492,-1.4478,-1.4309,-1.3881,-1.3601,-1.3377,-1.256,-1.1585,-1.0651,-1.0006,-0.9466,-0.8938,-0.8392,-0.7922,-0.7601,-0.7333,-0.6928,-0.6472,-0.6314,-0.5932,-0.5352,-0.4936,-0.4629,-0.4519,-0.4079,-0.3791,-0.3632,-0.328,-0.3012,-0.2902,-0.2762,-0.2549,-0.2274,-0.1722,-0.124,-0.0851,-0.0532,-0.0168,0.0168,0.0639,0.1143,0.158,0.1951,0.2389,0.2857,0.3094,0.3496,0.4197,0.4897,0.5557,0.6152,0.6552,0.6975,0.7545,0.8103,0.8581,0.893,0.94,0.9882,1.0385,1.0618,1.087,1.1083,1.1341,1.1622,1.1941,1.2251,1.256,1.2789,1.3147,1.3511,1.3881,1.4291,1.4883,1.5468,1.6132,1.6835,1.7368,1.7739,1.8096,-3.2322,-3.2205,-3.2205,-3.2046,-3.1746,-3.0989,-3.0434,-3.0019,-2.923,-2.8463,-2.77,-2.7349,-2.6862,-2.6169,-2.577,-2.5488,-2.5276,-2.5134,-2.4766,-2.4269,-2.3863,-2.3398,-2.2922,-2.2113,-2.1563,-2.1218,-2.0446,-1.9758,-1.9108,-1.8677,-1.8165,-1.7615,-1.6882,-1.6244,-1.5777,-1.5117,-1.4627,-1.4478,-1.4151,-1.3821,-1.348,-1.3009,-1.2359,-1.1551,-1.0653,-0.9901,-0.9336,-0.8844,-0.8354,-0.7907,-0.7543,-0.7236,-0.7031,-0.65,-0.5927,-0.5411,-0.5274,-0.5022,-0.4608,-0.4477,-0.4279,-0.39,-0.377,-0.3574,-0.3284,-0.3128,-0.2991,-0.277,-0.2344,-0.1841,-0.1238,-0.1006,-0.0706,-0.0135,0.0303,0.0706,0.1076,0.1715,0.2153,0.2389,0.2824,0.346,0.4197,0.4761,0.5289,0.5826,0.6222,0.6692,0.7386,0.7969,0.8415,0.895,0.9547,1.0183,1.0135,1.0502,1.0719,1.0994,1.1319,1.1476,1.1668,1.1903,1.2243,1.2591,1.3024,1.3361,1.3606,1.4112,1.4824,1.5439,1.597,1.6581,1.7117,1.749,1.7849,-3.2431,-3.2205,-3.2205,-3.2073,-3.1863,-3.1562,-3.1213,-3.0792,-3.0032,-2.945,-2.8864,-2.7952,-2.7274,-2.6874,-2.6128,-2.5676,-2.55,-2.5324,-2.5075,-2.4802,-2.4531,-2.4073,-2.3444,-2.288,-2.2253,-2.1564,-2.0908,-2.0125,-1.9295,-1.8975,-1.8626,-1.8125,-1.754,-1.6914,-1.6275,-1.5699,-1.5166,-1.4645,-1.4419,-1.4181,-1.3821,-1.3459,-1.2967,-1.2361,-1.1351,-1.0516,-1.0009,-0.9553,-0.9021,-0.8373,-0.8132,-0.7714,-0.7133,-0.6527,-0.6119,-0.5877,-0.5521,-0.529,-0.5188,-0.4834,-0.4641,-0.4574,-0.4186,-0.3962,-0.3777,-0.3512,-0.3278,-0.3051,-0.2734,-0.2284,-0.1849,-0.1378,-0.1008,-0.0706,-0.0168,0.0336,0.0706,0.1176,0.1648,0.2153,0.2792,0.3426,0.3964,0.4395,0.4827,0.5468,0.5974,0.6533,0.7182,0.7761,0.831,0.8914,0.935,0.9742,1.0223,1.0621,1.1016,1.1256,1.1502,1.186,1.2087,1.2265,1.262,1.281,1.3148,1.3388,1.3701,1.4183,1.4872,1.5311,1.584,1.637,1.6874,1.7244,1.7623,-3.2467,-3.2277,-3.2205,-3.2146,-3.2,-3.1927,-3.178,-3.1418,-3.0763,-3.0268,-2.9749,-2.8762,-2.7964,-2.7374,-2.6681,-2.6081,-2.5688,-2.543,-2.5253,-2.5147,-2.4992,-2.4578,-2.4049,-2.357,-2.2948,-2.2139,-2.1285,-2.0375,-1.9493,-1.9208,-1.8942,-1.8576,-1.7932,-1.7369,-1.6811,-1.6181,-1.5516,-1.5029,-1.4662,-1.4359,-1.4079,-1.37,-1.3329,-1.2909,-1.2041,-1.1286,-1.0646,-1.0082,-0.9535,-0.901,-0.8679,-0.817,-0.7388,-0.6959,-0.6628,-0.6426,-0.606,-0.5771,-0.5677,-0.5291,-0.5065,-0.5023,-0.469,-0.4382,-0.4175,-0.3921,-0.3623,-0.3326,-0.3025,-0.2721,-0.2353,-0.1816,-0.1378,-0.1109,-0.0538,-0.0034,0.0303,0.0807,0.1446,0.2119,0.2723,0.3293,0.3694,0.4064,0.4584,0.5215,0.5692,0.6276,0.6978,0.7579,0.8143,0.8837,0.9267,0.9716,1.0189,1.0674,1.0981,1.1245,1.1533,1.197,1.2361,1.2584,1.2833,1.305,1.3308,1.3542,1.3892,1.4382,1.4818,1.5249,1.5712,1.6265,1.6638,1.6988,1.7405,-3.2417,-3.2381,-3.2264,-3.2182,-3.2132,-3.2,-3.189,-3.1767,-3.1431,-3.0842,-3.0202,-2.9813,-2.8903,-2.7815,-2.7339,-2.6756,-2.5998,-2.5524,-2.5312,-2.5276,-2.5159,-2.4969,-2.4684,-2.4049,-2.3513,-2.298,-2.1629,-2.0497,-1.9734,-1.9339,-1.9042,-1.8693,-1.8048,-1.7645,-1.7553,-1.6488,-1.5787,-1.5442,-1.4909,-1.4494,-1.4258,-1.3791,-1.348,-1.3238,-1.2765,-1.2057,-1.1174,-1.039,-0.9908,-0.9635,-0.9155,-0.8504,-0.7953,-0.7712,-0.7502,-0.6993,-0.6868,-0.6524,-0.6005,-0.5858,-0.5594,-0.5294,-0.511,-0.4855,-0.4491,-0.4292,-0.4033,-0.3596,-0.3295,-0.3025,-0.2721,-0.2354,-0.1849,-0.1244,-0.0773,-0.037,0.0034,0.0673,0.1378,0.2052,0.2622,0.3025,0.3297,0.3816,0.4428,0.493,0.5408,0.5962,0.6758,0.7389,0.7941,0.8466,0.9079,0.9654,1.0155,1.0659,1.0906,1.1153,1.1457,1.1812,1.2256,1.2547,1.286,1.3099,1.3489,1.3741,1.4056,1.4533,1.5056,1.5475,1.5873,1.6226,1.6717,1.7116,1.7338,-3.2525,-3.2381,-3.2277,-3.2205,-3.2205,-3.2132,-3.205,-3.189,-3.1767,-3.1389,-3.0869,-3.0268,-2.9598,-2.876,-2.7837,-2.7087,-2.6592,-2.5894,-2.5418,-2.5312,-2.5135,-2.504,-2.4909,-2.4483,-2.3882,-2.3094,-2.189,-2.0974,-2.0454,-1.9764,-1.9308,-1.8934,-1.8465,-1.8002,-1.7635,-1.7112,-1.657,-1.5777,-1.5423,-1.5023,-1.4455,-1.4061,-1.3731,-1.342,-1.2981,-1.2465,-1.1928,-1.1372,-1.0735,-1.009,-0.9867,-0.9387,-0.861,-0.8038,-0.7677,-0.7399,-0.7076,-0.6761,-0.6418,-0.6164,-0.6014,-0.5798,-0.5549,-0.5278,-0.502,-0.4597,-0.42,-0.383,-0.346,-0.3092,-0.2891,-0.2557,-0.2085,-0.1512,-0.1143,-0.0706,-0.0168,0.0572,0.1311,0.1884,0.2253,0.2676,0.3233,0.373,0.4117,0.472,0.5303,0.5934,0.6441,0.7123,0.7774,0.8326,0.896,0.9496,0.9916,1.0368,1.0703,1.1111,1.1498,1.1808,1.2197,1.2544,1.2863,1.3229,1.3631,1.3978,1.4272,1.4711,1.5224,1.56,1.5907,1.6398,1.6979,1.7306,1.7465,-3.2704,-3.2489,-3.2336,-3.2241,-3.2205,-3.2205,-3.2096,-3.2,-3.194,-3.1743,-3.1402,-3.0853,-3.0244,-2.9591,-2.8586,-2.7742,-2.7091,-2.6328,-2.5788,-2.5454,-2.5241,-2.5147,-2.5052,-2.4694,-2.4044,-2.3163,-2.2173,-2.1442,-2.0872,-2.0027,-1.945,-1.9142,-1.8808,-1.8375,-1.7919,-1.7596,-1.7061,-1.6321,-1.5871,-1.5383,-1.4877,-1.4402,-1.4001,-1.361,-1.3216,-1.2828,-1.2398,-1.2027,-1.1372,-1.0629,-1.0287,-0.9758,-0.9108,-0.8554,-0.8151,-0.7906,-0.7542,-0.7197,-0.6958,-0.6598,-0.6351,-0.6228,-0.5855,-0.5528,-0.5329,-0.48,-0.44,-0.4097,-0.3694,-0.3324,-0.3092,-0.2723,-0.2321,-0.1849,-0.1445,-0.0908,-0.0269,0.0437,0.1042,0.1516,0.1936,0.2478,0.296,0.3434,0.3868,0.4515,0.5075,0.5726,0.6215,0.6836,0.7456,0.8016,0.8585,0.9084,0.9582,1.003,1.0481,1.1026,1.1587,1.1909,1.2274,1.2565,1.2869,1.3352,1.3762,1.4069,1.4407,1.4847,1.5325,1.5622,1.5991,1.6489,1.702,1.7274,1.7502,-3.2917,-3.269,-3.2475,-3.2322,-3.2205,-3.2205,-3.2169,-3.2146,-3.2,-3.194,-3.1803,-3.1405,-3.0869,-3.0205,-2.9531,-2.8589,-2.7469,-2.6816,-2.6234,-2.5715,-2.5382,-2.5218,-2.5052,-2.4706,-2.415,-2.337,-2.2648,-2.1843,-2.1116,-2.0223,-1.9527,-1.9318,-1.8975,-1.8717,-1.8385,-1.7919,-1.7448,-1.6996,-1.6311,-1.578,-1.542,-1.4826,-1.4333,-1.3891,-1.3484,-1.3056,-1.2613,-1.2182,-1.1716,-1.1115,-1.042,-0.9926,-0.9564,-0.9204,-0.8837,-0.8479,-0.8172,-0.7817,-0.7479,-0.7102,-0.6756,-0.6441,-0.6119,-0.5789,-0.5462,-0.5096,-0.4697,-0.4331,-0.4028,-0.3661,-0.3259,-0.2922,-0.2589,-0.2186,-0.1614,-0.0909,-0.0135,0.027,0.0677,0.1154,0.1725,0.2287,0.2617,0.3097,0.3715,0.4318,0.4739,0.5322,0.588,0.6465,0.6976,0.7557,0.8127,0.8703,0.916,0.9733,1.0143,1.0588,1.1223,1.1781,1.2224,1.2562,1.2936,1.3397,1.3789,1.4127,1.4482,1.4874,1.5348,1.5817,1.6215,1.662,1.7019,1.7365,1.7808,-3.2988,-3.2881,-3.2561,-3.2381,-3.2322,-3.2241,-3.2205,-3.2182,-3.2146,-3.2036,-3.189,-3.1633,-3.123,-3.0712,-2.9851,-2.8979,-2.8091,-2.7146,-2.6391,-2.5832,-2.5453,-2.5253,-2.5087,-2.4849,-2.4504,-2.4057,-2.3255,-2.2567,-2.1843,-2.0916,-2.019,-1.9517,-1.9185,-1.8841,-1.8509,-1.8231,-1.7823,-1.7369,-1.6983,-1.6475,-1.5939,-1.5294,-1.4774,-1.4369,-1.3787,-1.3233,-1.2744,-1.2096,-1.1529,-1.1122,-1.0681,-1.0276,-0.9881,-0.9524,-0.9145,-0.877,-0.8479,-0.8084,-0.7624,-0.7396,-0.7101,-0.6642,-0.6383,-0.6152,-0.5789,-0.5425,-0.5027,-0.4595,-0.4298,-0.3964,-0.3496,-0.3192,-0.279,-0.222,-0.1618,-0.0978,-0.0372,0.0,0.0381,0.1008,0.1385,0.1847,0.239,0.2938,0.3507,0.4002,0.4491,0.4994,0.5497,0.6057,0.6598,0.7053,0.7591,0.8203,0.878,0.9354,0.9809,1.0143,1.0738,1.1484,1.2003,1.2519,1.2936,1.3411,1.363,1.3934,1.433,1.4712,1.5303,1.5815,1.6166,1.6446,1.7209,1.7695,1.821,-3.3072,-3.2988,-3.2725,-3.2561,-3.2381,-3.2336,-3.2241,-3.2205,-3.2205,-3.2146,-3.1963,-3.1706,-3.1485,-3.1172,-3.0285,-2.9537,-2.8754,-2.7604,-2.6758,-2.6208,-2.5609,-2.5265,-2.5087,-2.4885,-2.4682,-2.4396,-2.3601,-2.2977,-2.2349,-2.1449,-2.0551,-1.9924,-1.9412,-1.8985,-1.865,-1.8462,-1.8204,-1.778,-1.7447,-1.6965,-1.6499,-1.5901,-1.5271,-1.4751,-1.4153,-1.3554,-1.2776,-1.2127,-1.1591,-1.1153,-1.0782,-1.0434,-1.0015,-0.969,-0.9332,-0.8894,-0.8641,-0.8247,-0.7819,-0.7591,-0.726,-0.6839,-0.6548,-0.6251,-0.5888,-0.5591,-0.5193,-0.4761,-0.4464,-0.4097,-0.3663,-0.3259,-0.2772,-0.2256,-0.1781,-0.1233,-0.0686,-0.0347,0.0106,0.0642,0.1093,0.1562,0.223,0.2743,0.3242,0.3705,0.4142,0.4608,0.5043,0.5628,0.6177,0.6633,0.7207,0.7825,0.8322,0.8856,0.9544,0.9879,1.055,1.126,1.1781,1.2372,1.2783,1.32,1.3455,1.3783,1.4137,1.4533,1.5034,1.5505,1.5859,1.6351,1.7063,1.7672,1.825,-3.3192,-3.3023,-3.3023,-3.2761,-3.2489,-3.2417,-3.2322,-3.2205,-3.2205,-3.2205,-3.2109,-3.1793,-3.1646,-3.1572,-3.0745,-3.0073,-2.941,-2.8262,-2.7323,-2.654,-2.5779,-2.5253,-2.5123,-2.4957,-2.4754,-2.4468,-2.3707,-2.3252,-2.2746,-2.1717,-2.0924,-2.0357,-1.9748,-1.9248,-1.8862,-1.8607,-1.8438,-1.817,-1.7723,-1.7344,-1.6968,-1.6485,-1.5899,-1.5219,-1.447,-1.3749,-1.292,-1.2282,-1.1809,-1.1192,-1.0846,-1.0498,-1.011,-0.9754,-0.9428,-0.9081,-0.8765,-0.8447,-0.8052,-0.7754,-0.7428,-0.704,-0.6679,-0.6317,-0.602,-0.569,-0.5362,-0.496,-0.4564,-0.4241,-0.3792,-0.3175,-0.2708,-0.2377,-0.2148,-0.1761,-0.1236,-0.0706,-0.0214,0.0255,0.0823,0.144,0.1947,0.2394,0.2784,0.3443,0.388,0.4268,0.4732,0.5237,0.5747,0.6254,0.683,0.7446,0.794,0.836,0.9122,0.9728,1.0513,1.1149,1.1595,1.2114,1.2526,1.2936,1.3273,1.3601,1.3956,1.4389,1.4784,1.515,1.5541,1.607,1.6656,1.727,1.7842,-3.3276,-3.3192,-3.3072,-3.2846,-3.2632,-3.2453,-3.2336,-3.2205,-3.2205,-3.2205,-3.2146,-3.1927,-3.1757,-3.1572,-3.1048,-3.0361,-2.9575,-2.8799,-2.794,-2.6432,-2.5659,-2.5336,-2.5218,-2.5123,-2.4921,-2.4671,-2.4397,-2.3821,-2.3137,-2.2585,-2.1838,-2.0813,-2.0234,-1.9731,-1.9083,-1.8684,-1.8448,-1.8293,-1.8002,-1.7741,-1.7451,-1.6988,-1.6473,-1.5853,-1.4714,-1.3832,-1.3241,-1.2508,-1.191,-1.1529,-1.1167,-1.0817,-1.0434,-1.0072,-0.9716,-0.9364,-0.9049,-0.8732,-0.8382,-0.8052,-0.7754,-0.7363,-0.6975,-0.6651,-0.6321,-0.5987,-0.5627,-0.5292,-0.493,-0.4434,-0.3893,-0.3362,-0.2954,-0.2724,-0.2458,-0.2149,-0.1667,-0.1116,-0.0558,0.0,0.0575,0.1169,0.1674,0.2221,0.2668,0.3178,0.3608,0.3997,0.4423,0.4885,0.5354,0.5825,0.6409,0.7026,0.7595,0.8131,0.8894,0.9576,1.0325,1.0999,1.1409,1.1892,1.2342,1.2716,1.309,1.3455,1.3775,1.4057,1.4453,1.482,1.5248,1.5815,1.6377,1.6925,1.751,-3.3276,-3.3276,-3.3192,-3.3037,-3.2846,-3.2632,-3.2453,-3.23,-3.2241,-3.2205,-3.2146,-3.1963,-3.1793,-3.1572,-3.1174,-3.0566,-2.9832,-2.9001,-2.7841,-2.6542,-2.5853,-2.5564,-2.5324,-2.5218,-2.5052,-2.479,-2.4562,-2.4113,-2.3583,-2.3063,-2.2275,-2.1266,-2.0617,-1.9906,-1.9237,-1.8741,-1.8482,-1.8371,-1.8144,-1.7896,-1.7658,-1.7364,-1.6728,-1.6072,-1.4961,-1.4189,-1.3712,-1.3083,-1.2519,-1.2054,-1.1564,-1.1072,-1.0606,-1.0206,-0.9849,-0.9524,-0.9177,-0.8861,-0.8506,-0.8187,-0.7852,-0.7526,-0.7138,-0.6778,-0.642,-0.6086,-0.5756,-0.5395,-0.5006,-0.4543,-0.3975,-0.3584,-0.3245,-0.2945,-0.2706,-0.236,-0.1985,-0.1411,-0.08,-0.023,0.0311,0.0861,0.1414,0.1923,0.2354,0.2824,0.3178,0.3608,0.4075,0.454,0.4927,0.5434,0.5983,0.6602,0.7211,0.7897,0.878,0.9387,1.003,1.0625,1.1149,1.1632,1.212,1.2526,1.29,1.3236,1.3564,1.3848,1.4165,1.4641,1.5106,1.5568,1.6061,1.6612,1.7192,-3.3276,-3.3276,-3.3276,-3.3192,-3.2988,-3.2775,-3.2561,-3.2381,-3.2264,-3.2205,-3.2182,-3.2013,-3.1853,-3.1559,-3.1299,-3.0861,-3.0126,-2.8949,-2.7654,-2.6761,-2.6215,-2.5745,-2.542,-2.5241,-2.5159,-2.4861,-2.4646,-2.4311,-2.3931,-2.3358,-2.2751,-2.1796,-2.0946,-2.0275,-1.9548,-1.8895,-1.8583,-1.8448,-1.8212,-1.7964,-1.775,-1.756,-1.6937,-1.6118,-1.5358,-1.4744,-1.4247,-1.3644,-1.3121,-1.2701,-1.2018,-1.1411,-1.0845,-1.0289,-0.9913,-0.9582,-0.93,-0.8985,-0.8668,-0.8312,-0.7954,-0.7591,-0.7237,-0.6881,-0.6519,-0.6193,-0.5918,-0.5517,-0.5147,-0.464,-0.4064,-0.3754,-0.3444,-0.3135,-0.2892,-0.2613,-0.2214,-0.1694,-0.1119,-0.0507,0.0,0.0549,0.1061,0.1572,0.2003,0.2433,0.2787,0.3217,0.3724,0.4192,0.4579,0.5043,0.5631,0.6409,0.7061,0.771,0.8556,0.9198,0.9765,1.0331,1.085,1.1298,1.1781,1.2268,1.2636,1.301,1.3346,1.3674,1.4029,1.4461,1.4892,1.5319,1.5806,1.6298,1.6915,-3.3276,-3.3276,-3.3276,-3.3192,-3.2988,-3.2775,-3.2596,-3.2395,-3.2264,-3.2205,-3.2169,-3.2169,-3.1927,-3.1633,-3.1572,-3.1099,-3.0227,-2.9062,-2.8024,-2.7225,-2.659,-2.5925,-2.5492,-2.5336,-2.5194,-2.5052,-2.4814,-2.461,-2.4334,-2.3929,-2.323,-2.259,-2.1761,-2.098,-2.0067,-1.9414,-1.8815,-1.8516,-1.8313,-1.8134,-1.7906,-1.7623,-1.7182,-1.6414,-1.5751,-1.5239,-1.474,-1.402,-1.3394,-1.303,-1.2621,-1.2208,-1.1596,-1.0796,-1.0258,-0.9913,-0.9562,-0.9204,-0.8888,-0.8571,-0.8247,-0.7954,-0.7583,-0.7227,-0.6836,-0.6482,-0.6202,-0.583,-0.5348,-0.4817,-0.4424,-0.4075,-0.3718,-0.344,-0.3152,-0.2846,-0.2465,-0.2032,-0.1519,-0.0903,-0.0354,0.0236,0.0707,0.1258,0.1728,0.2158,0.255,0.3061,0.3606,0.3958,0.4268,0.4732,0.5237,0.6135,0.6988,0.7642,0.8331,0.8932,0.9501,0.9992,1.0519,1.0925,1.1372,1.1929,1.2378,1.279,1.3119,1.3455,1.3819,1.4245,1.4641,1.5078,1.5603,1.6123,1.6716,-3.3396,-3.329,-3.3276,-3.3241,-3.3122,-3.281,-3.2632,-3.2538,-3.23,-3.2205,-3.2205,-3.2169,-3.2036,-3.1793,-3.1646,-3.1136,-3.0304,-2.9566,-2.8659,-2.7901,-2.7053,-2.6299,-2.5685,-2.5468,-2.5288,-2.5147,-2.4921,-2.4718,-2.4454,-2.4068,-2.3553,-2.2885,-2.2242,-2.1417,-2.0435,-1.9732,-1.9124,-1.8674,-1.8381,-1.8202,-1.7974,-1.7676,-1.721,-1.6722,-1.6217,-1.5722,-1.5229,-1.4686,-1.3984,-1.3447,-1.3023,-1.2542,-1.1982,-1.1437,-1.0778,-1.0315,-0.9814,-0.9376,-0.9022,-0.8673,-0.837,-0.8159,-0.786,-0.7558,-0.7214,-0.6893,-0.6487,-0.5987,-0.5581,-0.5067,-0.467,-0.4351,-0.4024,-0.3671,-0.3335,-0.2982,-0.2668,-0.2316,-0.1806,-0.1258,-0.0629,-0.0079,0.0314,0.0864,0.1453,0.1924,0.2276,0.2824,0.3372,0.3724,0.3958,0.4579,0.5121,0.5899,0.6756,0.7373,0.8025,0.8627,0.9155,0.969,1.0218,1.0663,1.1111,1.1632,1.2083,1.2526,1.2973,1.3309,1.3666,1.3992,1.4461,1.4892,1.5426,1.5947,1.6577,-3.3501,-3.3276,-3.3276,-3.3276,-3.3241,-3.2931,-3.2739,-3.2632,-3.2372,-3.2241,-3.2205,-3.2182,-3.2073,-3.1867,-3.1559,-3.1061,-3.0368,-2.9947,-2.9185,-2.8246,-2.7468,-2.6784,-2.6106,-2.5612,-2.5276,-2.5241,-2.5016,-2.4754,-2.4526,-2.4189,-2.3623,-2.3136,-2.262,-2.1857,-2.081,-2.0162,-1.9459,-1.8893,-1.8424,-1.8212,-1.794,-1.7632,-1.7332,-1.6943,-1.6517,-1.6044,-1.5623,-1.5138,-1.4521,-1.3913,-1.3399,-1.2917,-1.2311,-1.1964,-1.1512,-1.0807,-1.0128,-0.9684,-0.9319,-0.9013,-0.8797,-0.8581,-0.822,-0.7903,-0.75,-0.7109,-0.6669,-0.6056,-0.5649,-0.5359,-0.4971,-0.4604,-0.4256,-0.3878,-0.3452,-0.3061,-0.2824,-0.2511,-0.212,-0.1532,-0.0904,-0.0393,0.0039,0.0471,0.1061,0.161,0.2003,0.2393,0.2942,0.3374,0.3763,0.4462,0.5085,0.5747,0.6444,0.6984,0.7676,0.8289,0.8818,0.9349,0.9916,1.0443,1.0893,1.1335,1.1781,1.2231,1.2716,1.3127,1.3419,1.3775,1.4245,1.4713,1.5177,1.5744,1.6403,-3.3501,-3.3276,-3.3276,-3.3276,-3.3276,-3.3037,-3.2846,-3.2668,-3.2453,-3.23,-3.2205,-3.2169,-3.2073,-3.1817,-3.1323,-3.0861,-3.0419,-3.0011,-2.9362,-2.8431,-2.7652,-2.693,-2.6154,-2.5552,-2.5372,-2.5288,-2.5111,-2.4957,-2.4718,-2.4345,-2.3948,-2.3475,-2.3005,-2.2386,-2.1482,-2.0726,-1.9965,-1.9383,-1.8775,-1.8236,-1.7818,-1.7598,-1.7358,-1.7081,-1.6656,-1.6202,-1.5921,-1.5426,-1.4835,-1.4363,-1.4053,-1.357,-1.2934,-1.2557,-1.2092,-1.1556,-1.1032,-1.0573,-1.0166,-0.9713,-0.9364,-0.9088,-0.8759,-0.8353,-0.7816,-0.7269,-0.6855,-0.6567,-0.6091,-0.5659,-0.5239,-0.4722,-0.4345,-0.4036,-0.3684,-0.3335,-0.3059,-0.2707,-0.2315,-0.1924,-0.1335,-0.0746,-0.0236,0.0196,0.0629,0.1178,0.1728,0.2119,0.2628,0.3139,0.3686,0.4384,0.4929,0.555,0.6177,0.6714,0.7292,0.7983,0.8518,0.9013,0.9539,1.0099,1.055,1.1037,1.1484,1.1966,1.2452,1.2826,1.3127,1.3564,1.4065,1.4461,1.4864,1.5497,1.6202,-3.364,-3.348,-3.3361,-3.3276,-3.3276,-3.3108,-3.2881,-3.2668,-3.2489,-3.2322,-3.2205,-3.2205,-3.2036,-3.1706,-3.141,-3.0986,-3.0482,-3.0228,-2.9731,-2.8881,-2.8146,-2.7406,-2.6735,-2.6082,-2.5661,-2.53,-2.5135,-2.4992,-2.4754,-2.4538,-2.4164,-2.3779,-2.3441,-2.2847,-2.2092,-2.1414,-2.0597,-1.9741,-1.8869,-1.8255,-1.7906,-1.7632,-1.7461,-1.7358,-1.6751,-1.6377,-1.6061,-1.5638,-1.5106,-1.4605,-1.4281,-1.3848,-1.3324,-1.2919,-1.2516,-1.2213,-1.1644,-1.1062,-1.0451,-1.0049,-0.9767,-0.9466,-0.9103,-0.8607,-0.8047,-0.753,-0.7097,-0.6802,-0.6364,-0.5938,-0.5518,-0.501,-0.4618,-0.427,-0.388,-0.3489,-0.3176,-0.2863,-0.2511,-0.2159,-0.1768,-0.1178,-0.0629,-0.0157,0.0314,0.0904,0.1492,0.1962,0.2589,0.3255,0.3802,0.4384,0.4851,0.5279,0.5902,0.6444,0.6984,0.7599,0.8212,0.8703,0.9193,0.9717,1.025,1.07,1.1149,1.1632,1.2157,1.2599,1.301,1.3448,1.3884,1.4317,1.4721,1.5284,1.6053,-3.3779,-3.364,-3.3431,-3.3276,-3.3276,-3.3143,-3.2931,-3.269,-3.2561,-3.2359,-3.2241,-3.2169,-3.2,-3.172,-3.1572,-3.1224,-3.0596,-3.0444,-3.005,-2.9412,-2.868,-2.7836,-2.7076,-2.6432,-2.5793,-2.5324,-2.5218,-2.5087,-2.4885,-2.4634,-2.4345,-2.3886,-2.3669,-2.3161,-2.2521,-2.1807,-2.0986,-1.9616,-1.8922,-1.8394,-1.8003,-1.7666,-1.7529,-1.7323,-1.6968,-1.6464,-1.6167,-1.5718,-1.5213,-1.4748,-1.4281,-1.3876,-1.3477,-1.3055,-1.2778,-1.2441,-1.1991,-1.1503,-1.0874,-1.0402,-1.0007,-0.9697,-0.9253,-0.8705,-0.8145,-0.7757,-0.7369,-0.6919,-0.6591,-0.6138,-0.5673,-0.5204,-0.4813,-0.4423,-0.4075,-0.3647,-0.3295,-0.302,-0.2707,-0.2354,-0.2002,-0.1689,-0.1139,-0.0589,-0.0039,0.0629,0.1218,0.1805,0.2472,0.3215,0.3684,0.4192,0.4579,0.4965,0.5473,0.6093,0.6633,0.7249,0.7863,0.8399,0.8889,0.9458,0.9986,1.04,1.085,1.1372,1.1892,1.2415,1.2863,1.3229,1.363,1.4137,1.4641,1.5213,1.5947,-3.3896,-3.3848,-3.3466,-3.3276,-3.3276,-3.3276,-3.3051,-3.269,-3.2668,-3.2467,-3.2205,-3.2169,-3.2073,-3.1853,-3.1646,-3.1373,-3.0911,-3.0558,-3.0152,-2.9552,-2.8794,-2.8035,-2.7296,-2.6614,-2.5913,-2.5444,-2.5277,-2.5182,-2.5052,-2.4825,-2.4418,-2.3934,-2.3787,-2.3386,-2.2809,-2.2106,-2.1051,-1.9878,-1.9243,-1.8745,-1.8218,-1.7768,-1.7542,-1.7367,-1.6934,-1.6508,-1.6281,-1.5823,-1.5363,-1.49,-1.4382,-1.3985,-1.363,-1.3156,-1.2826,-1.2606,-1.2194,-1.1777,-1.1352,-1.082,-1.047,-1.0173,-0.9605,-0.8803,-0.8284,-0.7953,-0.7526,-0.7019,-0.6753,-0.6293,-0.5789,-0.5243,-0.4929,-0.4579,-0.427,-0.388,-0.3528,-0.3178,-0.2902,-0.2549,-0.2235,-0.1884,-0.1572,-0.0982,-0.0354,0.0314,0.1178,0.1767,0.2354,0.2981,0.3411,0.3841,0.4229,0.4654,0.5043,0.5625,0.6325,0.6903,0.748,0.8055,0.8585,0.9155,0.9685,1.018,1.0625,1.1149,1.1626,1.204,1.2489,1.29,1.3382,1.3964,1.4713,1.539,1.6158,-3.3896,-3.3848,-3.3466,-3.3276,-3.3276,-3.3276,-3.3086,-3.2725,-3.269,-3.2503,-3.2205,-3.2169,-3.2109,-3.189,-3.1669,-3.1373,-3.0986,-3.0558,-3.0254,-2.9845,-2.917,-2.8453,-2.7761,-2.7026,-2.6346,-2.5817,-2.5516,-2.5253,-2.5087,-2.4897,-2.4646,-2.4273,-2.397,-2.3666,-2.3132,-2.2319,-2.1255,-2.055,-1.9834,-1.9263,-1.8671,-1.81,-1.7761,-1.7445,-1.7038,-1.6612,-1.6307,-1.6061,-1.5603,-1.5062,-1.4561,-1.4173,-1.3775,-1.3222,-1.29,-1.2753,-1.2305,-1.1966,-1.1669,-1.1149,-1.07,-1.0067,-0.9539,-0.8975,-0.8484,-0.8178,-0.7795,-0.7369,-0.6945,-0.6521,-0.6103,-0.5637,-0.5246,-0.4854,-0.4462,-0.4073,-0.3724,-0.3374,-0.3061,-0.2746,-0.2392,-0.2041,-0.1728,-0.1375,-0.0707,0.0,0.0903,0.1689,0.2276,0.2785,0.3176,0.3606,0.4034,0.446,0.4888,0.5431,0.6015,0.6556,0.7134,0.771,0.8241,0.8808,0.9339,0.9873,1.0406,1.085,1.126,1.1669,1.212,1.268,1.3273,1.3855,1.4649,1.5497,1.6167,-3.3896,-3.3848,-3.348,-3.3276,-3.3276,-3.3276,-3.3086,-3.281,-3.2739,-3.2503,-3.2205,-3.2169,-3.2096,-3.1977,-3.172,-3.1485,-3.1099,-3.0672,-3.0368,-2.9922,-2.9447,-2.8837,-2.8203,-2.7512,-2.6779,-2.619,-2.5781,-2.5481,-2.5182,-2.4921,-2.4718,-2.449,-2.4189,-2.3861,-2.3368,-2.2511,-2.1676,-2.1109,-2.0516,-1.9785,-1.9181,-1.8605,-1.8226,-1.7833,-1.7387,-1.6908,-1.6537,-1.6201,-1.5736,-1.5204,-1.4713,-1.4353,-1.3912,-1.3477,-1.3039,-1.2746,-1.2445,-1.204,-1.1706,-1.1186,-1.0625,-1.0035,-0.9549,-0.9127,-0.8746,-0.8331,-0.791,-0.7484,-0.7096,-0.6753,-0.6335,-0.5831,-0.5362,-0.4929,-0.454,-0.419,-0.388,-0.353,-0.3217,-0.2904,-0.2589,-0.2276,-0.1728,-0.1336,-0.0629,0.0039,0.0825,0.1571,0.2082,0.2552,0.2982,0.3411,0.3841,0.4307,0.4732,0.5198,0.5625,0.6209,0.6788,0.7326,0.7897,0.8466,0.9041,0.9539,1.003,1.0513,1.0962,1.1372,1.1972,1.2569,1.3193,1.3863,1.4497,1.5319,1.5885,-3.3896,-3.3862,-3.3466,-3.3276,-3.3276,-3.3276,-3.3157,-3.2952,-3.2775,-3.2503,-3.2205,-3.2205,-3.2205,-3.2073,-3.178,-3.1609,-3.1373,-3.0785,-3.0406,-3.0177,-2.9586,-2.8915,-2.8374,-2.7791,-2.7202,-2.6346,-2.5973,-2.5721,-2.5348,-2.5004,-2.4837,-2.4646,-2.4298,-2.3934,-2.3556,-2.2767,-2.1971,-2.1291,-2.0859,-2.0243,-1.9667,-1.9039,-1.8653,-1.8345,-1.784,-1.7279,-1.6786,-1.6466,-1.5953,-1.5248,-1.4748,-1.4389,-1.4057,-1.3513,-1.3119,-1.2863,-1.2673,-1.2305,-1.1744,-1.0962,-1.0443,-1.0035,-0.9657,-0.9203,-0.8784,-0.8369,-0.7991,-0.7638,-0.7211,-0.6791,-0.6331,-0.5909,-0.5476,-0.5087,-0.4735,-0.4345,-0.4036,-0.3647,-0.3333,-0.3022,-0.2826,-0.2552,-0.1846,-0.1179,-0.0511,0.0196,0.0864,0.1415,0.1925,0.2356,0.2826,0.3256,0.3684,0.4075,0.4462,0.481,0.5276,0.5857,0.6402,0.698,0.7599,0.8169,0.8703,0.9246,0.9771,1.0255,1.0706,1.1155,1.1787,1.2452,1.3236,1.3899,1.4533,1.5106,1.5674,-3.3896,-3.3862,-3.3466,-3.3276,-3.3276,-3.3276,-3.3192,-3.2952,-3.2668,-3.2395,-3.2241,-3.2205,-3.2205,-3.2109,-3.1927,-3.172,-3.1498,-3.1136,-3.0761,-3.033,-2.9767,-2.933,-2.876,-2.8159,-2.7627,-2.7093,-2.6598,-2.6105,-2.5853,-2.5302,-2.4968,-2.4754,-2.4298,-2.3897,-2.3446,-2.2841,-2.2173,-2.1901,-2.136,-2.0745,-2.0232,-1.9558,-1.8995,-1.8748,-1.8184,-1.7624,-1.7043,-1.6749,-1.6206,-1.5394,-1.4876,-1.4565,-1.4145,-1.3593,-1.3236,-1.2936,-1.2709,-1.2342,-1.1781,-1.1186,-1.0743,-1.0293,-0.9803,-0.9392,-0.9094,-0.8441,-0.8097,-0.7834,-0.7369,-0.6984,-0.6676,-0.6138,-0.5709,-0.5359,-0.4971,-0.454,-0.4151,-0.3722,-0.337,-0.3098,-0.2904,-0.2514,-0.1925,-0.1336,-0.0629,-0.0039,0.0589,0.1297,0.1808,0.2238,0.2707,0.31,0.353,0.388,0.4231,0.4579,0.4965,0.547,0.6057,0.6679,0.7257,0.7829,0.8365,0.8822,0.943,1.0035,1.0519,1.0999,1.1639,1.2342,1.301,1.3674,1.4281,1.482,1.539,-3.3896,-3.3862,-3.3466,-3.3276,-3.3276,-3.3276,-3.3157,-3.2881,-3.2596,-3.2395,-3.2241,-3.2205,-3.2205,-3.2146,-3.2013,-3.1793,-3.1572,-3.1174,-3.0798,-3.0381,-2.9972,-2.9509,-2.901,-2.8529,-2.8055,-2.7611,-2.7103,-2.6562,-2.6057,-2.5577,-2.511,-2.4645,-2.4189,-2.3861,-2.3446,-2.2927,-2.2429,-2.2134,-2.1611,-2.1054,-2.0567,-2.0051,-1.943,-1.9089,-1.8591,-1.8023,-1.7482,-1.7047,-1.6626,-1.5735,-1.517,-1.4788,-1.4235,-1.3783,-1.3382,-1.301,-1.2526,-1.2194,-1.1706,-1.1409,-1.0968,-1.0481,-0.9992,-0.962,-0.9284,-0.8708,-0.8331,-0.7987,-0.7565,-0.7215,-0.6865,-0.6289,-0.5906,-0.5556,-0.5126,-0.4696,-0.4307,-0.3876,-0.3565,-0.3294,-0.2943,-0.2514,-0.2004,-0.1454,-0.0825,-0.0275,0.0275,0.0983,0.1651,0.2081,0.2511,0.2942,0.3297,0.361,0.3999,0.4423,0.4774,0.5121,0.5724,0.6337,0.6834,0.7369,0.7906,0.8441,0.9046,0.9652,1.0288,1.0887,1.1484,1.2046,1.2562,1.3258,1.3956,1.4533,1.5098,-3.3896,-3.3848,-3.348,-3.3276,-3.3276,-3.3276,-3.3086,-3.2739,-3.2704,-3.2516,-3.2205,-3.2205,-3.2205,-3.2182,-3.2013,-3.183,-3.1596,-3.1211,-3.0823,-3.0444,-3.0075,-2.9611,-2.9209,-2.8836,-2.8397,-2.7987,-2.7486,-2.7007,-2.6225,-2.5754,-2.5237,-2.4631,-2.42,-2.3861,-2.3494,-2.3075,-2.2665,-2.2252,-2.1683,-2.127,-2.0911,-2.0275,-1.9829,-1.9484,-1.9055,-1.8477,-1.8002,-1.7625,-1.6897,-1.6158,-1.5585,-1.4943,-1.4421,-1.3943,-1.3455,-1.2936,-1.2378,-1.204,-1.1744,-1.1484,-1.1111,-1.0631,-1.018,-0.9771,-0.9316,-0.8861,-0.8479,-0.8102,-0.7718,-0.733,-0.6903,-0.6521,-0.6103,-0.5673,-0.5243,-0.4851,-0.4462,-0.4112,-0.3841,-0.3528,-0.3178,-0.271,-0.2044,-0.1454,-0.1063,-0.0471,0.0079,0.0668,0.1297,0.1808,0.2238,0.2707,0.3062,0.3342,0.3736,0.4191,0.4622,0.5005,0.5422,0.5984,0.6478,0.7009,0.7594,0.8143,0.8698,0.9306,1.0137,1.0775,1.1298,1.1824,1.2305,1.2893,1.363,1.4209,1.4748,-3.3971,-3.3862,-3.3466,-3.3276,-3.3276,-3.3276,-3.3051,-3.2725,-3.269,-3.2489,-3.2205,-3.2205,-3.2205,-3.2182,-3.2146,-3.189,-3.1669,-3.1397,-3.0986,-3.0558,-3.0216,-2.9715,-2.9326,-2.9,-2.8694,-2.8276,-2.7909,-2.7572,-2.7002,-2.6348,-2.5368,-2.4764,-2.4296,-2.3945,-2.3604,-2.3298,-2.2852,-2.2327,-2.1731,-2.1397,-2.1012,-2.0333,-2.002,-1.9709,-1.9379,-1.8786,-1.824,-1.8027,-1.7298,-1.638,-1.5906,-1.5307,-1.4565,-1.4144,-1.3695,-1.2973,-1.2489,-1.2077,-1.1781,-1.1632,-1.1335,-1.0812,-1.0443,-0.996,-0.9435,-0.8975,-0.8556,-0.8212,-0.7872,-0.7522,-0.7096,-0.6676,-0.6257,-0.5831,-0.5359,-0.4968,-0.4618,-0.427,-0.3958,-0.3489,-0.3139,-0.2747,-0.2082,-0.1698,-0.1264,-0.0669,-0.0118,0.0434,0.0987,0.1504,0.2016,0.2527,0.2902,0.3237,0.3612,0.4034,0.4477,0.4918,0.534,0.5782,0.6404,0.6921,0.7381,0.7988,0.867,0.9377,1.0099,1.0663,1.1149,1.1639,1.212,1.2709,1.3266,1.3811,1.4353,-3.4088,-3.3862,-3.3536,-3.3361,-3.3326,-3.329,-3.31,-3.2725,-3.269,-3.2503,-3.2205,-3.2205,-3.2205,-3.2205,-3.2169,-3.2,-3.1609,-3.1522,-3.1149,-3.0558,-3.0406,-2.978,-2.9365,-2.9064,-2.8843,-2.8485,-2.821,-2.7921,-2.7421,-2.6368,-2.5342,-2.4948,-2.4459,-2.403,-2.3666,-2.3409,-2.3038,-2.244,-2.1845,-2.1474,-2.0925,-2.0372,-2.002,-1.9824,-1.9508,-1.894,-1.8433,-1.8358,-1.7726,-1.6824,-1.6375,-1.581,-1.4964,-1.435,-1.3675,-1.2963,-1.2599,-1.2231,-1.1935,-1.175,-1.1409,-1.0999,-1.0669,-1.018,-0.9695,-0.9203,-0.8822,-0.8441,-0.8097,-0.7718,-0.7292,-0.6868,-0.6409,-0.5951,-0.5518,-0.5085,-0.4735,-0.4387,-0.3919,-0.3411,-0.3022,-0.2668,-0.2244,-0.1941,-0.1515,-0.0882,-0.0323,0.0163,0.0771,0.141,0.1888,0.2363,0.279,0.3182,0.3524,0.3872,0.4314,0.4751,0.5149,0.5694,0.6325,0.6847,0.7312,0.7982,0.8786,0.9441,1.0056,1.0466,1.0962,1.1409,1.1824,1.2268,1.2826,1.3411,1.3956,-3.4225,-3.3896,-3.364,-3.3466,-3.3312,-3.3276,-3.3086,-3.2753,-3.269,-3.2503,-3.2241,-3.2205,-3.2205,-3.2205,-3.2169,-3.1963,-3.1683,-3.1572,-3.1187,-3.0406,-3.0406,-2.9947,-2.9326,-2.9104,-2.8867,-2.863,-2.8362,-2.8086,-2.7418,-2.6557,-2.5761,-2.5196,-2.4607,-2.4121,-2.3689,-2.3556,-2.315,-2.244,-2.1921,-2.1512,-2.1041,-2.0489,-1.9893,-1.9824,-1.9539,-1.9116,-1.8825,-1.8541,-1.8254,-1.7528,-1.6868,-1.6343,-1.5304,-1.4365,-1.362,-1.3063,-1.2721,-1.2342,-1.2046,-1.1824,-1.1521,-1.1149,-1.0738,-1.0368,-0.9916,-0.943,-0.9013,-0.8594,-0.825,-0.7834,-0.7407,-0.7022,-0.6602,-0.6141,-0.5715,-0.531,-0.4988,-0.4537,-0.4017,-0.3536,-0.3216,-0.2813,-0.2334,-0.1988,-0.1671,-0.1065,-0.0577,-0.0125,0.05,0.1195,0.1724,0.2207,0.2628,0.3031,0.3441,0.3794,0.4183,0.4613,0.4997,0.5439,0.6005,0.6593,0.7217,0.7967,0.8747,0.9345,0.9956,1.0341,1.0706,1.1111,1.1521,1.1861,1.2378,1.2973,1.3564,-3.4361,-3.3848,-3.3536,-3.3347,-3.3276,-3.3276,-3.3157,-3.2917,-3.2775,-3.2503,-3.2241,-3.2205,-3.2205,-3.2205,-3.2205,-3.2,-3.1683,-3.1522,-3.1099,-3.0634,-3.0406,-2.9908,-2.926,-2.9104,-2.8855,-2.863,-2.8386,-2.8139,-2.7516,-2.6845,-2.6171,-2.5289,-2.4825,-2.444,-2.373,-2.3671,-2.329,-2.2451,-2.2138,-2.1655,-2.1167,-2.0731,-2.0333,-1.9981,-1.9587,-1.9311,-1.9011,-1.8723,-1.8407,-1.7846,-1.7209,-1.6314,-1.5204,-1.4394,-1.3786,-1.3311,-1.2926,-1.2567,-1.2212,-1.1964,-1.174,-1.1315,-1.0935,-1.0605,-1.018,-0.9625,-0.9175,-0.8794,-0.8379,-0.7961,-0.7585,-0.72,-0.6824,-0.6359,-0.5938,-0.5562,-0.5214,-0.4627,-0.411,-0.3706,-0.3379,-0.2968,-0.2476,-0.2072,-0.1749,-0.1336,-0.0879,-0.0379,0.0255,0.0888,0.1438,0.1938,0.2385,0.2827,0.3292,0.3707,0.4062,0.4483,0.4894,0.5303,0.5703,0.6506,0.7285,0.7995,0.8711,0.9285,0.9747,1.0076,1.0456,1.086,1.1223,1.1558,1.2003,1.2562,1.3156,-3.4428,-3.3882,-3.3466,-3.3276,-3.3276,-3.3276,-3.3192,-3.2988,-3.2775,-3.2538,-3.23,-3.2241,-3.2205,-3.2205,-3.2205,-3.2,-3.1646,-3.1609,-3.1061,-3.0596,-3.0292,-2.9831,-2.9443,-2.9104,-2.8816,-2.8578,-2.8367,-2.808,-2.7597,-2.7054,-2.6364,-2.5758,-2.5394,-2.4838,-2.4071,-2.3869,-2.3411,-2.2451,-2.2311,-2.1845,-2.1282,-2.0809,-2.0372,-1.9981,-1.9676,-1.9399,-1.9082,-1.8812,-1.8531,-1.8055,-1.7426,-1.6493,-1.5551,-1.4905,-1.4277,-1.3733,-1.3317,-1.2965,-1.2609,-1.2285,-1.2088,-1.177,-1.1461,-1.1257,-1.084,-1.0293,-0.9686,-0.9251,-0.8563,-0.8099,-0.7955,-0.7652,-0.7285,-0.6914,-0.6431,-0.6016,-0.5429,-0.4758,-0.4205,-0.3707,-0.3418,-0.317,-0.268,-0.2246,-0.1917,-0.1542,-0.1114,-0.0561,0.0043,0.065,0.117,0.169,0.2194,0.2677,0.3199,0.3571,0.3886,0.4319,0.4743,0.5346,0.5928,0.6652,0.735,0.7986,0.8552,0.9109,0.9546,0.9877,1.0226,1.066,1.0974,1.1298,1.1744,1.2187,1.2746,-3.4501,-3.3882,-3.3466,-3.3276,-3.3276,-3.3276,-3.3192,-3.3037,-3.281,-3.2596,-3.2417,-3.2277,-3.2205,-3.2205,-3.2169,-3.189,-3.1706,-3.1609,-3.1099,-3.0596,-3.0406,-2.9819,-2.9404,-2.9104,-2.8776,-2.8538,-2.8287,-2.8059,-2.7723,-2.7259,-2.6855,-2.6484,-2.5936,-2.5363,-2.4709,-2.4249,-2.378,-2.2853,-2.2368,-2.1932,-2.1387,-2.0848,-2.0411,-2.0059,-1.9715,-1.9429,-1.9112,-1.8803,-1.8612,-1.8193,-1.7585,-1.6693,-1.5932,-1.5348,-1.4666,-1.4098,-1.3708,-1.3439,-1.3152,-1.2851,-1.268,-1.2481,-1.2212,-1.1812,-1.1353,-1.0816,-1.019,-0.9597,-0.8934,-0.8475,-0.8324,-0.8044,-0.7718,-0.7281,-0.6785,-0.6261,-0.5558,-0.4905,-0.4367,-0.386,-0.3565,-0.3313,-0.2909,-0.2467,-0.2046,-0.1708,-0.119,-0.0623,-0.0089,0.0488,0.1016,0.1547,0.2029,0.2533,0.3086,0.3486,0.3792,0.4156,0.4612,0.5366,0.6068,0.6615,0.7216,0.788,0.8449,0.8934,0.9396,0.9825,1.0143,1.0472,1.0831,1.1143,1.1446,1.1892,1.2378,-3.4501,-3.3848,-3.3466,-3.3276,-3.3276,-3.3276,-3.3276,-3.3206,-3.2846,-3.2654,-3.2574,-3.2336,-3.2205,-3.2205,-3.2205,-3.1963,-3.1633,-3.1572,-3.1099,-3.0533,-3.0406,-2.9819,-2.9275,-2.8973,-2.8736,-2.8447,-2.8127,-2.7938,-2.7696,-2.7435,-2.7082,-2.6547,-2.6513,-2.5903,-2.5076,-2.4614,-2.4094,-2.3231,-2.2522,-2.2109,-2.1504,-2.0994,-2.0615,-2.0225,-1.9872,-1.9587,-1.9271,-1.8882,-1.8732,-1.8371,-1.7797,-1.6919,-1.6279,-1.5711,-1.5109,-1.4484,-1.4088,-1.3739,-1.3467,-1.3233,-1.3039,-1.2739,-1.2382,-1.1994,-1.1537,-1.1079,-1.0519,-1.0075,-0.9466,-0.9,-0.875,-0.8312,-0.7956,-0.7373,-0.68,-0.6257,-0.5601,-0.514,-0.4655,-0.4174,-0.3782,-0.3475,-0.3171,-0.2704,-0.2217,-0.1824,-0.129,-0.0718,-0.0359,0.0224,0.0807,0.1346,0.184,0.2377,0.2867,0.3358,0.3758,0.4076,0.4478,0.5188,0.5855,0.6438,0.7051,0.7614,0.8205,0.8733,0.9206,0.9665,1.0019,1.0362,1.069,1.1002,1.1288,1.1595,1.212]},{"header":{"parameterUnit":"m.s-1","parameterCategory":1,"la1":31.0,"la2":29.5877,"lo1":-88.7671,"lo2":-86.6584,"dy":0.0162,"dx":0.0185,"nx":115,"ny":88,"refTime":"2024-05-29T12:00:00:Z","depth":0,"parameterNumber":3,"parameterNumberName":"V-component_of_WINDS"},"data":[0.0,0.0,0.0,0.0,0.0,0.0,0.0,0.0,0.0,0.0,0.0,0.0,0.0,0.0,0.0,0.0,0.0,0.0,0.0,0.0,0.0,0.0,0.0,0.0,0.0,0.0,0.0,0.0,0.0,0.0,0.0,0.0,0.0,0.0,0.0,0.0,0.0,0.0,0.0,0.0,0.0,0.0,0.0,0.0,0.0,0.0,0.0,0.0,0.0,0.0,0.0,0.0,0.0,0.0,0.0,0.0,0.0,0.0,0.0,0.0,0.0,0.0,0.0,0.0,0.0,0.0,0.0,0.0,0.0,0.0,0.0,0.0,0.0,0.0,0.0,0.0,0.0,0.0,0.0,0.0,0.0,0.0,0.0,0.0,0.0,0.0,0.0,0.0,0.0,0.0,0.0,0.0,0.0,0.0,0.0,0.0,0.0,0.0,0.0,0.0,0.0,0.0,0.0,0.0,0.0,0.0,0.0,0.0,0.0,0.0,0.0,0.0,0.0,0.0,0.0,0.0,0.0,0.0,0.0,0.0,0.0,0.0,0.0,0.0,0.0,0.0,0.0,0.0,0.0,0.0,0.0,0.0,0.0,0.0,0.0,0.0,0.0,0.0,0.0,0.0,0.0,0.0,0.0,0.0,0.0,0.0,0.0,0.0,0.0,0.0,0.0,0.0,0.0,0.0,0.0,0.0,0.0,0.0,0.0,0.0,0.0,0.0,0.0,0.0,0.0,0.0,0.0,0.0,0.0,0.0,0.0,0.0,0.0,0.0,0.0,0.0,0.0,0.0,0.0,0.0,0.0,0.0,0.0,0.0,0.0,0.0,0.0,0.0,0.0,0.0,0.0,0.0,0.0,0.0,0.0,0.0,0.0,0.0,0.0,0.0,0.0,0.0,0.0,0.0,0.0,0.0,0.0,0.0,0.0,0.0,0.0,0.0,0.0,0.0,0.0,0.0,0.0,0.0,0.0,0.0,0.0,0.0,0.0,0.0,0.0,0.0,0.0,0.0,0.0,0.0,0.0,0.0,0.0,0.0,0.0,0.0,0.0,0.0,0.0,0.0,0.0,0.0,0.0,0.0,0.0,0.0,0.0,0.0,0.0,0.0,0.0,0.0,0.0,0.0,0.0,0.0,0.0,0.0,0.0,0.0,0.0,0.0,0.0,0.0,0.0,0.0,0.0,0.0,0.0,0.0,0.0,0.0,0.0,0.0,0.0,0.0,0.0,0.0,0.0,0.0,0.0,0.0,0.0,0.0,0.0,0.0,0.0,0.0,0.0,0.0,0.0,0.0,0.0,0.0,0.0,0.0,0.0,0.0,0.0,0.0,0.0,0.0,0.0,0.0,0.0,0.0,0.0,0.0,0.0,0.0,0.0,0.0,0.0,0.0,0.0,0.0,0.0,0.0,0.0,0.0,0.0,0.0,0.0,0.0,0.0,0.0,0.0,0.0,0.0,0.0,0.0,0.0,0.0,0.0,0.0,0.0,0.0,0.0,0.0,0.0,0.0,0.0,0.0,0.0,0.0,0.0,0.0,0.0,0.0,0.0,0.0,0.0,0.0,0.0,0.0,0.0,0.0,0.0,0.0,0.0,0.0,0.0,0.0,0.0,0.0,0.0,0.0,0.0,0.0,0.0,0.0,0.0,0.0,0.0,0.0,0.0,0.0,0.0,0.0,0.0,0.0,0.0,0.0,0.0,0.0,0.0,0.0,0.0,0.0,0.0,0.0,0.0,0.0,0.0,0.0,0.0,0.0,0.0,0.0,0.0,0.0,0.0,0.0,0.0,0.0,0.0,0.0,0.0,0.0,0.0,0.0,0.0,0.0,0.0,0.0,0.0,0.0,0.0,0.0,0.0,0.0,0.0,0.0,0.0,0.0,0.0,0.0,0.0,0.0,0.0,0.0,0.0,0.0,0.0,0.0,0.0,0.0,0.0,0.0,0.0,0.0,0.0,0.0,0.0,0.0,0.0,0.0,0.0,0.0,0.0,0.0,0.0,0.0,0.0,0.0,0.0,0.0,0.0,0.0,0.0,0.0,0.0,0.0,0.0,0.0,0.0,0.0,0.0,0.0,0.0,0.0,0.0,0.0,0.0,0.0,0.0,0.0,0.0,0.0,0.0,0.0,0.0,0.0,0.0,0.0,0.0,0.0,0.0,0.0,0.0,0.0,0.0,0.0,0.0,0.0,0.0,0.0,0.0,0.0,0.0,0.0,0.0,0.0,0.0,0.0,0.0,0.0,0.0,0.0,0.0,0.0,0.0,0.0,0.0,0.0,0.0,0.0,0.0,0.0,0.0,0.0,0.0,0.0,0.0,0.0,0.0,0.0,0.0,0.0,0.0,0.0,0.0,0.0,0.0,0.0,0.0,0.0,0.0,0.0,0.0,0.0,0.0,0.0,0.0,0.0,0.0,0.0,0.0,0.0,0.0,0.0,0.0,0.0,0.0,0.0,0.0,0.0,0.0,0.0,0.0,0.0,0.0,0.0,0.0,0.0,0.0,0.0,0.0,0.0,0.0,0.0,0.0,0.0,0.0,0.0,0.0,0.0,0.0,0.0,0.0,0.0,0.0,0.0,0.0,0.0,0.0,0.0,0.0,0.0,0.0,0.0,0.0,0.0,0.0,0.0,0.0,0.0,0.0,0.0,0.0,0.0,0.0,0.0,0.0,0.0,0.0,0.0,0.0,0.0,0.0,0.0,0.0,0.0,0.0,0.0,0.0,0.0,0.0,0.0,0.0,0.0,0.0,0.0,0.0,0.0,0.0,0.0,0.0,0.0,0.0,0.0,0.0,0.0,0.0,0.0,0.0,0.0,0.0,0.0,0.0,0.0,0.0,0.0,0.0,0.0,0.0,0.0,0.0,0.0,0.0,0.0,0.0,0.0,0.0,0.0,0.0,0.0,0.0,0.0,0.0,0.0,0.0,0.0,0.0,0.0,0.0,0.0,0.0,0.0,0.0,0.0,0.0,0.0,0.0,0.0,0.0,0.0,0.0,0.0,0.0,0.0,0.0,0.0,0.0,0.0,0.0,0.0,0.0,0.0,0.0,0.0,0.0,0.0,0.0,0.0,0.0,0.0,0.0,0.0,0.0,0.0,0.0,0.0,0.0,0.0,0.0,0.0,0.0,0.0,0.0,0.0,0.0,0.0,0.0,0.0,0.0,0.0,0.0,0.0,0.0,0.0,0.0,0.0,0.0,0.0,0.0,0.0,0.0,0.0,0.0,0.0,0.0,0.0,0.0,0.0,0.0,0.0,0.0,0.0,0.0,0.0,0.0,0.0,0.0,0.0,0.0,0.0,0.0,0.0,0.0,0.0,0.0,0.0,0.0,0.0,0.0,0.0,0.0,0.0,0.0,0.0,0.0,0.0,0.0,0.0,0.0,0.0,0.0,0.0,0.0,0.0,0.0,0.0,0.0,0.0,0.0,0.0,0.0,0.0,0.0,0.0,0.0,0.0,0.0,0.0,0.0,0.0,0.0,0.0,0.0,0.0,0.0,0.0,0.0,0.0,0.0,0.0,0.0,0.0,0.0,0.0,0.0,0.0,0.0,0.0,0.0,0.0,0.0,0.0,0.0,0.0,0.0,0.0,0.0,0.0,0.0,0.0,0.0,0.0,0.0,0.0,0.0,0.0,0.0,0.0,0.0,0.0,0.0,0.0,0.0,0.0,0.0,0.0,0.0,0.0,0.0,0.0,0.0,0.0,0.0,0.0,0.0,0.0,0.0,0.0,0.0,0.0,0.0,0.0,0.0,0.0,0.0,0.0,0.0,0.0,0.0,0.0,0.0,0.0,0.0,0.0,0.0,0.0,0.0,0.0,0.0,0.0,0.0,0.0,0.0,0.0,0.0,0.0,0.0,0.0,0.0,0.0,0.0,0.0,0.0,0.0,0.0,0.0,0.0,0.0,0.0,0.0,0.0,0.0,0.0,0.0,0.0,0.0,0.0,0.0,0.0,0.0,0.0,0.0,0.0,0.0,0.0,0.0,0.0,0.0,0.0,0.0,0.0,0.0,0.0,0.0,0.0,0.0,0.0,0.0,0.0,0.0,0.0,0.0,0.0,0.0,0.0,0.0,0.0,0.0,0.0,0.0,0.0,0.0,0.0,0.0,0.0,0.0,0.0,0.0,0.0,0.0,0.0,0.0,0.0,0.0,0.0,0.0,0.0,0.0,0.0,0.0,0.0,0.0,0.0,0.0,0.0,0.0,0.0,0.0,0.0,0.0,0.0,0.0,0.0,0.0,0.0,0.0,0.0,0.0,0.0,1.2412,0.0,0.0,0.0,0.0,0.0,0.0,0.0,0.0,0.0,0.0,0.0,0.0,0.0,0.0,0.0,0.0,0.0,0.0,0.0,0.0,0.0,0.0,0.0,0.0,0.0,0.0,0.0,0.0,0.0,0.0,0.0,0.0,0.0,0.0,0.0,0.0,0.0,0.0,0.0,0.0,0.0,0.0,0.0,0.0,0.0,0.0,0.0,0.0,0.0,0.0,0.0,0.0,0.0,0.0,0.0,0.0,0.0,0.0,0.0,0.0,0.0,0.0,0.0,0.0,0.0,0.0,0.0,0.0,0.0,0.0,0.0,0.0,0.0,0.0,0.0,0.0,0.0,0.0,0.0,0.0,0.0,0.0,0.0,0.0,0.0,0.0,0.0,0.0,0.0,0.0,0.0,0.0,0.0,0.0,0.0,0.0,0.0,0.0,0.0,0.0,0.0,0.0,0.0,0.0,0.0,0.0,0.0,0.0,0.0,0.0,1.3953,1.3978,1.3952,1.3761,1.3312,0.0,0.0,0.0,0.0,0.0,0.0,0.0,0.0,0.0,0.0,0.0,0.0,0.0,0.0,0.0,0.0,0.0,0.0,0.0,0.0,0.0,0.0,0.0,0.0,0.0,0.0,0.0,0.0,0.0,0.0,0.0,0.0,0.0,0.0,0.0,0.0,0.0,0.0,0.0,0.0,0.0,0.0,0.0,0.0,0.0,0.0,0.0,0.0,0.0,0.0,0.0,0.0,0.0,0.0,0.0,0.0,0.0,0.0,0.0,0.0,0.0,0.0,0.0,0.0,0.0,0.0,0.0,0.0,0.0,0.0,0.0,0.0,0.0,0.0,0.0,0.0,0.0,0.0,0.0,0.0,0.0,0.0,0.0,0.0,0.0,0.0,0.0,0.0,0.0,0.0,0.0,0.0,0.0,0.0,0.0,0.0,0.0,0.0,0.0,0.0,0.0,0.0,0.0,0.0,0.0,0.0,0.0,0.0,0.0,0.0,0.0,0.0,1.5105,1.4817,1.4169,0.0,0.0,0.0,0.0,0.0,0.0,0.0,0.0,0.0,0.0,0.0,0.0,0.0,0.0,0.0,0.0,0.0,0.0,0.0,0.0,0.0,0.0,0.0,0.0,0.0,0.0,0.0,0.0,0.0,0.0,0.0,0.0,0.0,0.0,0.0,0.0,0.0,0.0,0.0,0.0,0.0,0.0,0.0,0.0,0.0,0.0,0.0,0.0,0.0,0.0,0.0,0.0,0.0,0.0,0.0,0.0,0.0,0.0,0.0,0.0,0.0,0.0,0.0,0.0,0.0,0.0,0.0,0.0,0.0,0.0,0.0,0.0,0.0,0.0,0.0,0.0,0.0,0.0,0.0,0.0,0.0,0.0,0.0,0.0,0.0,0.0,0.0,0.0,0.0,0.0,0.0,0.0,0.0,0.0,0.0,0.0,0.0,0.0,0.0,0.0,0.0,0.0,0.0,0.0,0.0,0.0,0.0,0.0,0.0,0.0,1.5107,1.5111,1.5114,0.0,1.4906,0.0,0.0,0.0,0.0,0.0,0.0,0.0,0.0,0.0,0.0,0.0,0.0,0.0,0.0,0.0,0.0,0.0,0.0,0.0,0.0,0.0,0.0,0.0,0.0,0.0,0.0,0.0,0.0,0.0,0.0,0.0,0.0,0.0,0.0,0.0,0.0,0.0,0.0,0.0,0.0,0.0,0.0,0.0,0.0,0.0,0.0,0.0,0.0,0.0,0.0,0.0,0.0,0.0,0.0,0.0,0.0,0.0,0.0,0.0,0.0,0.0,0.0,0.0,0.0,0.0,0.0,0.0,0.0,0.0,0.0,0.0,0.0,0.0,0.0,0.0,0.0,0.0,0.0,0.0,0.0,0.0,0.0,0.0,0.0,0.0,0.0,0.0,0.0,0.0,0.0,0.0,0.0,0.0,0.0,0.0,0.0,0.0,0.0,0.0,0.0,0.0,0.0,0.0,0.0,0.0,0.0,0.0,0.0,0.0,0.0,0.0,1.5859,1.5859,1.5642,0.0,0.0,0.0,0.0,0.0,0.0,0.0,0.0,0.0,0.0,0.0,0.0,0.0,0.0,0.0,0.0,0.0,0.0,0.0,0.0,0.0,0.0,0.0,0.0,0.0,0.0,0.0,0.0,0.0,0.0,0.0,0.0,0.0,0.0,0.0,0.0,0.0,0.0,0.0,0.0,0.0,0.0,0.0,0.0,0.0,0.0,0.0,0.0,0.0,0.0,0.0,0.0,0.0,0.0,0.0,0.0,0.0,0.0,0.0,0.0,0.0,0.0,0.0,0.0,0.0,0.0,0.0,0.0,0.0,0.0,0.0,0.0,0.0,0.0,0.0,0.0,0.0,0.0,0.0,0.0,0.0,0.0,0.0,0.0,0.0,0.0,0.0,0.0,0.0,0.0,0.0,0.0,0.0,0.0,0.0,0.0,0.0,0.0,0.0,0.0,0.0,0.0,0.0,0.0,0.0,0.0,0.0,0.0,0.0,0.0,1.5418,0.0,1.6385,1.6426,1.6038,1.5219,0.0,0.0,0.0,0.0,0.0,0.0,0.0,0.0,0.0,0.0,0.0,0.0,0.0,0.0,0.0,0.0,0.0,0.0,0.0,0.0,0.0,0.0,0.0,0.0,0.0,0.0,0.0,0.0,0.0,0.0,0.0,0.0,0.0,0.0,0.0,0.0,0.0,0.0,0.0,0.0,0.0,0.0,0.0,0.0,0.0,0.0,0.0,0.0,0.0,0.0,0.0,0.0,0.0,0.0,0.0,0.0,0.0,0.0,0.0,0.0,0.0,0.0,0.0,0.0,0.0,0.0,0.0,0.0,0.0,0.0,0.0,0.0,0.0,0.0,0.0,0.0,0.0,0.0,0.0,0.0,0.0,0.0,0.0,0.0,0.0,0.0,0.0,0.0,0.0,0.0,0.0,0.0,0.0,0.0,0.0,0.0,0.0,0.0,0.0,0.0,0.0,0.0,0.0,0.0,0.0,0.0,0.0,0.0,0.0,1.6022,1.6461,1.6474,1.6491,1.6094,0.0,0.0,0.0,0.0,0.0,0.0,0.0,0.0,0.0,0.0,0.0,0.0,0.0,0.0,0.0,0.0,0.0,0.0,0.0,0.0,0.0,0.0,0.0,0.0,0.0,0.0,0.0,0.0,0.0,0.0,0.0,0.0,0.0,0.0,0.0,0.0,0.0,0.0,0.0,0.0,0.0,0.0,0.0,0.0,0.0,0.0,0.0,0.0,0.0,0.0,0.0,0.0,0.0,0.0,0.0,0.0,0.0,0.0,0.0,0.0,0.0,0.0,0.0,0.0,0.0,0.0,0.0,0.0,0.0,0.0,0.0,0.0,0.0,0.0,0.0,0.0,0.0,0.0,0.0,0.0,0.0,0.0,0.0,0.0,0.0,0.0,0.0,0.0,0.0,0.0,0.0,0.0,0.0,0.0,0.0,0.0,0.0,0.0,0.0,0.0,0.0,0.0,0.0,0.0,0.0,0.0,0.0,0.0,0.0,1.5251,1.6584,1.6817,0.0,1.677,1.6662,0.0,0.0,0.0,0.0,0.0,0.0,0.0,0.0,0.0,0.0,0.0,0.0,0.0,0.0,0.0,0.0,0.0,0.0,0.0,0.0,0.0,0.0,0.0,0.0,0.0,0.0,0.0,0.0,0.0,0.0,0.0,0.0,0.0,0.0,0.0,0.0,0.0,0.0,0.0,0.0,0.0,0.0,0.0,0.0,0.0,0.0,0.0,0.0,0.0,0.0,0.0,0.0,0.0,0.0,0.0,0.0,0.0,0.0,0.0,0.0,0.0,0.0,0.0,0.0,0.0,0.0,0.0,0.0,0.0,0.0,0.0,0.0,0.0,0.0,0.0,0.0,0.0,0.0,0.0,0.0,0.0,0.0,0.0,0.0,0.0,0.0,0.0,0.0,0.0,0.0,0.0,0.0,0.0,0.0,0.0,0.0,0.0,0.0,0.0,0.0,0.0,0.0,0.0,0.0,0.0,0.0,0.0,0.0,0.0,1.6093,0.0,1.729,0.0,1.7234,1.7028,0.0,0.0,0.0,0.0,0.0,0.0,0.0,0.0,0.0,0.0,0.0,0.0,0.0,0.0,0.0,0.0,0.0,0.0,0.0,0.0,0.0,0.0,0.0,0.0,0.0,0.0,0.0,0.0,0.0,0.0,0.0,0.0,0.0,0.0,0.0,0.0,0.0,0.0,0.0,0.0,0.0,0.0,0.0,0.0,0.0,0.0,0.0,0.0,0.0,0.0,0.0,0.0,0.0,0.0,0.0,0.0,0.0,0.0,0.0,0.0,0.0,0.0,0.0,0.0,0.0,0.0,0.0,0.0,0.0,0.0,0.0,0.0,0.0,0.0,0.0,0.0,0.0,0.0,0.0,0.0,0.0,0.0,0.0,0.0,0.0,0.0,0.0,0.0,0.0,0.0,0.0,0.0,0.0,0.0,0.0,0.0,0.0,0.0,0.0,0.0,0.0,0.0,0.0,0.0,0.0,0.0,0.0,0.0,1.6138,1.7767,1.7892,1.7901,1.789,1.7881,1.709,0.0,0.0,0.0,0.0,0.0,0.0,0.0,0.0,0.0,0.0,0.0,0.0,0.0,0.0,0.0,0.0,0.0,0.0,0.0,0.0,0.0,0.0,0.0,0.0,0.0,0.0,0.0,0.0,0.0,0.0,0.0,0.0,0.0,0.0,0.0,0.0,0.0,0.0,0.0,0.0,0.0,0.0,0.0,0.0,0.0,0.0,0.0,0.0,0.0,0.0,0.0,0.0,0.0,0.0,0.0,0.0,0.0,0.0,0.0,0.0,0.0,0.0,0.0,0.0,0.0,0.0,0.0,0.0,0.0,0.0,0.0,0.0,0.0,0.0,0.0,0.0,0.0,0.0,0.0,0.0,0.0,0.0,0.0,0.0,0.0,0.0,0.0,0.0,0.0,0.0,0.0,0.0,0.0,0.0,0.0,0.0,0.0,0.0,0.0,0.0,0.0,0.0,0.0,0.0,0.0,0.0,0.0,0.0,0.0,1.7013,1.8171,1.853,1.8011,1.792,1.7363,0.0,0.0,0.0,0.0,0.0,0.0,0.0,0.0,0.0,0.0,0.0,0.0,0.0,0.0,0.0,0.0,0.0,0.0,0.0,0.0,0.0,0.0,0.0,0.0,0.0,0.0,0.0,0.0,0.0,0.0,0.0,0.0,0.0,0.0,0.0,0.0,0.0,0.0,0.0,0.0,0.0,0.0,0.0,0.0,0.0,0.0,0.0,0.0,0.0,0.0,0.0,0.0,0.0,0.0,0.0,0.0,0.0,0.0,0.0,0.0,0.0,0.0,0.0,0.0,0.0,0.0,0.0,0.0,0.0,0.0,0.0,0.0,0.0,0.0,0.0,0.0,0.0,0.0,0.0,0.0,0.0,0.0,0.0,0.0,0.0,0.0,0.0,0.0,0.0,0.0,0.0,0.0,0.0,0.0,0.0,0.0,0.0,0.0,0.0,0.0,0.0,0.0,0.0,0.0,0.0,0.0,0.0,0.0,0.0,1.7632,1.8682,1.8995,1.8494,1.8443,1.7864,1.6642,0.0,0.0,0.0,0.0,0.0,0.0,0.0,0.0,0.0,0.0,0.0,0.0,0.0,0.0,0.0,0.0,0.0,0.0,0.0,0.0,0.0,0.0,0.0,0.0,0.0,0.0,0.0,0.0,0.0,0.0,0.0,0.0,0.0,0.0,0.0,0.0,0.0,0.0,0.0,0.0,0.0,0.0,0.0,0.0,0.0,0.0,0.0,0.0,0.0,0.0,0.0,0.0,0.0,0.0,0.0,0.0,0.0,0.0,0.0,0.0,0.0,0.0,0.0,0.0,0.0,0.0,0.0,0.0,0.0,0.0,0.0,0.0,0.0,0.0,0.0,0.0,0.0,0.0,0.0,0.0,0.0,0.0,0.0,0.0,0.0,0.0,0.0,0.0,0.0,0.0,0.0,0.0,0.0,0.0,0.0,0.0,0.0,0.0,0.0,0.0,0.0,0.0,0.0,0.0,0.0,0.0,0.0,0.0,1.9414,1.943,1.9428,1.9371,1.9365,1.8552,0.0,0.0,0.0,0.0,0.0,0.0,0.0,0.0,0.0,0.0,0.0,0.0,0.0,0.0,0.0,0.0,0.0,0.0,0.0,0.0,0.0,0.0,0.0,0.0,0.0,0.0,0.0,0.0,0.0,0.0,0.0,0.0,0.0,0.0,0.0,0.0,0.0,0.0,0.0,0.0,0.0,0.0,0.0,0.0,0.0,0.0,0.0,0.0,0.0,0.0,0.0,0.0,0.0,0.0,0.0,0.0,0.0,0.0,0.0,0.0,0.0,0.0,0.0,0.0,0.0,0.0,0.0,0.0,0.0,0.0,0.0,0.0,0.0,0.0,0.0,0.0,0.0,0.0,0.0,0.0,0.0,0.0,0.0,0.0,0.0,0.0,0.0,0.0,0.0,0.0,0.0,0.0,0.0,0.0,0.0,0.0,0.0,0.0,0.0,0.0,0.0,0.0,0.0,0.0,0.0,0.0,0.0,0.0,0.0,2.107,2.1146,2.0855,2.0293,2.0251,1.9443,0.0,0.0,0.0,0.0,0.0,0.0,0.0,0.0,0.0,0.0,0.0,0.0,0.0,0.0,0.0,0.0,0.0,0.0,0.0,0.0,0.0,0.0,0.0,0.0,0.0,0.0,0.0,0.0,0.0,0.0,0.0,0.0,0.0,0.0,0.0,0.0,0.0,0.0,0.0,0.0,0.0,0.0,0.0,0.0,0.0,0.0,0.0,0.0,0.0,0.0,0.0,0.0,0.0,0.0,0.0,0.0,0.0,0.0,0.0,0.0,0.0,0.0,0.0,0.0,0.0,0.0,0.0,0.0,0.0,0.0,0.0,0.0,0.0,0.0,0.0,0.0,0.0,0.0,0.0,0.0,0.0,0.0,0.0,0.0,0.0,0.0,0.0,0.0,0.0,0.0,0.0,0.0,0.0,0.0,0.0,0.0,0.0,0.0,0.0,0.0,0.0,0.0,0.0,0.0,0.0,0.0,0.0,0.0,2.0482,2.1761,2.2515,2.2499,2.167,2.1289,2.0115,0.0,0.0,0.0,0.0,0.0,0.0,0.0,0.0,0.0,0.0,0.0,0.0,0.0,0.0,0.0,0.0,0.0,0.0,0.0,0.0,0.0,0.0,0.0,0.0,0.0,0.0,0.0,0.0,0.0,0.0,0.0,0.0,0.0,0.0,0.0,0.0,0.0,0.0,0.0,0.0,0.0,0.0,0.0,0.0,0.0,0.0,0.0,0.0,0.0,0.0,0.0,0.0,0.0,0.0,0.0,0.0,0.0,0.0,0.0,0.0,0.0,0.0,0.0,0.0,0.0,0.0,0.0,0.0,0.0,0.0,0.0,0.0,0.0,0.0,0.0,0.0,0.0,0.0,0.0,0.0,0.0,0.0,0.0,0.0,0.0,0.0,0.0,0.0,0.0,0.0,0.0,0.0,0.0,0.0,0.0,0.0,0.0,0.0,0.0,0.0,0.0,0.0,0.0,0.0,0.0,0.0,0.0,0.0,2.1114,2.1939,2.3538,2.4027,2.3251,2.2394,2.0781,0.0,0.0,0.0,0.0,0.0,0.0,0.0,0.0,0.0,0.0,0.0,0.0,0.0,0.0,0.0,0.0,0.0,0.0,0.0,0.0,0.0,0.0,0.0,0.0,0.0,0.0,0.0,0.0,0.0,0.0,0.0,0.0,0.0,0.0,0.0,0.0,0.0,0.0,0.0,0.0,0.0,0.0,0.0,0.0,0.0,0.0,0.0,0.0,0.0,0.0,0.0,0.0,0.0,0.0,0.0,0.0,0.0,0.0,0.0,0.0,0.0,0.0,0.0,0.0,0.0,0.0,0.0,0.0,0.0,0.0,0.0,0.0,0.0,0.0,0.0,0.0,0.0,0.0,0.0,0.0,0.0,0.0,0.0,0.0,0.0,0.0,0.0,0.0,0.0,0.0,0.0,0.0,0.0,0.0,0.0,0.0,0.0,0.0,0.0,0.0,0.0,0.0,0.0,0.0,0.0,0.0,0.0,0.0,2.1961,2.2812,2.3858,2.4308,2.4126,2.3273,2.1933,0.0,0.0,0.0,0.0,0.0,0.0,0.0,0.0,0.0,0.0,0.0,0.0,0.0,0.0,0.0,0.0,0.0,0.0,0.0,0.0,0.0,0.0,0.0,0.0,0.0,0.0,0.0,0.0,0.0,0.0,0.0,0.0,0.0,0.0,0.0,0.0,0.0,0.0,0.0,0.0,0.0,0.0,0.0,0.0,0.0,0.0,0.0,0.0,1.3906,0.0,0.0,0.0,0.0,0.0,0.0,0.0,0.0,0.0,0.0,0.0,0.0,0.0,0.0,0.0,0.0,0.0,0.0,0.0,0.0,0.0,0.0,0.0,0.0,0.0,0.0,0.0,0.0,0.0,0.0,0.0,0.0,0.0,0.0,0.0,0.0,0.0,0.0,0.0,0.0,0.0,0.0,0.0,0.0,0.0,0.0,0.0,0.0,0.0,0.0,0.0,0.0,0.0,0.0,0.0,0.0,0.0,0.0,0.0,2.2647,2.3109,2.4331,2.4787,2.4399,2.3562,2.2264,0.0,0.0,0.0,0.0,0.0,0.0,0.0,0.0,0.0,0.0,0.0,0.0,0.0,0.0,0.0,0.0,0.0,0.0,0.0,0.0,0.0,0.0,0.0,0.0,0.0,0.0,0.0,0.0,0.0,0.0,0.0,0.0,0.0,0.0,0.0,0.0,0.0,0.0,0.0,0.0,0.0,0.0,0.0,0.0,0.0,0.0,0.0,0.0,0.0,0.0,0.0,0.0,0.0,0.0,0.0,0.0,0.0,0.0,0.0,0.0,0.0,0.0,0.0,0.0,0.0,0.0,0.0,0.0,0.0,0.0,0.0,0.0,0.0,0.0,0.0,0.0,0.0,0.0,0.0,0.0,0.0,0.0,0.0,0.0,0.0,0.0,0.0,0.0,0.0,0.0,0.0,0.0,0.0,0.0,0.0,0.0,0.0,0.0,0.0,0.0,0.0,0.0,0.0,0.0,0.0,0.0,0.0,2.1427,2.3097,2.3153,2.4748,2.521,2.4418,2.3576,2.236,2.074,0.0,0.0,0.0,0.0,0.0,0.0,0.0,0.0,0.0,0.0,0.0,0.0,0.0,0.0,0.0,0.0,0.0,0.0,0.0,0.0,0.0,0.0,0.0,0.0,0.0,0.0,0.0,0.0,0.0,0.0,0.0,0.0,0.0,0.0,0.0,0.0,0.0,0.0,1.0484,1.2329,0.0,0.0,0.0,0.0,0.0,0.0,0.0,0.0,1.4802,0.0,0.0,0.0,0.0,0.0,0.0,0.0,0.0,0.0,0.0,0.0,0.0,0.0,0.0,0.0,0.0,0.0,0.0,0.0,0.0,0.0,0.0,0.0,0.0,0.0,0.0,0.0,0.0,0.0,0.0,0.0,0.0,0.0,0.0,0.0,0.0,0.0,0.0,0.0,0.0,0.0,0.0,0.0,0.0,0.0,0.0,0.0,0.0,0.0,0.0,0.0,0.0,0.0,0.0,0.0,0.0,1.9013,2.1706,2.3106,2.3134,2.473,2.521,2.4418,2.3553,2.263,2.1562,0.0,0.0,0.0,0.0,0.0,0.0,0.0,0.0,0.0,0.0,0.0,0.0,0.0,0.0,0.0,0.0,0.0,0.0,0.0,0.0,0.0,0.0,0.0,0.0,0.0,0.0,0.0,0.0,0.0,0.0,0.0,0.0,0.0,0.0,0.0,0.0,0.0,0.0,0.0,1.4035,1.5242,0.0,0.0,0.0,0.0,0.0,0.0,0.0,0.0,1.6028,0.0,0.0,0.0,0.0,0.0,0.0,0.0,0.0,0.0,0.0,0.0,0.0,0.0,0.0,0.0,0.0,0.0,0.0,0.0,0.0,0.0,0.0,0.0,0.0,0.0,0.0,0.0,0.0,0.0,0.0,0.0,0.0,0.0,0.0,0.0,0.0,0.0,0.0,0.0,0.0,0.0,0.0,0.0,0.0,0.0,0.0,0.0,0.0,0.0,0.0,0.0,0.0,0.0,0.0,0.0,1.9294,2.1733,2.3035,2.3106,2.4705,2.4996,2.3779,2.3309,2.2294,0.0,0.0,0.0,0.0,0.0,0.0,0.0,0.0,0.0,0.0,0.0,0.0,0.0,0.0,0.0,0.0,0.0,0.0,0.0,0.0,0.0,0.0,0.0,0.0,0.0,0.0,0.0,0.0,0.0,0.0,0.0,0.0,0.0,0.0,0.0,0.0,0.0,0.0,0.0,0.0,1.4753,1.5809,1.687,0.0,0.0,0.0,0.0,0.0,0.0,1.7362,1.7053,0.0,0.0,0.0,0.0,0.0,0.0,0.0,0.0,0.0,0.0,0.0,0.0,0.0,0.0,0.0,0.0,0.0,0.0,0.0,0.0,0.0,0.0,0.0,0.0,0.0,0.0,0.0,0.0,0.0,0.0,0.0,0.0,0.0,0.0,0.0,0.0,0.0,0.0,0.0,0.0,0.0,0.0,0.0,0.0,0.0,0.0,0.0,0.0,0.0,0.0,0.0,0.0,0.0,0.0,0.0,1.9738,2.1865,2.3054,2.3301,2.4794,2.4798,2.3176,2.3104,2.1899,0.0,0.0,0.0,0.0,0.0,0.0,0.0,0.0,0.0,0.0,0.0,0.0,0.0,0.0,0.0,0.0,0.0,0.0,0.0,0.0,0.0,0.0,0.0,0.0,0.0,0.0,0.0,0.0,0.0,0.0,0.0,0.0,0.0,0.0,0.0,0.0,0.0,0.0,0.0,0.0,0.0,1.6352,1.7468,1.7866,0.0,0.0,0.0,0.0,1.8274,1.809,0.0,0.0,0.0,0.0,0.0,0.0,0.0,0.0,0.0,0.0,0.0,0.0,0.0,0.0,0.0,0.0,0.0,0.0,0.0,0.0,0.0,0.0,0.0,0.0,0.0,0.0,0.0,0.0,0.0,0.0,0.0,0.0,0.0,0.0,0.0,0.0,0.0,0.0,0.0,0.0,0.0,0.0,0.0,0.0,0.0,0.0,0.0,0.0,0.0,0.0,0.0,0.0,0.0,0.0,0.0,0.0,2.1344,2.2398,2.3273,2.4061,2.5065,2.4804,2.3166,2.3097,2.1892,0.0,0.0,0.0,0.0,0.0,0.0,0.0,0.0,0.0,0.0,0.0,0.0,0.0,0.0,0.0,0.0,0.0,0.0,0.0,0.0,0.0,0.0,0.0,0.0,0.0,0.0,0.0,0.0,0.0,0.0,0.0,0.0,0.0,0.0,0.0,0.0,0.0,0.0,0.0,0.0,0.0,1.7452,1.7735,1.8333,1.8835,0.0,0.0,1.9169,1.913,1.8537,0.0,0.0,0.0,0.0,0.0,0.0,0.0,0.0,0.0,0.0,0.0,0.0,0.0,0.0,0.0,0.0,0.0,0.0,0.0,0.0,0.0,0.0,0.0,0.0,0.0,0.0,0.0,0.0,0.0,0.0,0.0,0.0,0.0,0.0,0.0,0.0,0.0,0.0,0.0,0.0,0.0,0.0,0.0,0.0,0.0,0.0,0.0,0.0,0.0,0.0,0.0,0.0,0.0,0.0,0.0,1.9097,2.1568,2.2446,2.3261,2.413,2.5048,2.4739,2.3103,2.3073,2.1684,0.0,0.0,0.0,0.0,0.0,0.0,0.0,0.0,0.0,0.0,0.0,0.0,0.0,0.0,0.0,0.0,0.0,0.0,0.0,0.0,0.0,0.0,0.0,0.0,0.0,0.0,0.0,0.0,0.0,0.0,0.0,0.0,0.0,0.0,0.0,0.0,0.0,0.0,0.0,0.0,0.0,0.0,1.8931,1.9374,0.0,0.0,0.0,2.0331,1.9928,0.0,0.0,0.0,0.0,0.0,0.0,0.0,0.0,0.0,0.0,0.0,0.0,0.0,0.0,0.0,0.0,0.0,0.0,0.0,0.0,0.0,0.0,0.0,0.0,0.0,0.0,0.0,0.0,0.0,0.0,0.0,0.0,0.0,0.0,0.0,0.0,0.0,0.0,0.0,0.0,0.0,0.0,0.0,0.0,0.0,0.0,0.0,0.0,0.0,0.0,0.0,0.0,0.0,0.0,0.0,0.0,0.0,2.1821,2.2472,2.3324,2.4377,2.5116,2.4659,2.3053,2.304,0.0,0.0,0.0,0.0,0.0,0.0,0.0,0.0,0.0,0.0,0.0,0.0,0.0,0.0,0.0,0.0,0.0,0.0,0.0,0.0,0.0,0.0,0.0,0.0,0.0,0.0,0.0,0.9441,0.0,0.0,0.0,0.0,0.0,0.0,0.0,0.0,0.0,0.0,0.0,0.0,0.0,0.0,1.8649,1.9884,2.0298,2.0634,0.0,0.0,2.1207,2.0659,2.0022,1.9355,0.0,0.0,0.0,0.0,0.0,0.0,0.0,0.0,0.0,0.0,0.0,0.0,0.0,0.0,0.0,0.0,0.0,0.0,0.0,0.0,0.0,0.0,0.0,0.0,0.0,0.0,0.0,0.0,0.0,0.0,0.0,0.0,0.0,0.0,0.0,0.0,0.0,0.0,0.0,0.0,0.0,0.0,0.0,0.0,0.0,0.0,0.0,0.0,0.0,0.0,0.0,0.0,0.0,0.0,0.0,2.2493,2.2747,2.3573,2.5129,2.534,2.459,2.2975,2.2985,2.1774,0.0,0.0,0.0,0.0,0.0,0.0,0.0,0.0,0.0,0.0,0.0,0.0,0.0,0.0,0.0,0.0,0.0,0.0,0.0,0.0,0.0,0.0,0.0,0.0,0.0,0.0,0.0,0.0,0.0,0.0,0.0,0.0,0.0,0.0,0.0,0.0,0.0,0.0,0.0,0.0,0.0,1.9298,2.0086,2.0732,2.1166,0.0,0.0,2.1385,2.1321,2.0751,2.0279,2.0155,0.0,0.0,0.0,0.0,0.0,0.0,0.0,0.0,0.0,0.0,0.0,0.0,0.0,0.0,0.0,0.0,0.0,0.0,0.0,0.0,0.0,0.0,0.0,0.0,0.0,0.0,0.0,0.0,0.0,0.0,0.0,0.0,0.0,0.0,0.0,0.0,0.0,0.0,0.0,0.0,0.0,0.0,0.0,0.0,0.0,0.0,0.0,0.0,0.0,0.0,0.0,0.0,0.0,1.9284,2.2569,2.2684,2.3517,2.516,2.5248,2.4485,2.2879,2.2898,2.1755,0.0,0.0,0.0,0.0,0.0,0.0,0.0,0.0,0.0,0.0,0.0,0.0,0.0,0.0,0.0,0.0,0.0,0.0,0.0,0.0,0.0,0.0,0.0,0.0,0.0,0.0,0.0,0.0,1.1282,1.1641,1.2607,0.0,0.0,0.0,0.0,0.0,0.0,0.0,0.0,0.0,0.0,2.0241,2.0853,2.1162,0.0,0.0,2.1324,2.134,2.134,2.0773,2.0319,2.0287,1.9573,0.0,0.0,0.0,0.0,0.0,0.0,0.0,0.0,0.0,0.0,0.0,0.0,0.0,0.0,0.0,0.0,0.0,0.0,0.0,0.0,0.0,0.0,0.0,0.0,0.0,0.0,0.0,0.0,0.0,0.0,0.0,0.0,0.0,0.0,0.0,0.0,0.0,0.0,0.0,0.0,0.0,0.0,0.0,0.0,0.0,0.0,0.0,0.0,0.0,0.0,0.0,0.0,1.9483,2.2566,2.2604,2.3441,2.5137,2.5176,2.4556,2.3219,2.2956,2.1945,0.0,0.0,0.0,0.0,0.0,0.0,0.0,0.0,0.0,0.0,0.0,0.0,0.0,0.0,0.0,0.0,0.0,0.0,0.0,0.0,0.0,0.0,0.0,0.0,0.0,0.0,0.0,0.0,1.2381,1.2592,1.2793,0.0,0.0,0.0,0.0,0.0,0.0,0.0,0.0,0.0,0.0,2.098,2.1737,2.1821,2.1872,2.2037,2.2037,2.194,2.1697,2.1259,2.0886,2.0629,0.0,0.0,0.0,0.0,0.0,0.0,0.0,0.0,0.0,0.0,0.0,0.0,0.0,0.0,0.0,0.0,0.0,0.0,0.0,0.0,0.0,0.0,0.0,0.0,0.0,0.0,0.0,0.0,0.0,0.0,1.4729,0.0,0.0,0.0,0.0,0.0,0.0,0.0,0.0,0.0,0.0,0.0,0.0,0.0,0.0,0.0,0.0,0.0,0.0,0.0,0.0,0.0,0.0,2.0034,2.2557,2.2627,2.3427,2.5051,2.5156,2.4804,2.3976,2.3221,2.2439,2.1587,0.0,0.0,0.0,0.0,0.0,0.0,0.0,0.0,0.0,0.0,0.0,0.0,0.0,0.0,0.0,0.0,0.0,0.0,0.0,0.0,0.0,0.0,0.0,0.0,0.0,0.0,1.3102,1.3762,1.3795,0.0,0.0,0.0,0.0,0.0,0.0,0.0,0.0,0.0,0.0,2.0525,2.1375,2.2658,2.2796,2.2963,2.3605,2.367,2.3358,2.2606,2.2476,2.2183,0.0,0.0,0.0,0.0,0.0,0.0,0.0,0.0,0.0,0.0,0.0,0.0,0.0,0.0,0.0,0.0,0.0,0.0,0.0,0.0,0.0,0.0,0.0,0.0,0.0,0.0,0.0,1.7253,1.6826,0.0,0.0,0.0,0.0,0.0,0.0,0.0,0.0,0.0,0.0,0.0,2.143,2.1731,0.0,0.0,0.0,0.0,0.0,0.0,0.0,0.0,0.0,0.0,0.0,0.0,2.0507,2.2388,2.3,2.3834,2.498,2.5063,2.4699,2.3959,2.3198,2.1937,2.0104,0.0,0.0,0.0,0.0,0.0,0.0,0.0,0.0,0.0,0.0,0.0,0.0,0.0,0.0,0.0,0.0,0.0,0.0,0.0,0.0,0.0,0.0,0.0,0.0,0.0,1.3177,0.0,0.0,0.0,0.0,0.0,0.0,0.0,0.0,0.0,0.0,0.0,2.0362,2.0987,2.1652,2.2368,2.3135,2.3135,2.3295,0.0,0.0,0.0,0.0,0.0,0.0,0.0,0.0,0.0,0.0,0.0,0.0,0.0,0.0,1.9737,1.8688,1.8045,1.765,1.7617,0.0,0.0,0.0,0.0,0.0,0.0,0.0,0.0,0.0,0.0,0.0,0.0,0.0,0.0,1.9784,0.0,1.9109,0.0,0.0,0.0,0.0,0.0,0.0,0.0,0.0,2.1596,2.2025,2.2335,2.241,2.2337,0.0,2.2221,2.1086,0.0,0.0,0.0,0.0,0.0,0.0,0.0,0.0,2.1067,2.2684,2.3288,2.3997,2.4879,2.4972,2.4784,2.432,2.3324,2.1675,1.9245,1.8674,1.7888,0.0,0.0,0.0,0.0,0.0,0.0,0.0,0.0,0.0,0.0,0.0,0.0,0.0,0.0,0.0,0.0,0.0,0.0,0.0,0.0,0.0,0.0,0.0,1.4095,0.0,0.0,0.0,0.0,0.0,0.0,0.0,0.0,0.0,1.9727,2.0619,2.1398,2.175,2.2628,2.3448,2.3947,0.0,0.0,0.0,0.0,0.0,0.0,0.0,2.4248,2.3885,2.3718,2.3583,2.3462,2.3062,2.2559,2.1921,0.0,0.0,1.9494,1.8803,1.8418,1.8352,1.8497,1.8577,1.8554,1.8676,1.8785,0.0,0.0,0.0,0.0,0.0,0.0,0.0,0.0,2.2043,2.2066,0.0,2.1337,0.0,0.0,0.0,0.0,0.0,2.11,0.0,0.0,2.241,2.2822,2.3535,2.3743,2.3438,2.2743,2.293,2.2584,2.1732,2.0478,0.0,0.0,0.0,0.0,0.0,0.0,2.1763,2.3311,2.3499,2.3953,2.4768,2.4917,2.5012,2.4992,2.3583,2.1666,1.9347,1.9187,1.8447,1.6858,1.6715,0.0,0.0,0.0,0.0,0.0,0.0,0.0,0.0,0.0,0.0,0.0,0.0,0.0,0.0,0.0,0.0,0.0,0.0,0.0,0.0,1.4281,0.0,0.0,0.0,0.0,0.0,0.0,0.0,0.0,0.0,0.0,2.0261,2.1455,2.2339,2.232,0.0,0.0,0.0,0.0,2.6318,2.69,2.689,2.6487,2.5597,2.5447,2.5129,2.4166,0.0,0.0,2.3459,2.3175,2.2975,2.2834,2.2559,2.1826,2.0219,1.9906,1.9855,1.9786,2.0143,2.0485,2.0555,2.0793,2.1173,2.3723,0.0,0.0,0.0,0.0,2.3253,2.3778,2.422,2.411,2.3746,2.3214,2.3068,0.0,0.0,0.0,0.0,0.0,0.0,2.3501,2.4257,2.4322,2.4528,2.4786,2.4941,2.4953,2.4801,2.4962,2.4651,2.3905,2.3094,2.2332,2.1599,0.0,0.0,0.0,0.0,2.272,2.3192,2.3826,2.4318,2.4654,2.4798,2.4655,2.4259,2.3295,2.2195,2.0933,1.9796,1.8995,1.848,1.7351,0.0,0.0,0.0,0.0,0.0,0.0,0.0,0.0,0.0,0.0,0.0,0.0,0.0,0.0,0.0,0.0,0.0,0.0,0.0,1.5311,1.5563,1.5991,0.0,0.0,0.0,0.0,0.0,0.0,0.0,0.0,0.0,2.3015,2.327,2.3605,0.0,0.0,2.5783,2.6402,2.6517,2.6769,2.74,0.0,0.0,0.0,2.6502,2.6269,2.5883,2.5593,2.5294,2.4984,2.4689,2.4287,2.3752,2.3415,2.2871,2.1857,2.1398,2.1216,2.1227,2.1295,2.1356,2.1371,2.1456,2.1475,2.5769,2.4835,2.3895,2.3782,2.4223,2.4783,2.5302,2.5752,2.543,2.5037,2.4596,2.4188,2.3779,2.3397,2.3484,0.0,0.0,0.0,2.4477,2.4951,2.5008,2.5065,2.5108,2.5313,2.5423,2.5517,2.5683,2.5561,2.5117,2.4525,2.384,2.3041,0.0,0.0,2.2304,2.2783,2.317,2.351,2.4053,2.4391,2.4508,2.4716,2.4528,2.3868,2.3456,2.2717,2.1594,2.0656,1.9849,1.9213,1.7897,1.6785,0.0,0.0,0.0,0.0,0.0,0.0,0.0,0.0,0.0,0.0,0.0,1.3247,0.0,0.0,0.0,0.0,1.4975,1.5801,1.6611,1.6654,0.0,0.0,0.0,0.0,0.0,0.0,0.0,2.2314,2.3169,2.395,2.4718,2.5267,2.5565,2.5543,2.6209,2.6814,2.7155,0.0,2.752,2.7894,2.7701,2.7476,2.7353,2.7197,2.6989,2.6708,2.6382,2.6045,2.5789,2.5508,2.5118,2.4672,2.4353,2.3979,2.3456,2.3051,2.2555,2.2022,2.2029,2.2129,2.2129,2.2243,2.2319,2.7398,2.7301,2.6042,2.5445,2.5437,2.6086,2.6463,2.6661,2.6229,2.6067,2.6043,2.5063,2.4608,2.4657,2.4832,0.0,2.5002,2.4934,2.4934,2.4933,2.4957,2.4951,2.4966,2.5236,2.5351,2.5351,2.5626,2.5707,2.5632,2.5188,2.4914,2.4806,2.2978,2.2356,2.2949,2.2968,2.3343,2.4084,2.4153,2.4266,2.4425,2.4727,2.4585,2.3929,2.3902,2.3169,2.1686,2.1578,2.0894,1.9372,1.8468,1.7622,1.6806,0.0,0.0,0.0,0.0,0.0,0.0,0.0,0.0,0.0,0.0,0.0,0.0,0.0,0.0,0.0,1.5998,0.0,1.7731,1.774,0.0,0.0,0.0,2.0721,2.224,2.237,2.2615,2.3436,0.0,0.0,2.5736,0.0,2.7769,2.6843,2.7302,2.7679,2.7621,2.8079,2.8393,2.8327,2.8168,2.7954,2.7763,2.7569,2.7308,2.6891,2.6556,2.6261,2.6081,2.5789,2.5581,2.5387,2.5185,2.4974,2.4989,2.4536,2.3897,2.2517,2.2601,2.2892,2.2887,2.3194,2.3432,2.9202,2.924,2.8425,2.7627,2.6858,2.6855,2.7089,2.7484,2.7295,2.721,2.7198,2.7142,2.7257,2.7498,2.759,2.7661,2.7645,2.7075,2.6892,2.6961,2.6471,2.6298,2.6397,2.6527,2.6603,2.6664,2.6881,2.6673,2.6173,2.6259,2.6016,2.5425,2.5058,2.445,2.3611,2.3585,2.3715,2.3947,2.4016,2.4173,2.4459,2.47,2.4788,2.4708,2.4184,2.3445,2.245,2.1883,2.1143,2.0152,1.9331,1.8491,1.7645,1.6643,0.0,0.0,0.0,0.0,0.0,0.0,0.0,0.0,0.0,1.6036,1.6171,0.0,1.7152,0.0,1.7295,1.7963,1.9442,1.9583,0.0,0.0,2.1961,2.2289,2.3201,2.3813,2.446,2.5266,2.6003,2.6792,2.7634,2.8035,2.836,2.8582,2.8647,2.8666,2.8661,2.8615,2.8594,2.8536,2.8393,2.8232,2.8025,2.7721,2.7404,2.7086,2.6808,2.6539,2.6348,2.6046,2.577,2.5645,2.5454,2.5243,2.5045,2.4906,2.4632,2.4039,2.3737,2.3571,2.3556,2.3591,2.3588,2.963,2.9735,2.9426,2.9006,2.8501,2.7821,2.7766,2.8131,2.7778,2.7732,2.7806,2.7867,2.8023,2.8295,2.8376,2.8472,2.8515,2.8133,2.8005,2.8063,2.7715,2.7618,2.774,2.781,2.7726,2.7519,2.7683,2.7366,2.6686,2.6609,2.6353,2.591,2.5773,2.536,2.4675,2.4764,2.4668,2.4357,2.4148,2.4172,2.4392,2.4615,2.478,2.4912,2.4569,2.4032,2.3264,2.2489,2.174,2.094,1.9799,1.8932,1.8491,1.7692,1.683,0.0,0.0,0.0,0.0,0.0,0.0,0.0,0.0,0.0,0.0,0.0,1.8156,0.0,1.8936,1.9584,2.125,2.1421,2.1905,2.315,2.3232,2.3648,2.4714,2.5226,2.5771,2.6564,2.7312,2.7951,2.8422,2.8736,2.9036,2.9397,2.9249,2.9104,2.9044,2.8917,2.8798,2.87,2.8592,2.8393,2.8182,2.785,2.7569,2.7355,2.7086,2.6808,2.659,2.6314,2.6099,2.5954,2.5717,2.5492,2.5314,2.5084,2.4906,2.4666,2.4302,2.403,2.3903,2.376,2.3674,2.9542,2.9692,2.9726,2.9873,2.997,2.8855,2.8544,2.8766,2.8163,2.8028,2.8211,2.8003,2.8037,2.8221,2.8362,2.852,2.868,2.8616,2.8605,2.8665,2.86,2.8643,2.8755,2.8829,2.8584,2.8116,2.8135,2.7826,2.7224,2.6671,2.6412,2.6393,2.5995,2.5822,2.5954,2.6222,2.5931,2.5077,2.452,2.4299,2.4413,2.4518,2.4645,2.4798,2.491,2.4638,2.3915,2.3217,2.2465,2.1594,2.0185,1.9331,1.9189,1.8473,1.8048,0.0,1.7992,0.0,0.0,0.0,0.0,0.0,0.0,0.0,0.0,1.8259,1.9047,2.0612,2.0734,2.1377,2.2934,2.3069,2.3415,2.4173,2.4325,2.4894,2.6241,2.6536,2.6917,2.7587,2.8336,2.8796,2.8841,2.9322,2.9692,2.9589,2.9481,2.9301,2.9156,2.9062,2.894,2.8834,2.87,2.8484,2.8264,2.8007,2.7806,2.7615,2.7371,2.7101,2.6891,2.6624,2.64,2.6274,2.599,2.5719,2.5637,2.5298,2.5025,2.4862,2.4564,2.4297,2.4067,2.3903,2.376,3.0514,3.0732,3.0215,3.0177,3.0325,2.957,2.9505,2.9863,2.9304,2.9019,2.8893,2.8971,2.9131,2.9366,2.9583,2.969,2.9683,2.9214,2.9017,2.9065,2.8566,2.8434,2.8548,2.8624,2.8669,2.8612,2.8112,2.7861,2.7828,2.7241,2.6974,2.7037,2.7083,2.721,2.732,0.0,0.0,0.0,2.5277,2.5024,2.5099,2.4671,2.4526,2.4704,2.4842,0.0,2.3858,2.3732,2.2995,2.1529,2.1181,0.0,0.0,0.0,0.0,0.0,0.0,0.0,0.0,0.0,0.0,0.0,2.0291,2.0472,1.9137,2.0262,2.1489,2.2476,2.2547,2.2928,2.3919,2.403,2.4335,2.5145,2.5785,2.6303,2.6583,2.7675,2.8556,2.8624,2.9329,2.9768,2.9669,2.9801,2.9809,2.9701,2.9645,2.9531,2.9301,2.916,2.9062,2.8952,2.8749,2.8523,2.8313,2.8191,2.8011,2.7745,2.76,2.7402,2.7165,2.6907,2.6674,2.6537,2.6293,2.6025,2.5735,2.5565,2.5352,2.5025,2.4826,2.46,2.4265,2.3982,2.3797,3.0567,0.0,3.0485,3.0528,0.0,3.0488,3.0548,3.0791,3.0086,2.9805,2.9844,2.9738,2.976,2.9883,2.9797,2.9792,2.9842,2.9561,2.9505,2.9573,2.9354,2.9332,2.9493,2.9516,2.9451,2.9238,2.8981,2.8481,2.7859,2.764,2.7382,2.7072,2.7246,2.7432,2.7615,2.7968,2.7669,2.6706,2.6068,2.5579,2.5262,2.503,2.4781,2.4572,0.0,0.0,0.0,0.0,0.0,0.0,0.0,0.0,0.0,0.0,0.0,1.9191,1.919,1.923,1.926,2.0054,2.0551,2.0555,2.1717,2.2067,2.1203,2.1945,2.281,2.364,2.3716,2.4023,2.4832,2.4953,2.5288,2.6088,2.6516,2.7017,2.785,2.8611,2.9233,2.9589,2.9984,3.0157,3.0076,2.9972,2.9929,2.9816,2.9738,2.9636,2.9472,2.931,2.916,2.9028,2.8773,2.8562,2.8458,2.8304,2.8168,2.7968,2.7777,2.76,2.7432,2.7181,2.694,2.6725,2.6537,2.6293,2.6025,2.5789,2.553,2.522,2.5021,2.4782,2.4416,2.4151,2.3961,3.0492,3.0681,3.0712,3.0834,3.1014,3.119,3.1365,3.1506,0.0,0.0,0.0,3.0297,3.0217,3.0234,2.9806,2.9671,2.9807,2.978,2.9804,2.9924,3.006,3.0231,3.0401,3.0447,3.0257,2.9855,2.9839,2.9244,2.8122,2.8012,2.7657,2.7147,2.7156,2.7277,2.7526,2.7925,2.7911,2.7468,2.6826,2.615,2.5404,2.5387,2.5058,2.4392,2.4501,2.4654,2.4842,2.4248,2.3879,2.3781,2.3215,2.2551,2.1792,2.1787,2.1527,2.092,2.0881,2.0934,2.0953,2.1609,2.207,2.224,2.292,2.334,2.3323,2.3334,2.3697,2.4562,2.4624,2.4914,2.5561,2.5767,2.6121,2.6829,2.7113,2.7837,2.9081,2.9434,2.9722,3.0279,3.0349,3.0286,3.0213,3.0113,3.0014,2.9924,2.9816,2.9683,2.9579,2.9392,2.9214,2.9021,2.881,2.865,2.8592,2.8419,2.8264,2.8168,2.7968,2.7777,2.7615,2.7432,2.7181,2.6906,2.6742,2.6538,2.6292,2.6008,2.5698,2.541,2.5182,2.4966,2.4661,2.441,2.4187,3.1269,3.0942,3.113,3.0998,3.0702,3.0984,3.1366,3.1724,3.1259,3.0898,3.0603,3.0561,3.0641,3.0851,3.0266,3.0109,3.0274,2.9767,2.9563,0.0,2.976,2.9875,2.9919,3.0236,3.0414,3.0348,2.9869,2.961,2.9467,2.8342,2.7756,2.776,2.7315,2.7215,2.7554,2.7777,2.7926,2.804,2.7529,2.6879,2.615,2.5585,2.4959,2.4266,2.4364,2.4491,2.4639,2.4688,2.442,2.3765,2.3717,2.3356,2.2603,2.2602,2.2597,2.2546,2.2559,2.2583,2.2632,2.2753,2.3174,2.3949,2.416,2.4215,2.4215,2.4211,2.4577,2.541,2.5504,2.554,2.5711,2.6316,2.6807,2.7028,2.8196,2.9149,2.9426,2.9984,3.0361,3.0462,3.0425,3.0368,3.0305,3.0213,3.0121,3.0014,2.9901,2.9773,2.9569,2.9341,2.9178,2.904,2.8917,2.8779,2.865,2.8574,2.845,2.8241,2.8154,2.8011,2.7763,2.76,2.7432,2.7181,2.6973,2.6691,2.6435,2.6241,2.5989,2.5637,2.541,2.5182,2.4946,2.4661,2.4374,3.15,3.1407,3.149,3.1309,3.0984,3.1072,3.1292,3.1638,3.155,3.1512,3.1432,3.1252,3.1213,3.1254,3.0726,3.0577,3.0709,3.0093,2.9909,2.9947,2.9746,2.9694,2.9793,2.9984,3.0194,3.0426,3.0212,2.9972,2.9697,2.9158,2.8546,2.7859,2.7316,2.7215,2.7481,2.7657,2.7864,2.8081,2.7955,2.7331,2.6228,2.5928,2.5272,2.418,2.4284,2.4418,2.4543,2.4704,2.4643,2.4289,2.4423,2.413,2.3367,2.337,2.3232,2.2878,2.2863,2.2872,2.2942,2.3428,2.4085,2.4953,2.509,2.511,2.5111,2.5117,2.5252,2.5679,2.6106,2.6417,2.6431,2.7163,2.7831,2.8262,2.9031,2.9621,3.0053,3.0389,3.0613,3.0569,3.0525,3.0472,3.0355,3.0305,3.0213,3.0113,2.9975,2.98,2.9617,2.9412,2.9225,2.9123,2.901,2.8893,2.8737,2.8637,2.8536,2.838,2.8259,2.8154,2.7965,2.7821,2.7615,2.7448,2.7197,2.694,2.6657,2.6452,2.6188,2.5915,2.5619,2.5375,2.5123,2.4766,2.4457,3.1875,3.1867,3.1886,3.1793,3.1572,3.1288,3.1353,3.1631,3.17,3.1883,3.2046,3.1832,3.1778,3.1754,3.1239,3.1056,3.1089,3.0571,3.0314,3.026,2.9892,2.9691,2.9677,2.975,2.9962,3.0274,3.0384,3.0228,2.9869,2.9833,2.9147,2.7873,2.7469,2.7339,2.734,2.7539,2.7733,2.7925,2.8095,2.7575,2.6387,2.6236,2.559,2.4438,2.4264,2.4321,2.4461,2.4578,2.4707,2.4772,2.4903,2.4707,2.4118,2.4161,2.3931,2.3409,2.3354,2.3408,2.3527,2.416,2.4855,2.5539,2.5637,2.5658,2.5681,2.5862,2.5973,2.6055,2.6601,2.705,2.734,2.8077,2.8848,2.945,2.9687,3.0049,3.0591,3.0704,3.0672,3.0643,3.0616,3.0559,3.0461,3.0361,3.0273,3.0157,2.9975,2.9808,2.9701,2.9521,2.9332,2.9225,2.9112,2.8975,2.8876,2.8724,2.8625,2.8531,2.838,2.8259,2.815,2.795,2.776,2.763,2.7432,2.7165,2.6923,2.6657,2.64,2.6134,2.5844,2.5543,2.5127,2.4826,2.4498,3.282,3.2376,3.2455,3.2468,3.2318,3.1745,3.1731,3.205,3.1706,3.164,3.1885,3.2061,3.225,3.2392,3.18,3.1612,3.168,3.1152,3.0616,3.0146,3.0244,2.998,2.946,2.9671,2.9832,2.9919,3.0253,3.0393,3.0328,2.9935,2.9128,2.8099,2.7998,2.7739,2.7316,2.7359,2.7529,2.773,2.7745,2.7494,2.7028,2.6411,2.5764,2.5052,2.4419,2.4209,2.4384,2.4479,2.4578,2.4715,2.4846,2.49,2.4891,2.4992,2.5036,2.4955,2.5009,2.5124,2.5232,2.5343,2.5418,2.5582,2.5638,2.5659,2.5706,2.6363,2.6819,2.6941,2.7006,2.744,2.8125,2.8963,2.9504,2.9668,3.0234,3.0733,3.0752,3.073,3.071,3.0706,3.0636,3.0612,3.0569,3.0461,3.0305,3.0154,3.0014,2.9849,2.9738,2.9636,2.9482,2.9322,2.9181,2.9067,2.8964,2.8858,2.8737,2.8612,2.8536,2.8406,2.8246,2.8168,2.8067,2.7777,2.7585,2.7371,2.7135,2.6875,2.659,2.633,2.6028,2.5696,2.5182,2.4902,2.4681,3.3052,3.2946,3.3002,3.2922,3.268,3.2254,3.2249,3.247,3.2094,3.2034,3.218,3.2036,3.2109,3.2342,3.216,3.216,3.2237,3.1649,3.13,3.1165,3.0887,3.0457,3.0012,3.0117,3.0074,2.9848,3.013,3.0338,3.0348,2.9926,2.9511,2.9056,2.8422,2.7947,2.7722,2.7439,2.734,2.7529,2.7644,2.7613,2.7419,2.6946,2.6153,2.5164,2.4879,2.4609,2.434,2.442,2.4539,2.4629,2.473,2.4853,2.4996,2.5063,2.5114,2.5203,2.5257,2.5322,2.5388,2.546,2.5522,2.5536,2.6071,2.6376,2.6407,2.7184,2.7875,2.8374,2.8514,2.8703,2.9078,2.9844,3.035,3.0346,3.0605,3.0799,3.0795,3.0767,3.0758,3.072,3.0684,3.064,3.0598,3.0483,3.0349,3.0197,3.0076,2.9967,2.9844,2.9729,2.9589,2.9434,2.9301,2.9171,2.9033,2.8917,2.881,2.8682,2.8612,2.8497,2.8371,2.8254,2.8126,2.7936,2.7763,2.7569,2.7371,2.7135,2.6841,2.6539,2.6136,2.5752,2.532,2.5064,2.4806,3.3108,3.3276,3.3276,3.3232,3.3058,3.2741,3.2713,3.2849,3.2485,3.2375,3.2363,3.2106,3.2021,3.2109,3.2259,3.2413,3.2489,3.2068,3.1876,3.1852,3.146,3.102,3.06,3.0481,3.03,3.0038,3.0038,3.021,3.0372,3.0196,3.0009,2.9755,2.8826,2.8219,2.8015,2.748,2.723,2.7341,2.7539,2.7657,2.7657,2.7481,2.6803,2.5713,2.5321,2.4986,2.4557,2.446,2.4472,2.4574,2.4655,2.4772,2.4915,2.4976,2.5069,2.518,2.5245,2.5283,2.5303,2.5397,2.556,2.584,2.6477,2.6961,2.7327,2.8048,2.8774,2.9306,2.9755,2.9896,3.0007,3.0503,3.082,3.0839,3.0814,3.0799,3.0799,3.0798,3.0786,3.0727,3.0723,3.068,3.0592,3.0488,3.0355,3.024,3.0176,3.0061,2.9983,2.9979,3.0049,2.9906,2.9926,2.9749,2.9225,2.8975,2.8881,2.8779,2.87,2.8587,2.8476,2.8345,2.8209,2.8063,2.7876,2.7701,2.7539,2.7307,2.6989,2.6657,2.6261,2.5862,2.5508,2.5275,2.5021,3.3108,3.3276,3.3276,3.3403,3.3526,3.3086,3.3068,3.334,3.2893,3.2528,3.2361,3.2378,3.2226,3.1887,3.2109,3.2259,3.2425,3.2461,3.2203,3.1772,3.1883,3.162,3.0977,3.0576,3.0441,3.0373,3.0099,3.0136,3.0506,3.0703,3.0532,2.9905,2.9314,2.8711,2.81,2.7484,2.7151,2.723,2.7402,2.7569,2.7716,2.7897,2.7678,2.6966,2.5797,2.5216,2.5222,2.4632,2.4349,2.4518,2.4673,2.4725,2.4723,2.4908,2.505,2.5187,2.5216,2.5248,2.5326,2.539,2.5741,2.6492,2.6826,2.7148,2.8011,2.8854,2.9379,2.944,3.0202,3.0648,3.0659,3.0726,3.0812,3.0879,3.0838,3.0812,3.0801,3.0792,3.0784,3.0786,3.073,3.0665,3.0592,3.049,3.0383,3.0324,3.0245,3.0185,3.0184,3.054,3.0866,3.0959,3.1107,3.111,2.9643,2.9453,2.925,2.921,2.9296,2.8856,2.861,2.8471,2.8412,2.8281,2.817,2.8012,2.7742,2.74,2.7021,2.6674,2.6383,2.6026,2.5677,2.5448,2.5197,3.3002,3.3276,3.3276,3.3431,3.3577,3.3405,3.3545,3.3826,3.3354,3.3141,3.3059,3.2583,3.2288,3.2241,3.2122,3.2135,3.2274,3.2413,3.2384,3.2249,3.248,3.2238,3.1683,3.1636,3.1197,3.0512,3.0493,3.0478,3.0434,3.0589,3.062,3.0465,2.9926,2.9296,2.8694,2.8032,2.7502,2.7185,2.7261,2.7386,2.7569,2.7748,2.7809,2.7763,2.6987,2.6359,2.5991,2.5808,2.5564,2.5208,2.5308,2.5132,2.4775,2.4901,2.5004,2.5082,2.5163,2.5432,2.5931,2.6079,2.6491,2.7335,2.8009,2.8416,2.8934,2.9676,3.0233,3.0296,3.0483,3.0735,3.0784,3.0789,3.0804,3.0832,3.0859,3.0838,3.0812,3.0798,3.0796,3.0784,3.0752,3.0668,3.0623,3.0545,3.0479,3.043,3.0733,3.0899,3.0955,3.1419,3.1844,3.1741,3.1819,3.1742,3.1117,3.0736,3.0576,3.0509,3.0459,3.0301,3.0106,2.9886,2.9822,2.955,2.9187,2.8711,2.8564,2.7912,2.7462,2.7063,2.6757,2.639,2.586,2.5686,2.5404,3.2966,3.3206,3.3276,3.3361,3.3501,3.357,3.3709,3.3914,3.372,3.3616,3.3477,3.2941,3.2598,3.2408,3.2223,3.2135,3.215,3.233,3.2468,3.2551,3.2718,3.2616,3.2353,3.2293,3.1876,3.111,3.0898,3.0711,3.0377,3.0443,3.0609,3.0764,3.0216,2.9709,2.9265,2.8455,2.7777,2.7465,2.7287,2.7293,2.7483,2.763,2.7789,2.7922,2.7776,2.7332,2.6685,2.6611,2.6376,2.5982,2.6033,2.591,2.5555,2.5635,2.5743,2.5773,2.5862,2.6168,2.6708,2.6907,2.7328,2.8129,2.88,2.9323,2.9708,3.0294,3.0607,3.068,3.0711,3.0719,3.075,3.0786,3.0789,3.08,3.0835,3.0859,3.0819,3.0829,3.0806,3.0786,3.0739,3.0683,3.0637,3.061,3.0675,3.0752,3.1283,3.155,3.1802,3.2346,3.2813,3.2694,3.2859,3.2933,3.2687,3.2491,3.1666,3.1428,3.1261,3.1284,3.1279,3.1148,3.0982,3.0743,3.0334,2.9802,2.9208,2.8533,2.8089,2.7724,2.7351,2.7003,2.6498,2.5973,2.5743,3.2988,3.3023,3.3192,3.3326,3.3347,3.3501,3.3605,3.3695,3.3928,3.3806,3.3543,3.355,3.3103,3.2495,3.2437,3.2314,3.2177,3.2305,3.2398,3.2425,3.2566,3.2687,3.2756,3.2353,3.2215,3.2142,3.1324,3.0677,3.0315,3.0429,3.0547,3.0579,3.0261,2.9955,2.9873,2.8775,2.8117,2.7929,2.7531,2.7332,2.739,2.7585,2.7716,2.7832,2.801,2.7896,2.7399,2.6891,2.6677,2.6652,2.6779,2.6972,2.6957,2.7006,2.7167,2.7161,2.7294,2.7438,2.7656,2.7708,2.8121,2.8914,2.9165,2.9605,3.0274,3.054,3.0634,3.0669,3.0703,3.0711,3.0719,3.0769,3.0784,3.0795,3.0811,3.0838,3.0879,3.0832,3.0789,3.0791,3.0748,3.0711,3.0722,3.08,3.1014,3.157,3.1888,3.2167,3.2668,3.3331,3.3726,3.3799,3.3883,3.3947,3.4147,3.4197,3.3072,3.2164,3.1912,3.1803,3.1823,3.1751,3.1731,3.1527,3.1022,3.0505,2.9887,2.9309,2.9154,2.8801,2.8271,2.7753,2.7346,2.6867,2.6257,3.2881,3.3023,3.3206,3.3276,3.3276,3.3347,3.348,3.3605,3.3695,3.3808,3.3835,3.3616,3.3454,3.3304,3.2809,3.2496,3.2474,3.2336,3.2315,3.2398,3.2535,3.2633,3.2683,3.2712,3.2646,3.2228,3.119,3.0661,3.0612,3.0434,3.038,3.0522,3.058,3.0334,2.9938,2.9565,2.9065,2.81,2.7895,2.7669,2.733,2.7448,2.7615,2.7745,2.7996,2.808,2.8016,2.7972,2.7783,2.7442,2.7482,2.736,2.7103,2.7135,2.7219,2.7256,2.7361,2.7763,2.8365,2.8541,2.8912,2.9653,2.9939,3.0127,3.0409,3.0535,3.0612,3.064,3.0665,3.0704,3.0724,3.0773,3.0789,3.0783,3.0799,3.0812,3.0878,3.0854,3.0792,3.0802,3.0777,3.0978,3.1416,3.1518,3.1805,3.255,3.3014,3.3442,3.3726,3.4247,3.4706,3.4679,3.4803,3.468,3.4583,3.445,3.3815,3.3087,3.2809,3.2553,3.2514,3.2466,3.2446,3.2235,3.1727,3.1212,3.0606,3.0245,3.0121,2.973,2.9145,2.8691,2.8328,2.7763,2.7153,3.2704,3.2917,3.3122,3.3241,3.3276,3.3276,3.3382,3.3501,3.3585,3.3744,3.3822,3.3744,3.3663,3.3668,3.3249,3.2915,3.2645,3.2513,3.242,3.2361,3.2453,3.2551,3.2648,3.292,3.2867,3.2323,3.1374,3.0908,3.0872,3.0473,3.0312,3.0485,3.0692,3.0657,3.0269,3.0097,2.955,2.8847,2.8339,2.7895,2.7615,2.7447,2.7478,2.7674,2.7864,2.8067,2.8259,2.8419,2.8414,2.8242,2.8264,2.8141,2.7825,2.7979,2.8079,2.8149,2.8269,2.86,2.9122,2.9306,2.956,3.0105,3.0299,3.038,3.0416,3.0523,3.0583,3.0606,3.0637,3.066,3.0704,3.0739,3.0772,3.0784,3.0786,3.0826,3.0878,3.0837,3.0803,3.0861,3.1092,3.1485,3.1835,3.2338,3.2682,3.3447,3.3959,3.4449,3.4583,3.4963,3.5076,3.5072,3.4917,3.4811,3.4697,3.455,3.4416,3.4061,3.3771,3.3513,3.3381,3.3273,3.3199,3.2944,3.252,3.2261,3.1704,3.1392,3.1162,3.0576,3.0075,2.9671,2.9257,2.8607,2.8009,3.2489,3.269,3.2903,3.3108,3.3276,3.3276,3.3312,3.3361,3.3501,3.3585,3.366,3.3899,3.3835,3.362,3.3747,3.34,3.2736,3.2821,3.2614,3.2328,3.2342,3.2496,3.2648,3.2935,3.2861,3.2463,3.1899,3.1414,3.1013,3.0554,3.0286,3.0396,3.0589,3.077,3.0674,3.0269,3.007,2.9812,2.883,2.8322,2.8253,2.7664,2.7461,2.7709,2.7801,2.7918,2.8164,2.8353,2.8549,2.8767,2.8922,2.9034,2.9217,2.9414,2.9363,2.9448,2.9717,2.9691,2.9859,2.987,3.0011,3.014,3.0246,3.0311,3.0392,3.0455,3.0519,3.0574,3.0595,3.0641,3.0687,3.0701,3.0751,3.0782,3.0798,3.0846,3.0879,3.0897,3.1028,3.1111,3.1594,3.2204,3.2355,3.2921,3.3584,3.424,3.454,3.483,3.5136,3.5311,3.5274,3.5174,3.5027,3.4908,3.4791,3.4655,3.4517,3.4363,3.4161,3.3972,3.3815,3.3712,3.3591,3.3368,3.3187,3.2981,3.2719,3.2264,3.1998,3.1637,3.1149,3.0691,3.0158,2.9553,2.906,3.2417,3.2525,3.2846,3.3023,3.3108,3.3241,3.3276,3.3326,3.3361,3.3466,3.3605,3.3848,3.4007,3.4109,3.4038,3.3632,3.3183,3.3004,3.2663,3.2185,3.2287,3.2468,3.2621,3.2827,3.2964,3.2809,3.2377,3.1932,3.1414,3.0937,3.0576,3.0269,3.048,3.0671,3.0804,3.072,3.0485,3.0161,2.9864,2.9344,2.8904,2.8389,2.8156,2.8277,2.7957,2.79,2.8126,2.8411,2.8625,2.8785,2.8952,2.9119,2.9214,2.9312,2.9453,2.9607,2.9692,2.9782,2.9883,2.994,3.0011,3.0116,3.0192,3.024,3.0311,3.0379,3.0447,3.0515,3.0578,3.0623,3.068,3.0694,3.0733,3.0779,3.0876,3.0902,3.1033,3.1406,3.1755,3.1859,3.2529,3.3171,3.3646,3.4014,3.4451,3.5124,3.5301,3.5253,3.5455,3.5483,3.5386,3.5258,3.5147,3.5009,3.4889,3.4759,3.4634,3.4517,3.4316,3.4074,3.3895,3.3707,3.3591,3.3404,3.3316,3.3126,3.2957,3.266,3.2538,3.2336,3.1987,3.1425,3.1126,3.0649,3.0232,3.2359,3.2417,3.2654,3.2846,3.3023,3.3122,3.3241,3.3276,3.3276,3.3361,3.3536,3.3779,3.3985,3.4167,3.4306,3.4053,3.3593,3.3412,3.3044,3.2509,3.2412,3.2484,3.2621,3.28,3.2978,3.3044,3.2633,3.2288,3.1918,3.1282,3.0829,3.068,3.0545,3.0605,3.081,3.0878,3.0827,3.0487,3.0296,2.9986,2.9688,2.9059,2.8645,2.8564,2.8233,2.8179,2.8198,2.8398,2.86,2.8773,2.8935,2.9062,2.9189,2.9278,2.9373,2.955,2.9645,2.9737,2.9832,2.9891,2.9953,3.0072,3.0157,3.0219,3.0292,3.0349,3.0419,3.049,3.0554,3.0606,3.0661,3.0687,3.0911,3.1286,3.1356,3.1382,3.1418,3.1795,3.2265,3.2708,3.34,3.4066,3.4596,3.4853,3.5281,3.5628,3.5659,3.5601,3.5602,3.5534,3.5482,3.536,3.5227,3.5115,3.5001,3.487,3.4708,3.4594,3.4374,3.4148,3.3972,3.3762,3.3629,3.3509,3.3408,3.3274,3.3104,3.2932,3.2706,3.2507,3.2336,3.209,3.1673,3.1315,3.0982,3.2264,3.2381,3.2381,3.2618,3.2917,3.2988,3.3108,3.3276,3.3276,3.3276,3.3396,3.3724,3.3862,3.3931,3.4447,3.4519,3.3982,3.3906,3.3516,3.2994,3.2627,3.2468,3.2594,3.2746,3.2924,3.2991,3.2629,3.2523,3.226,3.1525,3.1167,3.105,3.0701,3.0579,3.0704,3.0814,3.0915,3.0847,3.0543,3.0423,3.0299,2.974,2.9282,2.9003,2.8708,2.8584,2.8433,2.8416,2.851,2.8779,2.8912,2.904,2.9156,2.9257,2.9343,2.9472,2.9589,2.9701,2.979,2.9849,2.9932,3.0046,3.0128,3.0206,3.0266,3.033,3.041,3.0458,3.054,3.0665,3.0881,3.0853,3.1348,3.1982,3.2233,3.2257,3.2359,3.2375,3.2675,3.3436,3.4306,3.4716,3.4965,3.5349,3.5869,3.5753,3.5786,3.5722,3.5644,3.5574,3.5534,3.5468,3.5342,3.5218,3.5089,3.4992,3.4801,3.4636,3.4386,3.4185,3.4036,3.3855,3.3726,3.3591,3.3481,3.3349,3.318,3.2995,3.282,3.2674,3.249,3.2232,3.1911,3.156,3.1218,3.2205,3.2264,3.2359,3.2561,3.2775,3.2952,3.3122,3.3276,3.3276,3.3276,3.3361,3.357,3.3758,3.3931,3.4332,3.4317,3.4097,3.417,3.3894,3.3156,3.2622,3.2428,3.2496,3.2594,3.2773,3.2888,3.2971,3.2787,3.2437,3.2254,3.1774,3.1076,3.1084,3.0897,3.0613,3.079,3.0932,3.0978,3.0946,3.0961,3.0923,3.0489,3.0104,2.9972,2.935,2.8999,2.8887,2.8595,2.8489,2.8625,2.881,2.9027,2.9062,2.9149,2.9249,2.9363,2.9482,2.9598,2.9719,2.979,2.9849,2.9948,3.0061,3.0154,3.0225,3.0273,3.0362,3.0402,3.0483,3.0815,3.142,3.1658,3.215,3.2778,3.3073,3.3349,3.3924,3.4083,3.4116,3.4512,3.5112,3.5703,3.5664,3.5673,3.5897,3.5875,3.5834,3.5773,3.5704,3.5604,3.5556,3.5522,3.5441,3.5324,3.5166,3.5046,3.486,3.4678,3.4443,3.4233,3.4099,3.3934,3.3793,3.3675,3.3553,3.3408,3.3256,3.3117,3.2945,3.2804,3.2607,3.2336,3.2055,3.1747,3.1428,3.2205,3.2205,3.2264,3.2395,3.2561,3.2775,3.2952,3.3157,3.3241,3.3276,3.3361,3.3536,3.3724,3.3931,3.4244,3.4397,3.4469,3.4562,3.4152,3.3368,3.2942,3.2721,3.2413,3.2496,3.2648,3.2897,3.3043,3.2961,3.2911,3.2634,3.2184,3.1454,3.1371,3.0948,3.0563,3.0733,3.0912,3.0955,3.1112,3.1232,3.121,3.1085,3.081,3.0629,2.9925,2.9499,2.9659,2.9558,2.9314,2.9191,2.9263,2.9223,2.9042,2.9123,2.9225,2.9312,2.9443,2.956,2.9664,2.9774,2.9823,2.9907,3.0022,3.0106,3.0204,3.0253,3.0318,3.0404,3.053,3.0859,3.1803,3.24,3.2946,3.366,3.3916,3.4294,3.4963,3.4952,3.4913,3.5214,3.5663,3.5888,3.5988,3.5945,3.5919,3.5885,3.5875,3.5834,3.5765,3.5689,3.5618,3.5564,3.5515,3.5405,3.5246,3.5079,3.4889,3.473,3.455,3.4351,3.4185,3.4023,3.3873,3.3726,3.3605,3.3495,3.3364,3.3226,3.307,3.2884,3.2673,3.2456,3.2214,3.1912,3.1581,3.2205,3.2205,3.2205,3.2264,3.2417,3.2632,3.2846,3.3023,3.3192,3.3276,3.3326,3.3515,3.364,3.3917,3.4157,3.4501,3.4809,3.4885,3.4379,3.3493,3.3328,3.2952,3.2536,3.2453,3.2566,3.2843,3.3005,3.3156,3.3166,3.2975,3.2567,3.2086,3.1645,3.1221,3.0759,3.0684,3.0851,3.0932,3.1072,3.1193,3.1293,3.1355,3.1275,3.1046,3.0469,3.0229,3.038,3.0377,3.0266,2.9831,3.0028,2.9825,2.9495,2.9156,2.9203,2.9272,2.9384,2.9502,2.9617,2.9719,2.9816,2.9891,2.9999,3.0102,3.0183,3.0271,3.0446,3.07,3.0962,3.1516,3.2225,3.2951,3.3829,3.4526,3.4802,3.5157,3.5556,3.5272,3.5373,3.5739,3.5918,3.5972,3.6019,3.6001,3.596,3.5914,3.5908,3.5872,3.5803,3.5751,3.5684,3.5602,3.5553,3.5441,3.5297,3.5141,3.4964,3.4781,3.4626,3.4461,3.4281,3.4136,3.3972,3.382,3.3684,3.3563,3.3452,3.3319,3.315,3.2963,3.2771,3.2574,3.2318,3.2073,3.173,3.2205,3.2205,3.2205,3.2264,3.2417,3.2632,3.281,3.3037,3.3192,3.3276,3.3312,3.3312,3.357,3.3848,3.3931,3.4312,3.4773,3.4943,3.4607,3.3846,3.3579,3.3108,3.2628,3.2428,3.2539,3.2648,3.2854,3.3032,3.3187,3.324,3.2946,3.2488,3.211,3.1622,3.1123,3.0844,3.0779,3.0892,3.1012,3.1095,3.1249,3.1387,3.1564,3.153,3.108,3.0987,3.099,3.0764,3.0531,3.0603,3.0753,3.0793,3.0507,2.9763,2.9374,2.9306,2.932,2.9414,2.9531,2.9645,2.9737,2.9816,2.9994,3.0102,3.0213,3.0331,3.0828,3.1456,3.2176,3.297,3.3892,3.4113,3.4645,3.5321,3.5583,3.5668,3.5814,3.5782,3.569,3.5965,3.6014,3.6015,3.6009,3.6013,3.5974,3.5931,3.5906,3.5885,3.5815,3.5778,3.5722,3.5644,3.5574,3.5469,3.5331,3.5196,3.5039,3.485,3.4699,3.4561,3.4404,3.4257,3.4111,3.3921,3.378,3.3647,3.352,3.3408,3.3259,3.3057,3.2884,3.2707,3.2439,3.2161,3.1857,3.2109,3.2218,3.2205,3.2241,3.2336,3.2596,3.2775,3.2895,3.3157,3.3276,3.3276,3.3312,3.3466,3.3724,3.3862,3.4278,3.4784,3.5158,3.4921,3.4455,3.401,3.351,3.2875,3.2598,3.2441,3.2551,3.2773,3.2951,3.3123,3.3356,3.3173,3.2759,3.2515,3.2129,3.1466,3.1198,3.0979,3.1002,3.0972,3.1055,3.121,3.1402,3.1615,3.17,3.1742,3.1707,3.1838,3.1856,3.1594,3.1487,3.1538,3.1438,3.1112,3.0692,3.0122,2.985,2.9545,2.9401,2.9511,2.9636,2.9926,3.0449,3.0528,3.0886,3.1248,3.1581,3.1706,3.2301,3.3127,3.3901,3.4313,3.4807,3.5318,3.5671,3.5861,3.5892,3.5897,3.5941,3.597,3.6013,3.601,3.6015,3.6014,3.6005,3.5986,3.5964,3.5924,3.5885,3.5838,3.5803,3.5778,3.5684,3.559,3.549,3.5376,3.5253,3.511,3.4927,3.4772,3.4647,3.4495,3.434,3.4197,3.4023,3.3887,3.3726,3.3577,3.3466,3.3301,3.3165,3.2963,3.2771,3.2523,3.2249,3.193,3.2,3.2205,3.2205,3.2205,3.2241,3.2503,3.2668,3.2775,3.3086,3.3241,3.3276,3.3326,3.3431,3.3654,3.3917,3.4346,3.4935,3.5297,3.5247,3.488,3.4378,3.3899,3.3339,3.2782,3.2425,3.2453,3.2676,3.2924,3.3069,3.3293,3.3195,3.2965,3.299,3.2634,3.1968,3.1572,3.1369,3.1211,3.0969,3.1072,3.123,3.1404,3.1593,3.1781,3.1983,3.2179,3.2299,3.2464,3.2424,3.2286,3.2249,3.2172,3.176,3.1579,3.131,3.0837,3.0161,2.9917,3.0012,3.0187,3.0678,3.1205,3.1362,3.1846,3.2325,3.2573,3.2965,3.3282,3.3987,3.4567,3.4823,3.5267,3.5626,3.5767,3.585,3.5885,3.5885,3.5908,3.5953,3.5983,3.6004,3.6013,3.6016,3.6012,3.6,3.598,3.596,3.5916,3.5876,3.5857,3.5799,3.5699,3.5615,3.5534,3.5415,3.5312,3.5168,3.5029,3.4879,3.474,3.4583,3.4427,3.4288,3.4124,3.3972,3.3834,3.3675,3.3538,3.3422,3.3256,3.3057,3.2852,3.264,3.237,3.202,3.2,3.2205,3.2205,3.2205,3.2205,3.2395,3.2561,3.2739,3.2952,3.3157,3.3276,3.3312,3.3431,3.3675,3.4108,3.4501,3.4916,3.5216,3.5304,3.5032,3.4531,3.4007,3.34,3.2705,3.2475,3.2441,3.2578,3.2746,3.2951,3.3203,3.3419,3.3371,3.3008,3.2724,3.2765,3.2069,3.149,3.1553,3.1169,3.1035,3.1254,3.1423,3.1557,3.1707,3.1911,3.2144,3.2284,3.2523,3.2647,3.2836,3.2906,3.3066,3.3152,3.2607,3.2449,3.2187,3.1813,3.1372,3.1403,3.1403,3.1611,3.1955,3.2128,3.2297,3.2873,3.3478,3.3884,3.3981,3.4763,3.5232,3.5317,3.5567,3.5713,3.5769,3.5807,3.5861,3.5866,3.5894,3.5921,3.5964,3.5991,3.6008,3.6015,3.6015,3.601,3.5996,3.5974,3.5934,3.59,3.5878,3.5826,3.5708,3.5637,3.5546,3.5482,3.5364,3.525,3.51,3.4974,3.4849,3.4689,3.4509,3.4374,3.4221,3.4074,3.3908,3.3753,3.3633,3.3538,3.3364,3.3135,3.2963,3.2805,3.2489,3.2144,3.1853,3.205,3.2146,3.2205,3.2205,3.2322,3.2525,3.2739,3.2917,3.3108,3.3276,3.3276,3.3466,3.3779,3.4054,3.4414,3.4835,3.5082,3.5275,3.527,3.4835,3.4377,3.3838,3.3233,3.2844,3.2456,3.2535,3.2718,3.2924,3.3085,3.3335,3.3491,3.3323,3.3165,3.3299,3.274,3.2175,3.1745,3.1249,3.1069,3.1249,3.1404,3.15,3.1557,3.1839,3.2055,3.2214,3.2422,3.2673,3.29,3.3042,3.3226,3.3397,3.3221,3.3145,3.3216,3.311,3.2588,3.1927,3.1994,3.2326,3.2741,3.2965,3.328,3.3842,3.432,3.4691,3.479,3.5191,3.5483,3.559,3.5646,3.5679,3.5742,3.5786,3.5827,3.5856,3.5882,3.5908,3.5951,3.5992,3.5996,3.601,3.6015,3.6014,3.6004,3.5985,3.5942,3.5903,3.5849,3.5795,3.5708,3.5648,3.5587,3.5509,3.5415,3.5312,3.5185,3.5047,3.4908,3.4762,3.4599,3.4465,3.4328,3.4185,3.4023,3.386,3.3698,3.3563,3.339,3.3211,3.3026,3.287,3.259,3.2197,3.1706,3.1853,3.2073,3.2205,3.2205,3.2286,3.2503,3.269,3.2846,3.3072,3.3241,3.3312,3.3501,3.3793,3.3931,3.4225,3.4735,3.4868,3.5184,3.5364,3.5181,3.4683,3.4116,3.3604,3.3013,3.2413,3.2496,3.2621,3.28,3.2989,3.3203,3.3487,3.3569,3.3542,3.3388,3.3183,3.2784,3.1777,3.1491,3.1305,3.1261,3.1385,3.1462,3.1576,3.1746,3.1966,3.2161,3.2405,3.2623,3.2836,3.3042,3.3193,3.3357,3.3462,3.3505,3.3611,3.3629,3.3407,3.2857,3.2743,3.2988,3.3406,3.3795,3.4122,3.4762,3.517,3.5234,3.5185,3.5348,3.5489,3.5566,3.5618,3.5653,3.5704,3.5765,3.583,3.5864,3.5869,3.5894,3.5919,3.594,3.5976,3.5998,3.6011,3.6016,3.601,3.5995,3.5951,3.5911,3.5852,3.5807,3.5751,3.5684,3.5612,3.5558,3.5457,3.536,3.5239,3.5107,3.4982,3.4841,3.4691,3.4542,3.442,3.4281,3.4111,3.3934,3.3766,3.3619,3.3477,3.3316,3.3104,3.2884,3.2623,3.2249,3.1609,3.1633,3.2036,3.2205,3.2205,3.2205,3.2408,3.269,3.2739,3.2966,3.3276,3.3312,3.3431,3.364,3.3862,3.4088,3.4481,3.4769,3.5148,3.5297,3.5164,3.4775,3.4315,3.3759,3.3167,3.2567,3.2499,3.2523,3.2648,3.287,3.315,3.3477,3.3581,3.379,3.3736,3.3477,3.3044,3.228,3.2027,3.1664,3.1475,3.1485,3.1566,3.1574,3.1764,3.1966,3.2126,3.2353,3.2574,3.2789,3.2977,3.3147,3.3316,3.3506,3.3633,3.3716,3.3847,3.3725,3.3562,3.3675,3.4113,3.4345,3.4488,3.4661,3.501,3.5147,3.522,3.5285,3.5357,3.5462,3.5547,3.5612,3.5637,3.5684,3.5742,3.5786,3.5823,3.5875,3.5879,3.5886,3.5907,3.5947,3.6001,3.6002,3.6014,3.6014,3.5996,3.5972,3.5919,3.5872,3.5834,3.5791,3.5727,3.5654,3.5602,3.5514,3.5416,3.5308,3.519,3.5063,3.4917,3.4772,3.4628,3.4506,3.4351,3.4185,3.4005,3.3881,3.3739,3.3605,3.3437,3.3198,3.2852,3.254,3.2144,3.1609,3.1633,3.2036,3.2205,3.2205,3.2205,3.2372,3.2654,3.269,3.2931,3.3276,3.3312,3.3396,3.3605,3.3813,3.4088,3.4414,3.4769,3.5034,3.5332,3.5386,3.5215,3.4744,3.4205,3.3721,3.3044,3.2659,3.2468,3.2621,3.2816,3.3005,3.3256,3.345,3.3642,3.3657,3.364,3.3284,3.3128,3.2765,3.2379,3.1935,3.1992,3.1959,3.1553,3.1709,3.1912,3.209,3.2214,3.2439,3.2672,3.2898,3.3088,3.3256,3.3459,3.3605,3.3661,3.3807,3.3908,3.4011,3.4185,3.4328,3.4539,3.4689,3.4859,3.5002,3.5075,3.5162,3.5234,3.532,3.54,3.5515,3.5591,3.5631,3.5667,3.5699,3.5745,3.5803,3.5857,3.5885,3.5891,3.5897,3.5938,3.5974,3.6009,3.6009,3.6016,3.5985,3.5976,3.5924,3.5888,3.5856,3.5815,3.575,3.5679,3.5623,3.5544,3.547,3.5374,3.5262,3.5141,3.5,3.4841,3.4703,3.4575,3.4439,3.4281,3.4148,3.4011,3.3873,3.3689,3.3481,3.3244,3.2902,3.2489,3.2161,3.1609,3.1633,3.205,3.2205,3.2205,3.2205,3.2372,3.2596,3.2668,3.2931,3.3276,3.3312,3.3382,3.355,3.3793,3.3985,3.4312,3.4668,3.4935,3.5267,3.5563,3.5532,3.514,3.4742,3.4275,3.3521,3.2998,3.2761,3.2523,3.2773,3.2951,3.3096,3.3293,3.3529,3.3684,3.377,3.378,3.37,3.3562,3.3091,3.2563,3.2717,3.2795,3.2254,3.2275,3.2308,3.2368,3.2406,3.2353,3.2606,3.2852,3.3011,3.3178,3.3357,3.353,3.3643,3.3734,3.3881,3.3998,3.4173,3.4351,3.4569,3.4727,3.482,3.4917,3.5039,3.5136,3.5209,3.527,3.5357,3.5474,3.556,3.5614,3.5637,3.5689,3.5732,3.5786,3.5842,3.5872,3.5898,3.5903,3.5924,3.5974,3.601,3.601,3.6016,3.6006,3.5981,3.5975,3.5925,3.5892,3.5834,3.5791,3.5718,3.5644,3.5579,3.5514,3.5437,3.533,3.5223,3.5079,3.4926,3.4802,3.4689,3.455,3.4386,3.4245,3.4111,3.3926,3.373,3.3491,3.3262,3.2948,3.2574,3.2301,3.1609,3.1646,3.2036,3.2205,3.2205,3.2205,3.23,3.2453,3.2632,3.2931,3.3276,3.3276,3.3276,3.3431,3.3709,3.3896,3.4088,3.4568,3.4902,3.51,3.5574,3.5469,3.5354,3.5095,3.4738,3.3721,3.3244,3.2921,3.2518,3.2734,3.2885,3.3005,3.3214,3.3477,3.372,3.4234,3.424,3.3909,3.4039,3.3773,3.3388,3.3481,3.3564,3.3265,3.3029,3.3017,3.2855,3.2579,3.2529,3.2607,3.2836,3.2995,3.3117,3.3342,3.352,3.3619,3.3671,3.3807,3.3985,3.4245,3.4427,3.4569,3.4676,3.48,3.4908,3.503,3.5138,3.5176,3.5246,3.535,3.5455,3.5547,3.5577,3.5635,3.5664,3.5713,3.5769,3.583,3.5841,3.5889,3.5905,3.5925,3.5968,3.6016,3.6012,3.6015,3.6005,3.6007,3.5984,3.5938,3.5905,3.5868,3.5807,3.5765,3.5699,3.5634,3.5568,3.5477,3.5402,3.5293,3.5185,3.5037,3.4908,3.4809,3.4645,3.4484,3.4347,3.4204,3.3991,3.3753,3.3495,3.3247,3.2932,3.2673,3.2404,3.1609,3.1646,3.2036,3.2205,3.2205,3.2205,3.2264,3.2453,3.2739,3.3037,3.3241,3.3276,3.3276,3.3396,3.357,3.3793,3.4,3.4278,3.4616,3.4968,3.5474,3.5659,3.5595,3.5401,3.5124,3.46,3.4044,3.3413,3.309,3.2974,3.2835,3.2924,3.3214,3.3503,3.3797,3.4184,3.4389,3.4378,3.4602,3.4611,3.4007,3.4219,3.4267,3.3823,3.3753,3.3586,3.3359,3.3049,3.2862,3.2733,3.2928,3.3003,3.3122,3.3331,3.3495,3.3591,3.3657,3.3793,3.3972,3.4173,3.4335,3.4473,3.4615,3.4749,3.4849,3.4992,3.5073,3.5153,3.5234,3.5312,3.5372,3.5489,3.554,3.5595,3.5651,3.5689,3.5736,3.5783,3.5818,3.5862,3.5898,3.5947,3.5984,3.601,3.601,3.6016,3.6011,3.6012,3.6009,3.5946,3.5894,3.5882,3.5842,3.5786,3.5747,3.5684,3.5612,3.5538,3.5483,3.5391,3.5277,3.5134,3.5011,3.4898,3.4739,3.4569,3.4404,3.4233,3.4042,3.3793,3.3563,3.3319,3.3042,3.2804,3.254,3.1609,3.1646,3.2036,3.2205,3.2205,3.2205,3.23,3.2525,3.281,3.3037,3.3241,3.3276,3.3276,3.3361,3.3515,3.3724,3.3931,3.4244,3.4582,3.4949,3.5326,3.5638,3.5744,3.5705,3.5508,3.5261,3.4691,3.3998,3.3352,3.3107,3.3022,3.3079,3.3293,3.3529,3.3797,3.4151,3.4456,3.4577,3.4837,3.504,3.483,3.4905,3.5053,3.4706,3.451,3.4347,3.4034,3.373,3.3438,3.3176,3.3095,3.3118,3.3232,3.3274,3.3437,3.3563,3.3726,3.3847,3.3998,3.4099,3.4264,3.4416,3.4561,3.4687,3.4798,3.4927,3.5039,3.5119,3.5212,3.5266,3.5315,3.5442,3.5528,3.5584,3.5629,3.5669,3.5718,3.5747,3.5799,3.5845,3.5895,3.5947,3.5979,3.6006,3.6006,3.6014,3.6014,3.6022,3.6017,3.5955,3.5908,3.5876,3.5884,3.5854,3.5793,3.5704,3.5658,3.559,3.5637,3.5712,3.5361,3.5234,3.5117,3.4992,3.4821,3.4658,3.4454,3.4269,3.4074,3.39,3.3712,3.3444,3.318,3.2932,3.2655,3.1609,3.1633,3.205,3.2205,3.2205,3.2205,3.2372,3.2668,3.2704,3.2945,3.3276,3.3276,3.3276,3.3326,3.3515,3.3689,3.3882,3.421,3.4534,3.4868,3.5213,3.5604,3.591,3.601,3.586,3.5661,3.526,3.4568,3.3642,3.3488,3.3415,3.3211,3.3309,3.3529,3.3787,3.405,3.4325,3.4594,3.4954,3.5138,3.5148,3.5564,3.5681,3.5514,3.537,3.5212,3.4953,3.4685,3.4263,3.397,3.3807,3.3562,3.3364,3.325,3.3408,3.3591,3.378,3.3881,3.3985,3.4074,3.4197,3.437,3.4506,3.4645,3.4769,3.4888,3.4983,3.5092,3.5179,3.5242,3.5308,3.54,3.5515,3.5566,3.5612,3.5648,3.5699,3.5741,3.5791,3.5823,3.5875,3.5933,3.5997,3.6006,3.6078,3.6012,3.6015,3.6009,3.6012,3.6009,3.5946,3.5894,3.5905,3.5939,3.5919,3.6085,3.6328,3.6475,3.6277,3.6247,3.5825,3.5645,3.5725,3.5624,3.505,3.4732,3.4498,3.4305,3.4136,3.3978,3.3807,3.3587,3.3316,3.3073,3.2836,3.1471,3.1646,3.2036,3.2205,3.2205,3.2205,3.2408,3.2654,3.269,3.2917,3.3276,3.3276,3.3276,3.3326,3.3361,3.3605,3.3813,3.404,3.4414,3.4769,3.5067,3.5492,3.5814,3.6053,3.6073,3.603,3.5722,3.5291,3.4795,3.4337,3.3512,3.3087,3.3287,3.3492,3.371,3.3899,3.4201,3.4546,3.4947,3.5175,3.5406,3.5756,3.5932,3.5925,3.5971,3.58,3.5511,3.5379,3.498,3.473,3.411,3.3784,3.4004,3.3525,3.3268,3.3577,3.3739,3.3868,3.3972,3.4023,3.4124,3.4293,3.4427,3.4591,3.4758,3.4859,3.4964,3.5047,3.5145,3.5201,3.527,3.5372,3.5488,3.556,3.5595,3.5632,3.5679,3.5742,3.5778,3.5827,3.5878,3.5911,3.5975,3.6171,3.6208,3.6087,3.6093,3.6208,3.6178,3.6258,3.6194,3.6142,3.6369,3.6537,3.6678,3.683,3.7133,3.7353,3.7118,3.7032,3.7028,3.6895,3.6687,3.6219,3.56,3.4996,3.4509,3.434,3.4185,3.4042,3.3873,3.3657,3.3462,3.3241,3.3011,3.1373,3.1646,3.1963,3.2146,3.2182,3.2218,3.2386,3.2654,3.269,3.2931,3.3276,3.3276,3.3276,3.3276,3.3312,3.3501,3.3896,3.3951,3.4293,3.4769,3.4902,3.5412,3.5782,3.6052,3.6179,3.6214,3.6107,3.5737,3.5335,3.4519,3.363,3.3486,3.3434,3.3456,3.3642,3.3822,3.4075,3.4472,3.4875,3.5128,3.5435,3.5734,3.5932,3.6041,3.6212,3.6094,3.5983,3.5933,3.5749,3.547,3.4818,3.4692,3.4725,3.4117,3.353,3.3769,3.3698,3.3834,3.3939,3.4004,3.4099,3.4233,3.4358,3.4506,3.4666,3.48,3.4898,3.4992,3.5073,3.5179,3.525,3.5335,3.5441,3.556,3.559,3.5615,3.5664,3.5728,3.5782,3.5834,3.5889,3.5897,3.6043,3.6276,3.6531,3.6728,3.7049,3.7382,3.7179,3.6907,3.6787,3.6662,3.7004,3.7306,3.7452,3.7633,3.786,3.8005,3.7835,3.7816,3.8052,3.7862,3.7397,3.6761,3.6074,3.5545,3.5071,3.4502,3.4245,3.4099,3.3978,3.382,3.3633,3.3404,3.318,3.1224,3.1609,3.1853,3.2036,3.2169,3.2205,3.2372,3.2682,3.269,3.2931,3.3241,3.3276,3.3276,3.3276,3.3312,3.3536,3.3827,3.3931,3.4259,3.4902,3.4902,3.5297,3.5814,3.602,3.621,3.6398,3.6384,3.603,3.5411,3.4767,3.4341,3.4129,3.3713,3.3583,3.3674,3.372,3.4,3.4472,3.4828,3.5105,3.5367,3.5667,3.598,3.6041,3.6174,3.6333,3.655,3.6586,3.6512,3.6237,3.5968,3.5759,3.5302,3.4787,3.4247,3.3919,3.3799,3.3793,3.39,3.3978,3.4061,3.4185,3.4316,3.445,3.4583,3.4739,3.4849,3.4955,3.5038,3.5153,3.5226,3.5304,3.5405,3.5508,3.5579,3.58,3.6063,3.6299,3.6675,3.6725,3.6754,3.6767,3.684,3.7154,3.7345,3.7524,3.7749,3.8183,3.8219,3.7774,3.7597,3.7415,3.7584,3.7985,3.8362,3.8524,3.8582,3.8612,3.8604,3.8702,3.9013,3.8621,3.8012,3.7483,3.6967,3.6297,3.5749,3.5192,3.4612,3.4197,3.4061,3.3965,3.378,3.3577,3.3364,3.1075,3.1633,3.1963,3.2132,3.2205,3.2205,3.23,3.2489,3.2632,3.2931,3.3241,3.3276,3.3276,3.3276,3.3276,3.3501,3.3827,3.3951,3.4312,3.4702,3.4902,3.5329,3.5893,3.602,3.6195,3.6398,3.6415,3.6261,3.5779,3.5383,3.4888,3.4254,3.4013,3.4027,3.3812,3.3806,3.4046,3.4489,3.4667,3.4994,3.5314,3.5549,3.5756,3.5954,3.617,3.6318,3.652,3.6647,3.6719,3.6691,3.6282,3.5901,3.5494,3.4966,3.4664,3.4451,3.4118,3.4064,3.4131,3.426,3.4338,3.4315,3.4418,3.4419,3.4506,3.4706,3.4848,3.4946,3.5068,3.5185,3.5308,3.5388,3.5522,3.5608,3.5721,3.6137,3.6524,3.7017,3.7529,3.763,3.7681,3.7715,3.777,3.7951,3.8143,3.8258,3.8349,3.8611,3.8925,3.8779,3.8762,3.8584,3.8305,3.8608,3.91,3.9396,3.9479,3.9728,3.9857,3.9942,3.9946,3.9408,3.8834,3.8435,3.7919,3.7239,3.6535,3.5877,3.53,3.4708,3.4161,3.4049,3.3895,3.3712,3.3506,3.0999,3.1596,3.2036,3.2205,3.2205,3.2205,3.2264,3.2417,3.2632,3.2895,3.3157,3.3241,3.3276,3.3276,3.3276,3.3501,3.3862,3.3896,3.4346,3.4735,3.5001,3.5394,3.5718,3.602,3.6226,3.6414,3.6554,3.643,3.621,3.5984,3.5548,3.5049,3.4952,3.4582,3.4217,3.4168,3.4223,3.4489,3.4603,3.4875,3.5245,3.5503,3.5734,3.5954,3.6144,3.6293,3.6461,3.6623,3.6766,3.6915,3.6741,3.6506,3.6195,3.5874,3.5561,3.5314,3.5035,3.4792,3.4881,3.4934,3.4982,3.5049,3.5274,3.5566,3.5736,3.5897,3.5377,3.5453,3.5666,3.5794,3.6067,3.6192,3.6626,3.6857,3.6944,3.7192,3.744,3.7728,3.801,3.8062,3.8109,3.815,3.8324,3.8802,3.9015,3.9247,3.9281,3.9586,3.9805,3.9721,3.9729,3.9691,3.9392,3.9519,4.0087,4.0311,4.036,4.067,4.0839,4.0607,4.0269,4.0017,3.9657,3.9254,3.8775,3.8126,3.7415,3.6702,3.5957,3.528,3.4672,3.4136,3.3985,3.3829,3.3643,3.0861,3.1596,3.2036,3.2205,3.2205,3.2205,3.2264,3.2395,3.2596,3.281,3.2988,3.3206,3.3276,3.3276,3.3312,3.3605,3.3779,3.3896,3.4312,3.4735,3.4902,3.5379,3.575,3.602,3.6258,3.6445,3.6616,3.6816,3.6873,3.6587,3.6375,3.6285,3.5862,3.5312,3.4962,3.4712,3.4681,3.4692,3.4775,3.4844,3.5158,3.5481,3.5711,3.591,3.6122,3.6255,3.6423,3.6606,3.6725,3.6891,3.7076,3.7058,3.686,3.66,3.6415,3.6136,3.5826,3.5824,3.6013,3.6039,3.6182,3.6375,3.6631,3.6762,3.6845,3.666,3.613,3.613,3.634,3.653,3.6785,3.7047,3.7515,3.7901,3.7993,3.8181,3.833,3.8556,3.87,3.8754,3.8801,3.8843,3.915,3.963,3.9869,4.012,4.0393,4.0796,4.0976,4.0642,4.0475,4.0498,4.0398,4.0683,4.0919,4.0867,4.0781,4.0824,4.0873,4.0761,4.0604,4.034,4.0157,4.0072,3.9537,3.8889,3.8217,3.7484,3.6731,3.5927,3.5289,3.468,3.4086,3.3934,3.378,3.0861,3.1633,3.2036,3.2205,3.2205,3.2205,3.2205,3.2277,3.2561,3.2725,3.286,3.3122,3.3276,3.3276,3.3276,3.3536,3.3848,3.3931,3.4312,3.4817,3.4902,3.5379,3.5831,3.61,3.6289,3.6492,3.6739,3.6907,3.7089,3.6991,3.6766,3.6456,3.6408,3.5982,3.5564,3.5316,3.5057,3.5098,3.4931,3.4871,3.5178,3.5463,3.5616,3.5839,3.6036,3.617,3.6339,3.6564,3.6664,3.6846,3.7105,3.7342,3.7327,3.7125,3.6931,3.6887,3.658,3.6504,3.6626,3.6732,3.6822,3.6865,3.7007,3.7052,3.7156,3.7254,3.699,3.7114,3.7274,3.7309,3.7528,3.7688,3.8044,3.838,3.8565,3.8954,3.9231,3.9708,4.0082,4.0135,4.0193,4.0221,4.0285,4.0574,4.0604,4.076,4.0761,4.1107,4.1112,4.1113,4.1105,4.1111,4.1111,4.1064,4.0994,4.0956,4.0902,4.093,4.0888,4.0784,4.0694,4.0646,4.0504,4.0342,4.0107,3.9595,3.8906,3.8231,3.7392,3.6588,3.5944,3.5298,3.4612,3.4036,3.3873]}]]